<?xml version="1.0" encoding="UTF-8" standalone="no" ?>
<gpx xmlns="http://www.topografix.com/GPX/1/1" xmlns:xsi="http://www.w3.org/2001/XMLSchema-instance" xsi:schemaLocation="http://www.topografix.com/GPX/1/1 http://www.topografix.com/GPX/1/1/gpx.xsd" version="1.1" creator="VisuGPX - https://www.visugpx.com">
  <metadata>
    <name>2023-10-23-46- caix</name>
    <desc><![CDATA[Randonnée de 10km pour environ 250 m de dénivelé positif . Une seule côte à gravir pour se hisser sur le plateau où vous aurez l'embarras du choix pour la vue sur la vallée. A voir Château, oppidum, Luzech, l'impernal,vue sur la vallée]]></desc>
  </metadata>
  <trk>
    <name><![CDATA[2023 10 23 caix]]></name>
    <trkseg>
      <trkpt lat="44.49087" lon="1.29499">
        <ele>98.1</ele>
        <time>2023-10-23T12:02:29Z</time>
      </trkpt>
      <trkpt lat="44.49082" lon="1.29502">
        <ele>100.4</ele>
        <time>2023-10-23T12:02:35Z</time>
      </trkpt>
      <trkpt lat="44.49079" lon="1.29507">
        <ele>101.1</ele>
        <time>2023-10-23T12:02:39Z</time>
      </trkpt>
      <trkpt lat="44.49074" lon="1.29509">
        <ele>102.6</ele>
        <time>2023-10-23T12:02:44Z</time>
      </trkpt>
      <trkpt lat="44.49069" lon="1.29507">
        <ele>102.7</ele>
        <time>2023-10-23T12:02:49Z</time>
      </trkpt>
      <trkpt lat="44.49064" lon="1.29505">
        <ele>102.7</ele>
        <time>2023-10-23T12:02:54Z</time>
      </trkpt>
      <trkpt lat="44.49059" lon="1.29503">
        <ele>102.4</ele>
        <time>2023-10-23T12:02:59Z</time>
      </trkpt>
      <trkpt lat="44.49054" lon="1.29505">
        <ele>102.2</ele>
        <time>2023-10-23T12:03:05Z</time>
      </trkpt>
      <trkpt lat="44.49049" lon="1.29506">
        <ele>102.5</ele>
        <time>2023-10-23T12:03:11Z</time>
      </trkpt>
      <trkpt lat="44.49045" lon="1.29511">
        <ele>107.3</ele>
        <time>2023-10-23T12:03:21Z</time>
      </trkpt>
      <trkpt lat="44.49044" lon="1.29518">
        <ele>106.2</ele>
        <time>2023-10-23T12:03:28Z</time>
      </trkpt>
      <trkpt lat="44.49043" lon="1.29525">
        <ele>101</ele>
        <time>2023-10-23T12:03:34Z</time>
      </trkpt>
      <trkpt lat="44.49044" lon="1.29533">
        <ele>98.6</ele>
        <time>2023-10-23T12:03:39Z</time>
      </trkpt>
      <trkpt lat="44.49045" lon="1.29539">
        <ele>99.5</ele>
        <time>2023-10-23T12:03:44Z</time>
      </trkpt>
      <trkpt lat="44.49046" lon="1.29546">
        <ele>100.6</ele>
        <time>2023-10-23T12:03:49Z</time>
      </trkpt>
      <trkpt lat="44.49046" lon="1.29553">
        <ele>102.8</ele>
        <time>2023-10-23T12:03:54Z</time>
      </trkpt>
      <trkpt lat="44.49046" lon="1.2956">
        <ele>104.6</ele>
        <time>2023-10-23T12:03:59Z</time>
      </trkpt>
      <trkpt lat="44.49046" lon="1.29567">
        <ele>104.8</ele>
        <time>2023-10-23T12:04:03Z</time>
      </trkpt>
      <trkpt lat="44.49043" lon="1.29573">
        <ele>102.3</ele>
        <time>2023-10-23T12:04:18Z</time>
      </trkpt>
      <trkpt lat="44.49043" lon="1.2958">
        <ele>102.9</ele>
        <time>2023-10-23T12:04:23Z</time>
      </trkpt>
      <trkpt lat="44.4904" lon="1.29585">
        <ele>104.1</ele>
        <time>2023-10-23T12:04:34Z</time>
      </trkpt>
      <trkpt lat="44.49037" lon="1.29591">
        <ele>102.1</ele>
        <time>2023-10-23T12:05:38Z</time>
      </trkpt>
      <trkpt lat="44.49036" lon="1.29597">
        <ele>102</ele>
        <time>2023-10-23T12:05:45Z</time>
      </trkpt>
      <trkpt lat="44.49033" lon="1.29603">
        <ele>104</ele>
        <time>2023-10-23T12:05:51Z</time>
      </trkpt>
      <trkpt lat="44.4903" lon="1.29609">
        <ele>102.5</ele>
        <time>2023-10-23T12:05:55Z</time>
      </trkpt>
      <trkpt lat="44.49027" lon="1.29613">
        <ele>101.9</ele>
        <time>2023-10-23T12:06:01Z</time>
      </trkpt>
      <trkpt lat="44.49023" lon="1.29618">
        <ele>100.4</ele>
        <time>2023-10-23T12:06:09Z</time>
      </trkpt>
      <trkpt lat="44.4902" lon="1.29623">
        <ele>101.9</ele>
        <time>2023-10-23T12:06:18Z</time>
      </trkpt>
      <trkpt lat="44.49017" lon="1.29628">
        <ele>105.1</ele>
        <time>2023-10-23T12:06:25Z</time>
      </trkpt>
      <trkpt lat="44.49012" lon="1.2963">
        <ele>104.7</ele>
        <time>2023-10-23T12:06:30Z</time>
      </trkpt>
      <trkpt lat="44.49007" lon="1.29633">
        <ele>103.4</ele>
        <time>2023-10-23T12:06:34Z</time>
      </trkpt>
      <trkpt lat="44.49003" lon="1.29636">
        <ele>102</ele>
        <time>2023-10-23T12:06:38Z</time>
      </trkpt>
      <trkpt lat="44.48998" lon="1.29638">
        <ele>103</ele>
        <time>2023-10-23T12:06:44Z</time>
      </trkpt>
      <trkpt lat="44.48994" lon="1.29641">
        <ele>102.7</ele>
        <time>2023-10-23T12:06:47Z</time>
      </trkpt>
      <trkpt lat="44.4899" lon="1.29644">
        <ele>102.4</ele>
        <time>2023-10-23T12:06:51Z</time>
      </trkpt>
      <trkpt lat="44.48986" lon="1.29647">
        <ele>103.8</ele>
        <time>2023-10-23T12:06:55Z</time>
      </trkpt>
      <trkpt lat="44.48982" lon="1.29652">
        <ele>101.3</ele>
        <time>2023-10-23T12:06:59Z</time>
      </trkpt>
      <trkpt lat="44.48978" lon="1.29656">
        <ele>100.2</ele>
        <time>2023-10-23T12:07:03Z</time>
      </trkpt>
      <trkpt lat="44.48974" lon="1.2966">
        <ele>100.3</ele>
        <time>2023-10-23T12:07:07Z</time>
      </trkpt>
      <trkpt lat="44.4897" lon="1.29664">
        <ele>99.9</ele>
        <time>2023-10-23T12:07:11Z</time>
      </trkpt>
      <trkpt lat="44.48966" lon="1.29667">
        <ele>101.2</ele>
        <time>2023-10-23T12:07:16Z</time>
      </trkpt>
      <trkpt lat="44.4896" lon="1.29669">
        <ele>102.3</ele>
        <time>2023-10-23T12:07:21Z</time>
      </trkpt>
      <trkpt lat="44.48956" lon="1.29671">
        <ele>102.8</ele>
        <time>2023-10-23T12:07:25Z</time>
      </trkpt>
      <trkpt lat="44.48952" lon="1.29673">
        <ele>102.3</ele>
        <time>2023-10-23T12:07:29Z</time>
      </trkpt>
      <trkpt lat="44.48946" lon="1.29675">
        <ele>102.6</ele>
        <time>2023-10-23T12:07:34Z</time>
      </trkpt>
      <trkpt lat="44.48941" lon="1.29677">
        <ele>104.9</ele>
        <time>2023-10-23T12:07:39Z</time>
      </trkpt>
      <trkpt lat="44.48936" lon="1.29677">
        <ele>104.4</ele>
        <time>2023-10-23T12:07:43Z</time>
      </trkpt>
      <trkpt lat="44.48931" lon="1.29677">
        <ele>106.2</ele>
        <time>2023-10-23T12:07:48Z</time>
      </trkpt>
      <trkpt lat="44.48926" lon="1.29676">
        <ele>108.7</ele>
        <time>2023-10-23T12:07:54Z</time>
      </trkpt>
      <trkpt lat="44.48922" lon="1.29672">
        <ele>108.5</ele>
        <time>2023-10-23T12:08:00Z</time>
      </trkpt>
      <trkpt lat="44.48918" lon="1.29669">
        <ele>107.1</ele>
        <time>2023-10-23T12:08:05Z</time>
      </trkpt>
      <trkpt lat="44.48915" lon="1.29664">
        <ele>104.7</ele>
        <time>2023-10-23T12:08:11Z</time>
      </trkpt>
      <trkpt lat="44.48911" lon="1.2966">
        <ele>102.8</ele>
        <time>2023-10-23T12:08:17Z</time>
      </trkpt>
      <trkpt lat="44.48906" lon="1.2966">
        <ele>102.8</ele>
        <time>2023-10-23T12:08:23Z</time>
      </trkpt>
      <trkpt lat="44.48902" lon="1.29664">
        <ele>104</ele>
        <time>2023-10-23T12:08:28Z</time>
      </trkpt>
      <trkpt lat="44.48899" lon="1.2967">
        <ele>103.1</ele>
        <time>2023-10-23T12:08:33Z</time>
      </trkpt>
      <trkpt lat="44.489" lon="1.29676">
        <ele>102.4</ele>
        <time>2023-10-23T12:08:39Z</time>
      </trkpt>
      <trkpt lat="44.48903" lon="1.2968">
        <ele>102.8</ele>
        <time>2023-10-23T12:08:46Z</time>
      </trkpt>
      <trkpt lat="44.48907" lon="1.29685">
        <ele>103.9</ele>
        <time>2023-10-23T12:08:53Z</time>
      </trkpt>
      <trkpt lat="44.48909" lon="1.29692">
        <ele>103.6</ele>
        <time>2023-10-23T12:08:59Z</time>
      </trkpt>
      <trkpt lat="44.48912" lon="1.29698">
        <ele>103.3</ele>
        <time>2023-10-23T12:09:07Z</time>
      </trkpt>
      <trkpt lat="44.48914" lon="1.29704">
        <ele>103.6</ele>
        <time>2023-10-23T12:09:14Z</time>
      </trkpt>
      <trkpt lat="44.48917" lon="1.2971">
        <ele>102.3</ele>
        <time>2023-10-23T12:09:20Z</time>
      </trkpt>
      <trkpt lat="44.48919" lon="1.29717">
        <ele>102.4</ele>
        <time>2023-10-23T12:09:27Z</time>
      </trkpt>
      <trkpt lat="44.48922" lon="1.29723">
        <ele>102.7</ele>
        <time>2023-10-23T12:09:33Z</time>
      </trkpt>
      <trkpt lat="44.48923" lon="1.29729">
        <ele>103.8</ele>
        <time>2023-10-23T12:09:38Z</time>
      </trkpt>
      <trkpt lat="44.48926" lon="1.29735">
        <ele>103.9</ele>
        <time>2023-10-23T12:09:44Z</time>
      </trkpt>
      <trkpt lat="44.48929" lon="1.2974">
        <ele>103.5</ele>
        <time>2023-10-23T12:09:49Z</time>
      </trkpt>
      <trkpt lat="44.48932" lon="1.29745">
        <ele>104.6</ele>
        <time>2023-10-23T12:09:54Z</time>
      </trkpt>
      <trkpt lat="44.48935" lon="1.29751">
        <ele>105</ele>
        <time>2023-10-23T12:10:00Z</time>
      </trkpt>
      <trkpt lat="44.48935" lon="1.29759">
        <ele>105.3</ele>
        <time>2023-10-23T12:10:05Z</time>
      </trkpt>
      <trkpt lat="44.48932" lon="1.29765">
        <ele>103.7</ele>
        <time>2023-10-23T12:10:09Z</time>
      </trkpt>
      <trkpt lat="44.48928" lon="1.29771">
        <ele>102.3</ele>
        <time>2023-10-23T12:10:14Z</time>
      </trkpt>
      <trkpt lat="44.48925" lon="1.29776">
        <ele>101.8</ele>
        <time>2023-10-23T12:10:18Z</time>
      </trkpt>
      <trkpt lat="44.48921" lon="1.29781">
        <ele>101.4</ele>
        <time>2023-10-23T12:10:23Z</time>
      </trkpt>
      <trkpt lat="44.48918" lon="1.29786">
        <ele>101.1</ele>
        <time>2023-10-23T12:10:28Z</time>
      </trkpt>
      <trkpt lat="44.48914" lon="1.29791">
        <ele>103.8</ele>
        <time>2023-10-23T12:10:32Z</time>
      </trkpt>
      <trkpt lat="44.48911" lon="1.29795">
        <ele>102.8</ele>
        <time>2023-10-23T12:10:36Z</time>
      </trkpt>
      <trkpt lat="44.48907" lon="1.29801">
        <ele>103.2</ele>
        <time>2023-10-23T12:10:41Z</time>
      </trkpt>
      <trkpt lat="44.48903" lon="1.29805">
        <ele>103.4</ele>
        <time>2023-10-23T12:10:45Z</time>
      </trkpt>
      <trkpt lat="44.48899" lon="1.2981">
        <ele>102.9</ele>
        <time>2023-10-23T12:10:50Z</time>
      </trkpt>
      <trkpt lat="44.48896" lon="1.29815">
        <ele>103.8</ele>
        <time>2023-10-23T12:10:54Z</time>
      </trkpt>
      <trkpt lat="44.48891" lon="1.2982">
        <ele>104.3</ele>
        <time>2023-10-23T12:10:59Z</time>
      </trkpt>
      <trkpt lat="44.48887" lon="1.29824">
        <ele>104.2</ele>
        <time>2023-10-23T12:11:04Z</time>
      </trkpt>
      <trkpt lat="44.48883" lon="1.29829">
        <ele>104.6</ele>
        <time>2023-10-23T12:11:09Z</time>
      </trkpt>
      <trkpt lat="44.48878" lon="1.29833">
        <ele>104.3</ele>
        <time>2023-10-23T12:11:14Z</time>
      </trkpt>
      <trkpt lat="44.48873" lon="1.29837">
        <ele>106.2</ele>
        <time>2023-10-23T12:11:19Z</time>
      </trkpt>
      <trkpt lat="44.48869" lon="1.2984">
        <ele>106.5</ele>
        <time>2023-10-23T12:11:23Z</time>
      </trkpt>
      <trkpt lat="44.48865" lon="1.29845">
        <ele>106.4</ele>
        <time>2023-10-23T12:11:27Z</time>
      </trkpt>
      <trkpt lat="44.48862" lon="1.2985">
        <ele>106.3</ele>
        <time>2023-10-23T12:11:32Z</time>
      </trkpt>
      <trkpt lat="44.48861" lon="1.29857">
        <ele>105.4</ele>
        <time>2023-10-23T12:11:37Z</time>
      </trkpt>
      <trkpt lat="44.48864" lon="1.29862">
        <ele>104.8</ele>
        <time>2023-10-23T12:11:44Z</time>
      </trkpt>
      <trkpt lat="44.48867" lon="1.29866">
        <ele>106.3</ele>
        <time>2023-10-23T12:11:49Z</time>
      </trkpt>
      <trkpt lat="44.4887" lon="1.29872">
        <ele>106.1</ele>
        <time>2023-10-23T12:11:54Z</time>
      </trkpt>
      <trkpt lat="44.48873" lon="1.29878">
        <ele>107.1</ele>
        <time>2023-10-23T12:12:00Z</time>
      </trkpt>
      <trkpt lat="44.48876" lon="1.29884">
        <ele>108.8</ele>
        <time>2023-10-23T12:12:05Z</time>
      </trkpt>
      <trkpt lat="44.48878" lon="1.2989">
        <ele>110.7</ele>
        <time>2023-10-23T12:12:10Z</time>
      </trkpt>
      <trkpt lat="44.48881" lon="1.29896">
        <ele>111</ele>
        <time>2023-10-23T12:12:15Z</time>
      </trkpt>
      <trkpt lat="44.48883" lon="1.29902">
        <ele>110.9</ele>
        <time>2023-10-23T12:12:20Z</time>
      </trkpt>
      <trkpt lat="44.48885" lon="1.29908">
        <ele>111.1</ele>
        <time>2023-10-23T12:12:25Z</time>
      </trkpt>
      <trkpt lat="44.48883" lon="1.29913">
        <ele>109.9</ele>
        <time>2023-10-23T12:12:30Z</time>
      </trkpt>
      <trkpt lat="44.4888" lon="1.29918">
        <ele>109.2</ele>
        <time>2023-10-23T12:12:35Z</time>
      </trkpt>
      <trkpt lat="44.48877" lon="1.29925">
        <ele>108.2</ele>
        <time>2023-10-23T12:12:40Z</time>
      </trkpt>
      <trkpt lat="44.48874" lon="1.2993">
        <ele>107.5</ele>
        <time>2023-10-23T12:12:45Z</time>
      </trkpt>
      <trkpt lat="44.4887" lon="1.29935">
        <ele>107.2</ele>
        <time>2023-10-23T12:12:50Z</time>
      </trkpt>
      <trkpt lat="44.48866" lon="1.29939">
        <ele>107.4</ele>
        <time>2023-10-23T12:12:55Z</time>
      </trkpt>
      <trkpt lat="44.48862" lon="1.29944">
        <ele>107.9</ele>
        <time>2023-10-23T12:13:00Z</time>
      </trkpt>
      <trkpt lat="44.48857" lon="1.29948">
        <ele>107.2</ele>
        <time>2023-10-23T12:13:05Z</time>
      </trkpt>
      <trkpt lat="44.48853" lon="1.29953">
        <ele>107.7</ele>
        <time>2023-10-23T12:13:10Z</time>
      </trkpt>
      <trkpt lat="44.48849" lon="1.29957">
        <ele>108.7</ele>
        <time>2023-10-23T12:13:15Z</time>
      </trkpt>
      <trkpt lat="44.48845" lon="1.2996">
        <ele>108.7</ele>
        <time>2023-10-23T12:13:20Z</time>
      </trkpt>
      <trkpt lat="44.4884" lon="1.29964">
        <ele>108.8</ele>
        <time>2023-10-23T12:13:25Z</time>
      </trkpt>
      <trkpt lat="44.48836" lon="1.29969">
        <ele>109.2</ele>
        <time>2023-10-23T12:13:30Z</time>
      </trkpt>
      <trkpt lat="44.48831" lon="1.29973">
        <ele>109</ele>
        <time>2023-10-23T12:13:35Z</time>
      </trkpt>
      <trkpt lat="44.48826" lon="1.29977">
        <ele>107.8</ele>
        <time>2023-10-23T12:13:40Z</time>
      </trkpt>
      <trkpt lat="44.48822" lon="1.29981">
        <ele>107.6</ele>
        <time>2023-10-23T12:13:45Z</time>
      </trkpt>
      <trkpt lat="44.48818" lon="1.29984">
        <ele>107.8</ele>
        <time>2023-10-23T12:13:49Z</time>
      </trkpt>
      <trkpt lat="44.48814" lon="1.29988">
        <ele>107.3</ele>
        <time>2023-10-23T12:13:53Z</time>
      </trkpt>
      <trkpt lat="44.48812" lon="1.29995">
        <ele>106</ele>
        <time>2023-10-23T12:13:59Z</time>
      </trkpt>
      <trkpt lat="44.48807" lon="1.29995">
        <ele>107.3</ele>
        <time>2023-10-23T12:14:06Z</time>
      </trkpt>
      <trkpt lat="44.48802" lon="1.29992">
        <ele>110.1</ele>
        <time>2023-10-23T12:14:11Z</time>
      </trkpt>
      <trkpt lat="44.48798" lon="1.29989">
        <ele>111.5</ele>
        <time>2023-10-23T12:14:15Z</time>
      </trkpt>
      <trkpt lat="44.48794" lon="1.29986">
        <ele>112</ele>
        <time>2023-10-23T12:14:19Z</time>
      </trkpt>
      <trkpt lat="44.48789" lon="1.29983">
        <ele>112.3</ele>
        <time>2023-10-23T12:14:23Z</time>
      </trkpt>
      <trkpt lat="44.48785" lon="1.2998">
        <ele>112.9</ele>
        <time>2023-10-23T12:14:27Z</time>
      </trkpt>
      <trkpt lat="44.48781" lon="1.29976">
        <ele>112.5</ele>
        <time>2023-10-23T12:14:31Z</time>
      </trkpt>
      <trkpt lat="44.48776" lon="1.29973">
        <ele>111.9</ele>
        <time>2023-10-23T12:14:35Z</time>
      </trkpt>
      <trkpt lat="44.48772" lon="1.29971">
        <ele>112</ele>
        <time>2023-10-23T12:14:39Z</time>
      </trkpt>
      <trkpt lat="44.48767" lon="1.29968">
        <ele>111.4</ele>
        <time>2023-10-23T12:14:43Z</time>
      </trkpt>
      <trkpt lat="44.48762" lon="1.29966">
        <ele>111.4</ele>
        <time>2023-10-23T12:14:47Z</time>
      </trkpt>
      <trkpt lat="44.48758" lon="1.29964">
        <ele>111.6</ele>
        <time>2023-10-23T12:14:51Z</time>
      </trkpt>
      <trkpt lat="44.48753" lon="1.29962">
        <ele>111.5</ele>
        <time>2023-10-23T12:14:55Z</time>
      </trkpt>
      <trkpt lat="44.48749" lon="1.29959">
        <ele>110.5</ele>
        <time>2023-10-23T12:14:59Z</time>
      </trkpt>
      <trkpt lat="44.48745" lon="1.29957">
        <ele>110.1</ele>
        <time>2023-10-23T12:15:03Z</time>
      </trkpt>
      <trkpt lat="44.4874" lon="1.29954">
        <ele>109.7</ele>
        <time>2023-10-23T12:15:07Z</time>
      </trkpt>
      <trkpt lat="44.48736" lon="1.29952">
        <ele>109.4</ele>
        <time>2023-10-23T12:15:11Z</time>
      </trkpt>
      <trkpt lat="44.48731" lon="1.29949">
        <ele>109.4</ele>
        <time>2023-10-23T12:15:16Z</time>
      </trkpt>
      <trkpt lat="44.48726" lon="1.29946">
        <ele>110.2</ele>
        <time>2023-10-23T12:15:20Z</time>
      </trkpt>
      <trkpt lat="44.48721" lon="1.29944">
        <ele>109.9</ele>
        <time>2023-10-23T12:15:24Z</time>
      </trkpt>
      <trkpt lat="44.48716" lon="1.29941">
        <ele>110.5</ele>
        <time>2023-10-23T12:15:28Z</time>
      </trkpt>
      <trkpt lat="44.48712" lon="1.29938">
        <ele>109.7</ele>
        <time>2023-10-23T12:15:32Z</time>
      </trkpt>
      <trkpt lat="44.48708" lon="1.29935">
        <ele>110</ele>
        <time>2023-10-23T12:15:36Z</time>
      </trkpt>
      <trkpt lat="44.48703" lon="1.29932">
        <ele>109.7</ele>
        <time>2023-10-23T12:15:40Z</time>
      </trkpt>
      <trkpt lat="44.48699" lon="1.2993">
        <ele>108.5</ele>
        <time>2023-10-23T12:15:44Z</time>
      </trkpt>
      <trkpt lat="44.48694" lon="1.29928">
        <ele>106.5</ele>
        <time>2023-10-23T12:15:48Z</time>
      </trkpt>
      <trkpt lat="44.48689" lon="1.29925">
        <ele>105.8</ele>
        <time>2023-10-23T12:15:52Z</time>
      </trkpt>
      <trkpt lat="44.48685" lon="1.29923">
        <ele>105.5</ele>
        <time>2023-10-23T12:15:56Z</time>
      </trkpt>
      <trkpt lat="44.48681" lon="1.2992">
        <ele>105.1</ele>
        <time>2023-10-23T12:16:00Z</time>
      </trkpt>
      <trkpt lat="44.48677" lon="1.29918">
        <ele>104.3</ele>
        <time>2023-10-23T12:16:04Z</time>
      </trkpt>
      <trkpt lat="44.48672" lon="1.29916">
        <ele>104.4</ele>
        <time>2023-10-23T12:16:08Z</time>
      </trkpt>
      <trkpt lat="44.48668" lon="1.29914">
        <ele>104.3</ele>
        <time>2023-10-23T12:16:12Z</time>
      </trkpt>
      <trkpt lat="44.48663" lon="1.2991">
        <ele>105.1</ele>
        <time>2023-10-23T12:16:17Z</time>
      </trkpt>
      <trkpt lat="44.48658" lon="1.29908">
        <ele>104.7</ele>
        <time>2023-10-23T12:16:21Z</time>
      </trkpt>
      <trkpt lat="44.48654" lon="1.29905">
        <ele>104.5</ele>
        <time>2023-10-23T12:16:25Z</time>
      </trkpt>
      <trkpt lat="44.4865" lon="1.299">
        <ele>104.5</ele>
        <time>2023-10-23T12:16:28Z</time>
      </trkpt>
      <trkpt lat="44.48645" lon="1.29899">
        <ele>104.7</ele>
        <time>2023-10-23T12:16:32Z</time>
      </trkpt>
      <trkpt lat="44.48641" lon="1.29896">
        <ele>105.1</ele>
        <time>2023-10-23T12:16:36Z</time>
      </trkpt>
      <trkpt lat="44.48636" lon="1.29895">
        <ele>104.9</ele>
        <time>2023-10-23T12:16:40Z</time>
      </trkpt>
      <trkpt lat="44.48632" lon="1.29893">
        <ele>104.7</ele>
        <time>2023-10-23T12:16:44Z</time>
      </trkpt>
      <trkpt lat="44.48627" lon="1.2989">
        <ele>104.1</ele>
        <time>2023-10-23T12:16:48Z</time>
      </trkpt>
      <trkpt lat="44.48623" lon="1.29889">
        <ele>102.7</ele>
        <time>2023-10-23T12:16:52Z</time>
      </trkpt>
      <trkpt lat="44.48618" lon="1.29885">
        <ele>102.6</ele>
        <time>2023-10-23T12:16:56Z</time>
      </trkpt>
      <trkpt lat="44.48613" lon="1.29882">
        <ele>102.1</ele>
        <time>2023-10-23T12:17:00Z</time>
      </trkpt>
      <trkpt lat="44.48608" lon="1.29881">
        <ele>101.2</ele>
        <time>2023-10-23T12:17:04Z</time>
      </trkpt>
      <trkpt lat="44.48603" lon="1.29884">
        <ele>99.5</ele>
        <time>2023-10-23T12:17:09Z</time>
      </trkpt>
      <trkpt lat="44.48601" lon="1.29889">
        <ele>98.6</ele>
        <time>2023-10-23T12:17:13Z</time>
      </trkpt>
      <trkpt lat="44.48599" lon="1.29895">
        <ele>98.1</ele>
        <time>2023-10-23T12:17:17Z</time>
      </trkpt>
      <trkpt lat="44.48598" lon="1.29902">
        <ele>97.6</ele>
        <time>2023-10-23T12:17:22Z</time>
      </trkpt>
      <trkpt lat="44.48596" lon="1.2991">
        <ele>98.6</ele>
        <time>2023-10-23T12:17:27Z</time>
      </trkpt>
      <trkpt lat="44.48595" lon="1.29917">
        <ele>98.3</ele>
        <time>2023-10-23T12:17:32Z</time>
      </trkpt>
      <trkpt lat="44.48593" lon="1.29923">
        <ele>98.1</ele>
        <time>2023-10-23T12:17:37Z</time>
      </trkpt>
      <trkpt lat="44.48593" lon="1.2993">
        <ele>97.4</ele>
        <time>2023-10-23T12:17:44Z</time>
      </trkpt>
      <trkpt lat="44.48593" lon="1.29938">
        <ele>98.8</ele>
        <time>2023-10-23T12:17:50Z</time>
      </trkpt>
      <trkpt lat="44.48593" lon="1.29945">
        <ele>98.6</ele>
        <time>2023-10-23T12:17:55Z</time>
      </trkpt>
      <trkpt lat="44.48593" lon="1.29952">
        <ele>98.9</ele>
        <time>2023-10-23T12:17:59Z</time>
      </trkpt>
      <trkpt lat="44.48593" lon="1.29958">
        <ele>99.2</ele>
        <time>2023-10-23T12:18:03Z</time>
      </trkpt>
      <trkpt lat="44.48592" lon="1.29965">
        <ele>98.1</ele>
        <time>2023-10-23T12:18:07Z</time>
      </trkpt>
      <trkpt lat="44.4859" lon="1.29972">
        <ele>97.1</ele>
        <time>2023-10-23T12:18:12Z</time>
      </trkpt>
      <trkpt lat="44.4859" lon="1.29979">
        <ele>97.6</ele>
        <time>2023-10-23T12:18:16Z</time>
      </trkpt>
      <trkpt lat="44.4859" lon="1.29986">
        <ele>98</ele>
        <time>2023-10-23T12:18:20Z</time>
      </trkpt>
      <trkpt lat="44.4859" lon="1.29992">
        <ele>98.6</ele>
        <time>2023-10-23T12:18:24Z</time>
      </trkpt>
      <trkpt lat="44.48589" lon="1.29998">
        <ele>98.4</ele>
        <time>2023-10-23T12:18:28Z</time>
      </trkpt>
      <trkpt lat="44.48588" lon="1.30005">
        <ele>98.4</ele>
        <time>2023-10-23T12:18:32Z</time>
      </trkpt>
      <trkpt lat="44.48587" lon="1.30011">
        <ele>96.9</ele>
        <time>2023-10-23T12:18:36Z</time>
      </trkpt>
      <trkpt lat="44.48586" lon="1.30018">
        <ele>97.2</ele>
        <time>2023-10-23T12:18:40Z</time>
      </trkpt>
      <trkpt lat="44.48586" lon="1.30024">
        <ele>97.8</ele>
        <time>2023-10-23T12:18:44Z</time>
      </trkpt>
      <trkpt lat="44.48585" lon="1.3003">
        <ele>98.4</ele>
        <time>2023-10-23T12:18:48Z</time>
      </trkpt>
      <trkpt lat="44.48583" lon="1.30036">
        <ele>99</ele>
        <time>2023-10-23T12:18:52Z</time>
      </trkpt>
      <trkpt lat="44.4858" lon="1.30042">
        <ele>98.3</ele>
        <time>2023-10-23T12:18:56Z</time>
      </trkpt>
      <trkpt lat="44.48576" lon="1.30048">
        <ele>98</ele>
        <time>2023-10-23T12:19:01Z</time>
      </trkpt>
      <trkpt lat="44.48573" lon="1.30052">
        <ele>97.5</ele>
        <time>2023-10-23T12:19:05Z</time>
      </trkpt>
      <trkpt lat="44.48576" lon="1.30058">
        <ele>98.9</ele>
        <time>2023-10-23T12:19:10Z</time>
      </trkpt>
      <trkpt lat="44.48579" lon="1.30062">
        <ele>100.9</ele>
        <time>2023-10-23T12:19:20Z</time>
      </trkpt>
      <trkpt lat="44.48579" lon="1.30056">
        <ele>101.9</ele>
        <time>2023-10-23T12:20:04Z</time>
      </trkpt>
      <trkpt lat="44.48582" lon="1.30062">
        <ele>101</ele>
        <time>2023-10-23T12:20:14Z</time>
      </trkpt>
      <trkpt lat="44.48584" lon="1.3007">
        <ele>101.1</ele>
        <time>2023-10-23T12:20:18Z</time>
      </trkpt>
      <trkpt lat="44.48587" lon="1.30076">
        <ele>100.9</ele>
        <time>2023-10-23T12:20:22Z</time>
      </trkpt>
      <trkpt lat="44.48588" lon="1.30083">
        <ele>100.5</ele>
        <time>2023-10-23T12:20:27Z</time>
      </trkpt>
      <trkpt lat="44.48586" lon="1.3009">
        <ele>101.3</ele>
        <time>2023-10-23T12:20:31Z</time>
      </trkpt>
      <trkpt lat="44.48585" lon="1.30096">
        <ele>101.5</ele>
        <time>2023-10-23T12:20:35Z</time>
      </trkpt>
      <trkpt lat="44.48583" lon="1.30102">
        <ele>100.9</ele>
        <time>2023-10-23T12:20:39Z</time>
      </trkpt>
      <trkpt lat="44.48582" lon="1.30108">
        <ele>99.9</ele>
        <time>2023-10-23T12:20:43Z</time>
      </trkpt>
      <trkpt lat="44.48581" lon="1.30115">
        <ele>100.1</ele>
        <time>2023-10-23T12:20:48Z</time>
      </trkpt>
      <trkpt lat="44.48582" lon="1.30121">
        <ele>99.8</ele>
        <time>2023-10-23T12:21:02Z</time>
      </trkpt>
      <trkpt lat="44.48584" lon="1.30127">
        <ele>102.1</ele>
        <time>2023-10-23T12:21:52Z</time>
      </trkpt>
      <trkpt lat="44.48589" lon="1.3013">
        <ele>102.5</ele>
        <time>2023-10-23T12:21:56Z</time>
      </trkpt>
      <trkpt lat="44.48594" lon="1.30133">
        <ele>103.3</ele>
        <time>2023-10-23T12:22:01Z</time>
      </trkpt>
      <trkpt lat="44.48598" lon="1.30136">
        <ele>103.9</ele>
        <time>2023-10-23T12:22:06Z</time>
      </trkpt>
      <trkpt lat="44.48603" lon="1.30139">
        <ele>105.3</ele>
        <time>2023-10-23T12:22:11Z</time>
      </trkpt>
      <trkpt lat="44.48607" lon="1.30142">
        <ele>111.9</ele>
        <time>2023-10-23T12:22:16Z</time>
      </trkpt>
      <trkpt lat="44.48611" lon="1.30146">
        <ele>117.6</ele>
        <time>2023-10-23T12:22:21Z</time>
      </trkpt>
      <trkpt lat="44.48616" lon="1.30149">
        <ele>121.8</ele>
        <time>2023-10-23T12:22:27Z</time>
      </trkpt>
      <trkpt lat="44.4862" lon="1.30152">
        <ele>121.2</ele>
        <time>2023-10-23T12:22:32Z</time>
      </trkpt>
      <trkpt lat="44.48625" lon="1.30153">
        <ele>123.5</ele>
        <time>2023-10-23T12:22:37Z</time>
      </trkpt>
      <trkpt lat="44.48629" lon="1.30157">
        <ele>127.1</ele>
        <time>2023-10-23T12:22:42Z</time>
      </trkpt>
      <trkpt lat="44.48634" lon="1.3016">
        <ele>123.8</ele>
        <time>2023-10-23T12:22:46Z</time>
      </trkpt>
      <trkpt lat="44.48638" lon="1.30163">
        <ele>125.3</ele>
        <time>2023-10-23T12:22:51Z</time>
      </trkpt>
      <trkpt lat="44.48643" lon="1.30166">
        <ele>127.2</ele>
        <time>2023-10-23T12:22:57Z</time>
      </trkpt>
      <trkpt lat="44.48647" lon="1.30168">
        <ele>128.4</ele>
        <time>2023-10-23T12:23:02Z</time>
      </trkpt>
      <trkpt lat="44.48651" lon="1.30172">
        <ele>130.5</ele>
        <time>2023-10-23T12:23:07Z</time>
      </trkpt>
      <trkpt lat="44.48655" lon="1.30174">
        <ele>131.1</ele>
        <time>2023-10-23T12:23:12Z</time>
      </trkpt>
      <trkpt lat="44.48659" lon="1.30177">
        <ele>131.6</ele>
        <time>2023-10-23T12:23:17Z</time>
      </trkpt>
      <trkpt lat="44.48663" lon="1.3018">
        <ele>135.2</ele>
        <time>2023-10-23T12:23:22Z</time>
      </trkpt>
      <trkpt lat="44.48668" lon="1.30183">
        <ele>137.4</ele>
        <time>2023-10-23T12:23:27Z</time>
      </trkpt>
      <trkpt lat="44.48672" lon="1.30185">
        <ele>136.9</ele>
        <time>2023-10-23T12:23:32Z</time>
      </trkpt>
      <trkpt lat="44.48677" lon="1.30188">
        <ele>136.2</ele>
        <time>2023-10-23T12:23:37Z</time>
      </trkpt>
      <trkpt lat="44.48681" lon="1.30191">
        <ele>137</ele>
        <time>2023-10-23T12:23:42Z</time>
      </trkpt>
      <trkpt lat="44.48686" lon="1.30193">
        <ele>139.5</ele>
        <time>2023-10-23T12:23:48Z</time>
      </trkpt>
      <trkpt lat="44.4869" lon="1.30196">
        <ele>140.9</ele>
        <time>2023-10-23T12:23:53Z</time>
      </trkpt>
      <trkpt lat="44.48695" lon="1.30201">
        <ele>137.9</ele>
        <time>2023-10-23T12:23:56Z</time>
      </trkpt>
      <trkpt lat="44.487" lon="1.30204">
        <ele>134.7</ele>
        <time>2023-10-23T12:23:59Z</time>
      </trkpt>
      <trkpt lat="44.48705" lon="1.30208">
        <ele>132.2</ele>
        <time>2023-10-23T12:24:03Z</time>
      </trkpt>
      <trkpt lat="44.48709" lon="1.30212">
        <ele>132.9</ele>
        <time>2023-10-23T12:24:08Z</time>
      </trkpt>
      <trkpt lat="44.48714" lon="1.30215">
        <ele>131.8</ele>
        <time>2023-10-23T12:24:13Z</time>
      </trkpt>
      <trkpt lat="44.48719" lon="1.30219">
        <ele>130.4</ele>
        <time>2023-10-23T12:24:18Z</time>
      </trkpt>
      <trkpt lat="44.48723" lon="1.30222">
        <ele>131.5</ele>
        <time>2023-10-23T12:24:23Z</time>
      </trkpt>
      <trkpt lat="44.48728" lon="1.30225">
        <ele>131.5</ele>
        <time>2023-10-23T12:24:28Z</time>
      </trkpt>
      <trkpt lat="44.48733" lon="1.30227">
        <ele>135.6</ele>
        <time>2023-10-23T12:24:33Z</time>
      </trkpt>
      <trkpt lat="44.48738" lon="1.30231">
        <ele>137.7</ele>
        <time>2023-10-23T12:24:38Z</time>
      </trkpt>
      <trkpt lat="44.48743" lon="1.30234">
        <ele>137.5</ele>
        <time>2023-10-23T12:24:43Z</time>
      </trkpt>
      <trkpt lat="44.48748" lon="1.30237">
        <ele>136.5</ele>
        <time>2023-10-23T12:24:48Z</time>
      </trkpt>
      <trkpt lat="44.48753" lon="1.30239">
        <ele>135.8</ele>
        <time>2023-10-23T12:24:53Z</time>
      </trkpt>
      <trkpt lat="44.48758" lon="1.30243">
        <ele>135.7</ele>
        <time>2023-10-23T12:24:58Z</time>
      </trkpt>
      <trkpt lat="44.48762" lon="1.30246">
        <ele>138.6</ele>
        <time>2023-10-23T12:25:03Z</time>
      </trkpt>
      <trkpt lat="44.48767" lon="1.30248">
        <ele>138.7</ele>
        <time>2023-10-23T12:25:07Z</time>
      </trkpt>
      <trkpt lat="44.48772" lon="1.30251">
        <ele>138.9</ele>
        <time>2023-10-23T12:25:12Z</time>
      </trkpt>
      <trkpt lat="44.48776" lon="1.30254">
        <ele>139.9</ele>
        <time>2023-10-23T12:25:16Z</time>
      </trkpt>
      <trkpt lat="44.4878" lon="1.30257">
        <ele>140.6</ele>
        <time>2023-10-23T12:25:20Z</time>
      </trkpt>
      <trkpt lat="44.48784" lon="1.3026">
        <ele>139.4</ele>
        <time>2023-10-23T12:25:24Z</time>
      </trkpt>
      <trkpt lat="44.48789" lon="1.30262">
        <ele>138.5</ele>
        <time>2023-10-23T12:25:28Z</time>
      </trkpt>
      <trkpt lat="44.48793" lon="1.30264">
        <ele>137.2</ele>
        <time>2023-10-23T12:25:32Z</time>
      </trkpt>
      <trkpt lat="44.48797" lon="1.30267">
        <ele>138.1</ele>
        <time>2023-10-23T12:25:36Z</time>
      </trkpt>
      <trkpt lat="44.48801" lon="1.30271">
        <ele>139.5</ele>
        <time>2023-10-23T12:25:40Z</time>
      </trkpt>
      <trkpt lat="44.48805" lon="1.30273">
        <ele>139.7</ele>
        <time>2023-10-23T12:25:44Z</time>
      </trkpt>
      <trkpt lat="44.48809" lon="1.30276">
        <ele>139.7</ele>
        <time>2023-10-23T12:25:48Z</time>
      </trkpt>
      <trkpt lat="44.48814" lon="1.30279">
        <ele>139.5</ele>
        <time>2023-10-23T12:25:52Z</time>
      </trkpt>
      <trkpt lat="44.48818" lon="1.30282">
        <ele>140.4</ele>
        <time>2023-10-23T12:25:56Z</time>
      </trkpt>
      <trkpt lat="44.48822" lon="1.30286">
        <ele>141.4</ele>
        <time>2023-10-23T12:26:00Z</time>
      </trkpt>
      <trkpt lat="44.48826" lon="1.3029">
        <ele>140.2</ele>
        <time>2023-10-23T12:26:04Z</time>
      </trkpt>
      <trkpt lat="44.48831" lon="1.30292">
        <ele>139.1</ele>
        <time>2023-10-23T12:26:08Z</time>
      </trkpt>
      <trkpt lat="44.48835" lon="1.30296">
        <ele>137.4</ele>
        <time>2023-10-23T12:26:12Z</time>
      </trkpt>
      <trkpt lat="44.48838" lon="1.30301">
        <ele>135.1</ele>
        <time>2023-10-23T12:26:15Z</time>
      </trkpt>
      <trkpt lat="44.48842" lon="1.30305">
        <ele>116.9</ele>
        <time>2023-10-23T12:26:20Z</time>
      </trkpt>
      <trkpt lat="44.48845" lon="1.3031">
        <ele>118</ele>
        <time>2023-10-23T12:26:26Z</time>
      </trkpt>
      <trkpt lat="44.48849" lon="1.30313">
        <ele>118.5</ele>
        <time>2023-10-23T12:26:40Z</time>
      </trkpt>
      <trkpt lat="44.48853" lon="1.30316">
        <ele>120.9</ele>
        <time>2023-10-23T12:26:44Z</time>
      </trkpt>
      <trkpt lat="44.48858" lon="1.30318">
        <ele>121.6</ele>
        <time>2023-10-23T12:26:48Z</time>
      </trkpt>
      <trkpt lat="44.48863" lon="1.30321">
        <ele>122.9</ele>
        <time>2023-10-23T12:26:53Z</time>
      </trkpt>
      <trkpt lat="44.48867" lon="1.30325">
        <ele>124</ele>
        <time>2023-10-23T12:26:58Z</time>
      </trkpt>
      <trkpt lat="44.48872" lon="1.30328">
        <ele>123.8</ele>
        <time>2023-10-23T12:27:03Z</time>
      </trkpt>
      <trkpt lat="44.48877" lon="1.3033">
        <ele>124.1</ele>
        <time>2023-10-23T12:27:07Z</time>
      </trkpt>
      <trkpt lat="44.48881" lon="1.30333">
        <ele>123.9</ele>
        <time>2023-10-23T12:27:12Z</time>
      </trkpt>
      <trkpt lat="44.48886" lon="1.30336">
        <ele>124.1</ele>
        <time>2023-10-23T12:27:17Z</time>
      </trkpt>
      <trkpt lat="44.4889" lon="1.3034">
        <ele>126.2</ele>
        <time>2023-10-23T12:27:22Z</time>
      </trkpt>
      <trkpt lat="44.48895" lon="1.30343">
        <ele>126.9</ele>
        <time>2023-10-23T12:27:27Z</time>
      </trkpt>
      <trkpt lat="44.48899" lon="1.30346">
        <ele>126.7</ele>
        <time>2023-10-23T12:27:42Z</time>
      </trkpt>
      <trkpt lat="44.48904" lon="1.30348">
        <ele>126.3</ele>
        <time>2023-10-23T12:27:47Z</time>
      </trkpt>
      <trkpt lat="44.4891" lon="1.30349">
        <ele>127.3</ele>
        <time>2023-10-23T12:27:52Z</time>
      </trkpt>
      <trkpt lat="44.48914" lon="1.30351">
        <ele>129.6</ele>
        <time>2023-10-23T12:27:56Z</time>
      </trkpt>
      <trkpt lat="44.48919" lon="1.30354">
        <ele>130.5</ele>
        <time>2023-10-23T12:28:01Z</time>
      </trkpt>
      <trkpt lat="44.48924" lon="1.30358">
        <ele>132.1</ele>
        <time>2023-10-23T12:28:06Z</time>
      </trkpt>
      <trkpt lat="44.48929" lon="1.3036">
        <ele>132.1</ele>
        <time>2023-10-23T12:28:11Z</time>
      </trkpt>
      <trkpt lat="44.48933" lon="1.30363">
        <ele>131.5</ele>
        <time>2023-10-23T12:28:16Z</time>
      </trkpt>
      <trkpt lat="44.48938" lon="1.30366">
        <ele>134.2</ele>
        <time>2023-10-23T12:28:21Z</time>
      </trkpt>
      <trkpt lat="44.48943" lon="1.30369">
        <ele>137.7</ele>
        <time>2023-10-23T12:28:26Z</time>
      </trkpt>
      <trkpt lat="44.48948" lon="1.30374">
        <ele>139.1</ele>
        <time>2023-10-23T12:28:31Z</time>
      </trkpt>
      <trkpt lat="44.48952" lon="1.30377">
        <ele>137.2</ele>
        <time>2023-10-23T12:28:36Z</time>
      </trkpt>
      <trkpt lat="44.48957" lon="1.30378">
        <ele>132.3</ele>
        <time>2023-10-23T12:28:41Z</time>
      </trkpt>
      <trkpt lat="44.48961" lon="1.30381">
        <ele>130.6</ele>
        <time>2023-10-23T12:28:46Z</time>
      </trkpt>
      <trkpt lat="44.48965" lon="1.30385">
        <ele>129.9</ele>
        <time>2023-10-23T12:28:50Z</time>
      </trkpt>
      <trkpt lat="44.4897" lon="1.30388">
        <ele>129.6</ele>
        <time>2023-10-23T12:28:55Z</time>
      </trkpt>
      <trkpt lat="44.48975" lon="1.3039">
        <ele>129.8</ele>
        <time>2023-10-23T12:29:01Z</time>
      </trkpt>
      <trkpt lat="44.4898" lon="1.30393">
        <ele>128.5</ele>
        <time>2023-10-23T12:29:07Z</time>
      </trkpt>
      <trkpt lat="44.48984" lon="1.30396">
        <ele>126.6</ele>
        <time>2023-10-23T12:29:11Z</time>
      </trkpt>
      <trkpt lat="44.48989" lon="1.304">
        <ele>131.4</ele>
        <time>2023-10-23T12:29:18Z</time>
      </trkpt>
      <trkpt lat="44.48994" lon="1.30402">
        <ele>131.6</ele>
        <time>2023-10-23T12:29:24Z</time>
      </trkpt>
      <trkpt lat="44.48998" lon="1.30404">
        <ele>130.8</ele>
        <time>2023-10-23T12:29:30Z</time>
      </trkpt>
      <trkpt lat="44.49003" lon="1.30408">
        <ele>130.9</ele>
        <time>2023-10-23T12:29:36Z</time>
      </trkpt>
      <trkpt lat="44.49008" lon="1.3041">
        <ele>131.4</ele>
        <time>2023-10-23T12:29:42Z</time>
      </trkpt>
      <trkpt lat="44.49013" lon="1.30413">
        <ele>130.8</ele>
        <time>2023-10-23T12:29:48Z</time>
      </trkpt>
      <trkpt lat="44.49017" lon="1.30418">
        <ele>129.8</ele>
        <time>2023-10-23T12:29:55Z</time>
      </trkpt>
      <trkpt lat="44.49022" lon="1.30419">
        <ele>131.6</ele>
        <time>2023-10-23T12:30:02Z</time>
      </trkpt>
      <trkpt lat="44.49026" lon="1.30422">
        <ele>131.8</ele>
        <time>2023-10-23T12:30:07Z</time>
      </trkpt>
      <trkpt lat="44.49026" lon="1.3043">
        <ele>129.5</ele>
        <time>2023-10-23T12:30:13Z</time>
      </trkpt>
      <trkpt lat="44.4903" lon="1.30434">
        <ele>131.2</ele>
        <time>2023-10-23T12:30:57Z</time>
      </trkpt>
      <trkpt lat="44.49028" lon="1.30441">
        <ele>127.1</ele>
        <time>2023-10-23T12:31:21Z</time>
      </trkpt>
      <trkpt lat="44.49033" lon="1.30436">
        <ele>129.3</ele>
        <time>2023-10-23T12:31:37Z</time>
      </trkpt>
      <trkpt lat="44.49037" lon="1.30436">
        <ele>130.8</ele>
        <time>2023-10-23T12:31:42Z</time>
      </trkpt>
      <trkpt lat="44.49042" lon="1.30438">
        <ele>132.7</ele>
        <time>2023-10-23T12:31:47Z</time>
      </trkpt>
      <trkpt lat="44.49046" lon="1.30441">
        <ele>134.3</ele>
        <time>2023-10-23T12:31:52Z</time>
      </trkpt>
      <trkpt lat="44.49051" lon="1.30441">
        <ele>135.3</ele>
        <time>2023-10-23T12:32:05Z</time>
      </trkpt>
      <trkpt lat="44.49052" lon="1.30448">
        <ele>133.4</ele>
        <time>2023-10-23T12:32:20Z</time>
      </trkpt>
      <trkpt lat="44.49048" lon="1.30442">
        <ele>131.8</ele>
        <time>2023-10-23T12:32:39Z</time>
      </trkpt>
      <trkpt lat="44.49044" lon="1.30439">
        <ele>130.8</ele>
        <time>2023-10-23T12:32:44Z</time>
      </trkpt>
      <trkpt lat="44.4904" lon="1.30435">
        <ele>130.2</ele>
        <time>2023-10-23T12:32:49Z</time>
      </trkpt>
      <trkpt lat="44.49037" lon="1.30431">
        <ele>128.5</ele>
        <time>2023-10-23T12:32:54Z</time>
      </trkpt>
      <trkpt lat="44.49033" lon="1.30427">
        <ele>125.9</ele>
        <time>2023-10-23T12:32:59Z</time>
      </trkpt>
      <trkpt lat="44.49033" lon="1.3042">
        <ele>125.9</ele>
        <time>2023-10-23T12:33:52Z</time>
      </trkpt>
      <trkpt lat="44.49034" lon="1.30413">
        <ele>132.5</ele>
        <time>2023-10-23T12:34:04Z</time>
      </trkpt>
      <trkpt lat="44.49039" lon="1.30414">
        <ele>132.2</ele>
        <time>2023-10-23T12:34:09Z</time>
      </trkpt>
      <trkpt lat="44.49044" lon="1.30414">
        <ele>136.2</ele>
        <time>2023-10-23T12:34:16Z</time>
      </trkpt>
      <trkpt lat="44.49048" lon="1.30416">
        <ele>139.5</ele>
        <time>2023-10-23T12:34:21Z</time>
      </trkpt>
      <trkpt lat="44.49053" lon="1.30418">
        <ele>143.4</ele>
        <time>2023-10-23T12:34:28Z</time>
      </trkpt>
      <trkpt lat="44.49058" lon="1.30418">
        <ele>143.8</ele>
        <time>2023-10-23T12:34:33Z</time>
      </trkpt>
      <trkpt lat="44.49063" lon="1.3042">
        <ele>143.7</ele>
        <time>2023-10-23T12:34:39Z</time>
      </trkpt>
      <trkpt lat="44.49068" lon="1.30421">
        <ele>142.4</ele>
        <time>2023-10-23T12:34:46Z</time>
      </trkpt>
      <trkpt lat="44.49072" lon="1.30423">
        <ele>142.6</ele>
        <time>2023-10-23T12:34:53Z</time>
      </trkpt>
      <trkpt lat="44.49077" lon="1.30426">
        <ele>144.5</ele>
        <time>2023-10-23T12:35:01Z</time>
      </trkpt>
      <trkpt lat="44.49081" lon="1.30427">
        <ele>148.2</ele>
        <time>2023-10-23T12:35:09Z</time>
      </trkpt>
      <trkpt lat="44.49086" lon="1.3043">
        <ele>148.7</ele>
        <time>2023-10-23T12:35:17Z</time>
      </trkpt>
      <trkpt lat="44.49091" lon="1.30433">
        <ele>150.7</ele>
        <time>2023-10-23T12:35:23Z</time>
      </trkpt>
      <trkpt lat="44.49095" lon="1.30435">
        <ele>151.9</ele>
        <time>2023-10-23T12:35:30Z</time>
      </trkpt>
      <trkpt lat="44.491" lon="1.30437">
        <ele>150.5</ele>
        <time>2023-10-23T12:35:36Z</time>
      </trkpt>
      <trkpt lat="44.49104" lon="1.3044">
        <ele>151</ele>
        <time>2023-10-23T12:35:43Z</time>
      </trkpt>
      <trkpt lat="44.49109" lon="1.30442">
        <ele>152.6</ele>
        <time>2023-10-23T12:35:50Z</time>
      </trkpt>
      <trkpt lat="44.49114" lon="1.30444">
        <ele>152.7</ele>
        <time>2023-10-23T12:35:56Z</time>
      </trkpt>
      <trkpt lat="44.49119" lon="1.30445">
        <ele>153.6</ele>
        <time>2023-10-23T12:36:04Z</time>
      </trkpt>
      <trkpt lat="44.49123" lon="1.30448">
        <ele>155</ele>
        <time>2023-10-23T12:36:12Z</time>
      </trkpt>
      <trkpt lat="44.49127" lon="1.30451">
        <ele>153.9</ele>
        <time>2023-10-23T12:36:18Z</time>
      </trkpt>
      <trkpt lat="44.49131" lon="1.30455">
        <ele>153.4</ele>
        <time>2023-10-23T12:36:24Z</time>
      </trkpt>
      <trkpt lat="44.49134" lon="1.3046">
        <ele>153.3</ele>
        <time>2023-10-23T12:36:30Z</time>
      </trkpt>
      <trkpt lat="44.49135" lon="1.30466">
        <ele>152.8</ele>
        <time>2023-10-23T12:36:39Z</time>
      </trkpt>
      <trkpt lat="44.49134" lon="1.30473">
        <ele>153.3</ele>
        <time>2023-10-23T12:36:48Z</time>
      </trkpt>
      <trkpt lat="44.49135" lon="1.30481">
        <ele>153.5</ele>
        <time>2023-10-23T12:36:55Z</time>
      </trkpt>
      <trkpt lat="44.49135" lon="1.30487">
        <ele>153.3</ele>
        <time>2023-10-23T12:37:00Z</time>
      </trkpt>
      <trkpt lat="44.49136" lon="1.30494">
        <ele>152.8</ele>
        <time>2023-10-23T12:37:06Z</time>
      </trkpt>
      <trkpt lat="44.4914" lon="1.30499">
        <ele>153.8</ele>
        <time>2023-10-23T12:37:13Z</time>
      </trkpt>
      <trkpt lat="44.49142" lon="1.30505">
        <ele>154.2</ele>
        <time>2023-10-23T12:37:20Z</time>
      </trkpt>
      <trkpt lat="44.49142" lon="1.30512">
        <ele>154.1</ele>
        <time>2023-10-23T12:37:27Z</time>
      </trkpt>
      <trkpt lat="44.49142" lon="1.30519">
        <ele>153.5</ele>
        <time>2023-10-23T12:37:34Z</time>
      </trkpt>
      <trkpt lat="44.49143" lon="1.30525">
        <ele>155.6</ele>
        <time>2023-10-23T12:37:40Z</time>
      </trkpt>
      <trkpt lat="44.49143" lon="1.30533">
        <ele>157.3</ele>
        <time>2023-10-23T12:37:46Z</time>
      </trkpt>
      <trkpt lat="44.49142" lon="1.30539">
        <ele>156.9</ele>
        <time>2023-10-23T12:37:59Z</time>
      </trkpt>
      <trkpt lat="44.49142" lon="1.30546">
        <ele>155.5</ele>
        <time>2023-10-23T12:38:07Z</time>
      </trkpt>
      <trkpt lat="44.49143" lon="1.30552">
        <ele>155.3</ele>
        <time>2023-10-23T12:38:14Z</time>
      </trkpt>
      <trkpt lat="44.49148" lon="1.30553">
        <ele>155.8</ele>
        <time>2023-10-23T12:39:02Z</time>
      </trkpt>
      <trkpt lat="44.49149" lon="1.30547">
        <ele>157.5</ele>
        <time>2023-10-23T12:39:08Z</time>
      </trkpt>
      <trkpt lat="44.4915" lon="1.3054">
        <ele>156.1</ele>
        <time>2023-10-23T12:39:15Z</time>
      </trkpt>
      <trkpt lat="44.49149" lon="1.30533">
        <ele>156.2</ele>
        <time>2023-10-23T12:47:15Z</time>
      </trkpt>
      <trkpt lat="44.49153" lon="1.30529">
        <ele>155.4</ele>
        <time>2023-10-23T12:47:20Z</time>
      </trkpt>
      <trkpt lat="44.49156" lon="1.30524">
        <ele>147.9</ele>
        <time>2023-10-23T12:47:35Z</time>
      </trkpt>
      <trkpt lat="44.49157" lon="1.30517">
        <ele>149.6</ele>
        <time>2023-10-23T12:47:37Z</time>
      </trkpt>
      <trkpt lat="44.49158" lon="1.30511">
        <ele>156.3</ele>
        <time>2023-10-23T12:47:39Z</time>
      </trkpt>
      <trkpt lat="44.49159" lon="1.30504">
        <ele>159</ele>
        <time>2023-10-23T12:47:44Z</time>
      </trkpt>
      <trkpt lat="44.4916" lon="1.30497">
        <ele>159.5</ele>
        <time>2023-10-23T12:47:47Z</time>
      </trkpt>
      <trkpt lat="44.49162" lon="1.30491">
        <ele>161</ele>
        <time>2023-10-23T12:47:53Z</time>
      </trkpt>
      <trkpt lat="44.49165" lon="1.30486">
        <ele>158.9</ele>
        <time>2023-10-23T12:47:58Z</time>
      </trkpt>
      <trkpt lat="44.49167" lon="1.3048">
        <ele>164.3</ele>
        <time>2023-10-23T12:48:06Z</time>
      </trkpt>
      <trkpt lat="44.49169" lon="1.30473">
        <ele>164.1</ele>
        <time>2023-10-23T12:48:11Z</time>
      </trkpt>
      <trkpt lat="44.49171" lon="1.30467">
        <ele>163.7</ele>
        <time>2023-10-23T12:48:16Z</time>
      </trkpt>
      <trkpt lat="44.49174" lon="1.30461">
        <ele>168.2</ele>
        <time>2023-10-23T12:48:27Z</time>
      </trkpt>
      <trkpt lat="44.49175" lon="1.30455">
        <ele>168.9</ele>
        <time>2023-10-23T12:48:32Z</time>
      </trkpt>
      <trkpt lat="44.49177" lon="1.30449">
        <ele>168.8</ele>
        <time>2023-10-23T12:48:37Z</time>
      </trkpt>
      <trkpt lat="44.49181" lon="1.30443">
        <ele>167.8</ele>
        <time>2023-10-23T12:48:41Z</time>
      </trkpt>
      <trkpt lat="44.49183" lon="1.30437">
        <ele>168.8</ele>
        <time>2023-10-23T12:48:46Z</time>
      </trkpt>
      <trkpt lat="44.49187" lon="1.30432">
        <ele>169.1</ele>
        <time>2023-10-23T12:48:52Z</time>
      </trkpt>
      <trkpt lat="44.49189" lon="1.30426">
        <ele>168.8</ele>
        <time>2023-10-23T12:48:57Z</time>
      </trkpt>
      <trkpt lat="44.49192" lon="1.30421">
        <ele>169.3</ele>
        <time>2023-10-23T12:49:02Z</time>
      </trkpt>
      <trkpt lat="44.49194" lon="1.30415">
        <ele>170.3</ele>
        <time>2023-10-23T12:49:08Z</time>
      </trkpt>
      <trkpt lat="44.49196" lon="1.30409">
        <ele>170.1</ele>
        <time>2023-10-23T12:49:13Z</time>
      </trkpt>
      <trkpt lat="44.49197" lon="1.30402">
        <ele>170.8</ele>
        <time>2023-10-23T12:49:18Z</time>
      </trkpt>
      <trkpt lat="44.49199" lon="1.30396">
        <ele>172.2</ele>
        <time>2023-10-23T12:49:23Z</time>
      </trkpt>
      <trkpt lat="44.492" lon="1.3039">
        <ele>173.6</ele>
        <time>2023-10-23T12:49:28Z</time>
      </trkpt>
      <trkpt lat="44.49201" lon="1.30383">
        <ele>173.8</ele>
        <time>2023-10-23T12:49:33Z</time>
      </trkpt>
      <trkpt lat="44.49203" lon="1.30377">
        <ele>176.9</ele>
        <time>2023-10-23T12:49:39Z</time>
      </trkpt>
      <trkpt lat="44.49205" lon="1.3037">
        <ele>177.6</ele>
        <time>2023-10-23T12:49:45Z</time>
      </trkpt>
      <trkpt lat="44.49207" lon="1.30363">
        <ele>178.4</ele>
        <time>2023-10-23T12:49:51Z</time>
      </trkpt>
      <trkpt lat="44.49211" lon="1.30358">
        <ele>176.8</ele>
        <time>2023-10-23T12:49:56Z</time>
      </trkpt>
      <trkpt lat="44.49212" lon="1.30352">
        <ele>177.2</ele>
        <time>2023-10-23T12:50:01Z</time>
      </trkpt>
      <trkpt lat="44.49214" lon="1.30346">
        <ele>178.4</ele>
        <time>2023-10-23T12:50:06Z</time>
      </trkpt>
      <trkpt lat="44.49216" lon="1.30339">
        <ele>176.6</ele>
        <time>2023-10-23T12:50:11Z</time>
      </trkpt>
      <trkpt lat="44.4922" lon="1.30334">
        <ele>174.7</ele>
        <time>2023-10-23T12:50:16Z</time>
      </trkpt>
      <trkpt lat="44.49222" lon="1.30328">
        <ele>176.2</ele>
        <time>2023-10-23T12:50:21Z</time>
      </trkpt>
      <trkpt lat="44.49224" lon="1.30322">
        <ele>178.7</ele>
        <time>2023-10-23T12:50:27Z</time>
      </trkpt>
      <trkpt lat="44.49226" lon="1.30316">
        <ele>181.4</ele>
        <time>2023-10-23T12:50:33Z</time>
      </trkpt>
      <trkpt lat="44.49228" lon="1.3031">
        <ele>183</ele>
        <time>2023-10-23T12:50:38Z</time>
      </trkpt>
      <trkpt lat="44.49229" lon="1.30303">
        <ele>184.1</ele>
        <time>2023-10-23T12:50:44Z</time>
      </trkpt>
      <trkpt lat="44.49231" lon="1.30297">
        <ele>186.6</ele>
        <time>2023-10-23T12:50:50Z</time>
      </trkpt>
      <trkpt lat="44.49232" lon="1.3029">
        <ele>186.9</ele>
        <time>2023-10-23T12:50:55Z</time>
      </trkpt>
      <trkpt lat="44.49235" lon="1.30284">
        <ele>188.2</ele>
        <time>2023-10-23T12:51:01Z</time>
      </trkpt>
      <trkpt lat="44.49237" lon="1.30278">
        <ele>190.9</ele>
        <time>2023-10-23T12:51:07Z</time>
      </trkpt>
      <trkpt lat="44.4924" lon="1.30272">
        <ele>192.7</ele>
        <time>2023-10-23T12:51:13Z</time>
      </trkpt>
      <trkpt lat="44.49243" lon="1.30266">
        <ele>193.9</ele>
        <time>2023-10-23T12:51:18Z</time>
      </trkpt>
      <trkpt lat="44.49246" lon="1.3026">
        <ele>193.3</ele>
        <time>2023-10-23T12:51:23Z</time>
      </trkpt>
      <trkpt lat="44.49245" lon="1.30254">
        <ele>185.9</ele>
        <time>2023-10-23T12:51:29Z</time>
      </trkpt>
      <trkpt lat="44.4925" lon="1.30254">
        <ele>189</ele>
        <time>2023-10-23T12:52:21Z</time>
      </trkpt>
      <trkpt lat="44.49255" lon="1.30252">
        <ele>191.6</ele>
        <time>2023-10-23T12:52:24Z</time>
      </trkpt>
      <trkpt lat="44.49259" lon="1.30249">
        <ele>196.1</ele>
        <time>2023-10-23T12:52:27Z</time>
      </trkpt>
      <trkpt lat="44.49264" lon="1.30247">
        <ele>199.3</ele>
        <time>2023-10-23T12:52:30Z</time>
      </trkpt>
      <trkpt lat="44.49268" lon="1.30245">
        <ele>200.6</ele>
        <time>2023-10-23T12:52:33Z</time>
      </trkpt>
      <trkpt lat="44.49272" lon="1.30242">
        <ele>202</ele>
        <time>2023-10-23T12:52:36Z</time>
      </trkpt>
      <trkpt lat="44.49278" lon="1.3024">
        <ele>203.4</ele>
        <time>2023-10-23T12:52:39Z</time>
      </trkpt>
      <trkpt lat="44.49283" lon="1.30237">
        <ele>204.7</ele>
        <time>2023-10-23T12:52:42Z</time>
      </trkpt>
      <trkpt lat="44.49287" lon="1.30237">
        <ele>205</ele>
        <time>2023-10-23T12:52:45Z</time>
      </trkpt>
      <trkpt lat="44.49293" lon="1.30236">
        <ele>204.1</ele>
        <time>2023-10-23T12:52:48Z</time>
      </trkpt>
      <trkpt lat="44.49298" lon="1.30233">
        <ele>201.7</ele>
        <time>2023-10-23T12:52:52Z</time>
      </trkpt>
      <trkpt lat="44.49303" lon="1.3023">
        <ele>198.4</ele>
        <time>2023-10-23T12:52:56Z</time>
      </trkpt>
      <trkpt lat="44.49308" lon="1.30228">
        <ele>198.1</ele>
        <time>2023-10-23T12:52:59Z</time>
      </trkpt>
      <trkpt lat="44.49313" lon="1.30226">
        <ele>196.2</ele>
        <time>2023-10-23T12:53:02Z</time>
      </trkpt>
      <trkpt lat="44.49317" lon="1.30224">
        <ele>193.1</ele>
        <time>2023-10-23T12:53:05Z</time>
      </trkpt>
      <trkpt lat="44.49322" lon="1.30222">
        <ele>192.3</ele>
        <time>2023-10-23T12:53:08Z</time>
      </trkpt>
      <trkpt lat="44.49327" lon="1.3022">
        <ele>191.5</ele>
        <time>2023-10-23T12:53:11Z</time>
      </trkpt>
      <trkpt lat="44.49332" lon="1.30218">
        <ele>188.3</ele>
        <time>2023-10-23T12:53:15Z</time>
      </trkpt>
      <trkpt lat="44.49337" lon="1.30215">
        <ele>187.2</ele>
        <time>2023-10-23T12:53:18Z</time>
      </trkpt>
      <trkpt lat="44.49341" lon="1.30213">
        <ele>185.4</ele>
        <time>2023-10-23T12:53:21Z</time>
      </trkpt>
      <trkpt lat="44.49345" lon="1.30209">
        <ele>183.8</ele>
        <time>2023-10-23T12:53:26Z</time>
      </trkpt>
      <trkpt lat="44.4935" lon="1.30206">
        <ele>182.4</ele>
        <time>2023-10-23T12:53:30Z</time>
      </trkpt>
      <trkpt lat="44.49355" lon="1.30205">
        <ele>181.2</ele>
        <time>2023-10-23T12:53:35Z</time>
      </trkpt>
      <trkpt lat="44.4936" lon="1.30203">
        <ele>179.3</ele>
        <time>2023-10-23T12:53:40Z</time>
      </trkpt>
      <trkpt lat="44.49364" lon="1.30201">
        <ele>179.1</ele>
        <time>2023-10-23T12:53:46Z</time>
      </trkpt>
      <trkpt lat="44.4937" lon="1.302">
        <ele>177.8</ele>
        <time>2023-10-23T12:53:53Z</time>
      </trkpt>
      <trkpt lat="44.49374" lon="1.30201">
        <ele>177.1</ele>
        <time>2023-10-23T12:53:57Z</time>
      </trkpt>
      <trkpt lat="44.49379" lon="1.302">
        <ele>176</ele>
        <time>2023-10-23T12:54:01Z</time>
      </trkpt>
      <trkpt lat="44.49385" lon="1.302">
        <ele>176</ele>
        <time>2023-10-23T12:54:06Z</time>
      </trkpt>
      <trkpt lat="44.49389" lon="1.30197">
        <ele>175.5</ele>
        <time>2023-10-23T12:54:11Z</time>
      </trkpt>
      <trkpt lat="44.49393" lon="1.30194">
        <ele>174.5</ele>
        <time>2023-10-23T12:54:16Z</time>
      </trkpt>
      <trkpt lat="44.49397" lon="1.3019">
        <ele>173.1</ele>
        <time>2023-10-23T12:54:22Z</time>
      </trkpt>
      <trkpt lat="44.49403" lon="1.30188">
        <ele>174.6</ele>
        <time>2023-10-23T12:54:29Z</time>
      </trkpt>
      <trkpt lat="44.49408" lon="1.30187">
        <ele>174.1</ele>
        <time>2023-10-23T12:54:33Z</time>
      </trkpt>
      <trkpt lat="44.49413" lon="1.30186">
        <ele>172.8</ele>
        <time>2023-10-23T12:54:36Z</time>
      </trkpt>
      <trkpt lat="44.49417" lon="1.30185">
        <ele>170.7</ele>
        <time>2023-10-23T12:54:39Z</time>
      </trkpt>
      <trkpt lat="44.49422" lon="1.30182">
        <ele>168.9</ele>
        <time>2023-10-23T12:54:44Z</time>
      </trkpt>
      <trkpt lat="44.49427" lon="1.30178">
        <ele>169.8</ele>
        <time>2023-10-23T12:54:49Z</time>
      </trkpt>
      <trkpt lat="44.4943" lon="1.30173">
        <ele>170.9</ele>
        <time>2023-10-23T12:54:53Z</time>
      </trkpt>
      <trkpt lat="44.49431" lon="1.30167">
        <ele>170</ele>
        <time>2023-10-23T12:54:56Z</time>
      </trkpt>
      <trkpt lat="44.49434" lon="1.3016">
        <ele>173.2</ele>
        <time>2023-10-23T12:55:03Z</time>
      </trkpt>
      <trkpt lat="44.49434" lon="1.30153">
        <ele>175.5</ele>
        <time>2023-10-23T12:55:08Z</time>
      </trkpt>
      <trkpt lat="44.49433" lon="1.30146">
        <ele>180.3</ele>
        <time>2023-10-23T12:55:13Z</time>
      </trkpt>
      <trkpt lat="44.49432" lon="1.30139">
        <ele>181.7</ele>
        <time>2023-10-23T12:55:18Z</time>
      </trkpt>
      <trkpt lat="44.49432" lon="1.30131">
        <ele>183.7</ele>
        <time>2023-10-23T12:55:23Z</time>
      </trkpt>
      <trkpt lat="44.4943" lon="1.30124">
        <ele>186.5</ele>
        <time>2023-10-23T12:55:28Z</time>
      </trkpt>
      <trkpt lat="44.49427" lon="1.30118">
        <ele>186.4</ele>
        <time>2023-10-23T12:55:33Z</time>
      </trkpt>
      <trkpt lat="44.49425" lon="1.30111">
        <ele>188.2</ele>
        <time>2023-10-23T12:55:38Z</time>
      </trkpt>
      <trkpt lat="44.49422" lon="1.30106">
        <ele>189.8</ele>
        <time>2023-10-23T12:55:42Z</time>
      </trkpt>
      <trkpt lat="44.4942" lon="1.301">
        <ele>192.4</ele>
        <time>2023-10-23T12:55:46Z</time>
      </trkpt>
      <trkpt lat="44.49417" lon="1.30094">
        <ele>196.5</ele>
        <time>2023-10-23T12:55:51Z</time>
      </trkpt>
      <trkpt lat="44.49415" lon="1.30088">
        <ele>200.3</ele>
        <time>2023-10-23T12:55:55Z</time>
      </trkpt>
      <trkpt lat="44.49411" lon="1.30084">
        <ele>201.9</ele>
        <time>2023-10-23T12:55:59Z</time>
      </trkpt>
      <trkpt lat="44.49409" lon="1.30077">
        <ele>202.3</ele>
        <time>2023-10-23T12:56:03Z</time>
      </trkpt>
      <trkpt lat="44.49407" lon="1.30071">
        <ele>203.7</ele>
        <time>2023-10-23T12:56:08Z</time>
      </trkpt>
      <trkpt lat="44.49405" lon="1.30064">
        <ele>203.8</ele>
        <time>2023-10-23T12:56:12Z</time>
      </trkpt>
      <trkpt lat="44.49403" lon="1.30058">
        <ele>204.3</ele>
        <time>2023-10-23T12:56:17Z</time>
      </trkpt>
      <trkpt lat="44.49401" lon="1.30051">
        <ele>203.8</ele>
        <time>2023-10-23T12:56:22Z</time>
      </trkpt>
      <trkpt lat="44.49398" lon="1.30046">
        <ele>203.2</ele>
        <time>2023-10-23T12:56:26Z</time>
      </trkpt>
      <trkpt lat="44.49391" lon="1.30042">
        <ele>201.9</ele>
        <time>2023-10-23T12:56:30Z</time>
      </trkpt>
      <trkpt lat="44.49387" lon="1.30039">
        <ele>200.3</ele>
        <time>2023-10-23T12:56:33Z</time>
      </trkpt>
      <trkpt lat="44.49383" lon="1.30034">
        <ele>198.3</ele>
        <time>2023-10-23T12:56:36Z</time>
      </trkpt>
      <trkpt lat="44.49379" lon="1.30032">
        <ele>197.1</ele>
        <time>2023-10-23T12:56:38Z</time>
      </trkpt>
      <trkpt lat="44.49374" lon="1.30028">
        <ele>195.9</ele>
        <time>2023-10-23T12:56:41Z</time>
      </trkpt>
      <trkpt lat="44.49369" lon="1.30024">
        <ele>195.1</ele>
        <time>2023-10-23T12:56:43Z</time>
      </trkpt>
      <trkpt lat="44.49364" lon="1.30019">
        <ele>194.3</ele>
        <time>2023-10-23T12:56:45Z</time>
      </trkpt>
      <trkpt lat="44.4936" lon="1.30014">
        <ele>193.5</ele>
        <time>2023-10-23T12:56:48Z</time>
      </trkpt>
      <trkpt lat="44.49356" lon="1.30008">
        <ele>194</ele>
        <time>2023-10-23T12:56:51Z</time>
      </trkpt>
      <trkpt lat="44.49352" lon="1.30003">
        <ele>196.3</ele>
        <time>2023-10-23T12:56:55Z</time>
      </trkpt>
      <trkpt lat="44.4935" lon="1.29997">
        <ele>199.5</ele>
        <time>2023-10-23T12:57:00Z</time>
      </trkpt>
      <trkpt lat="44.49349" lon="1.2999">
        <ele>203</ele>
        <time>2023-10-23T12:57:05Z</time>
      </trkpt>
      <trkpt lat="44.49348" lon="1.29983">
        <ele>203.8</ele>
        <time>2023-10-23T12:57:10Z</time>
      </trkpt>
      <trkpt lat="44.49348" lon="1.29976">
        <ele>204.2</ele>
        <time>2023-10-23T12:57:15Z</time>
      </trkpt>
      <trkpt lat="44.49349" lon="1.29969">
        <ele>204.4</ele>
        <time>2023-10-23T12:57:21Z</time>
      </trkpt>
      <trkpt lat="44.4935" lon="1.29962">
        <ele>204.6</ele>
        <time>2023-10-23T12:57:26Z</time>
      </trkpt>
      <trkpt lat="44.49351" lon="1.29956">
        <ele>207</ele>
        <time>2023-10-23T12:57:31Z</time>
      </trkpt>
      <trkpt lat="44.49353" lon="1.29949">
        <ele>210.6</ele>
        <time>2023-10-23T12:57:37Z</time>
      </trkpt>
      <trkpt lat="44.49355" lon="1.29941">
        <ele>210.2</ele>
        <time>2023-10-23T12:57:42Z</time>
      </trkpt>
      <trkpt lat="44.49359" lon="1.29938">
        <ele>213.7</ele>
        <time>2023-10-23T12:57:48Z</time>
      </trkpt>
      <trkpt lat="44.49362" lon="1.29932">
        <ele>215.2</ele>
        <time>2023-10-23T12:57:53Z</time>
      </trkpt>
      <trkpt lat="44.49364" lon="1.29926">
        <ele>219.6</ele>
        <time>2023-10-23T12:57:59Z</time>
      </trkpt>
      <trkpt lat="44.49367" lon="1.2992">
        <ele>219.3</ele>
        <time>2023-10-23T12:58:04Z</time>
      </trkpt>
      <trkpt lat="44.4937" lon="1.29914">
        <ele>221.7</ele>
        <time>2023-10-23T12:58:10Z</time>
      </trkpt>
      <trkpt lat="44.49374" lon="1.2991">
        <ele>222.8</ele>
        <time>2023-10-23T12:58:16Z</time>
      </trkpt>
      <trkpt lat="44.49376" lon="1.29904">
        <ele>222.5</ele>
        <time>2023-10-23T12:58:21Z</time>
      </trkpt>
      <trkpt lat="44.49379" lon="1.29899">
        <ele>224.5</ele>
        <time>2023-10-23T12:58:27Z</time>
      </trkpt>
      <trkpt lat="44.49382" lon="1.29895">
        <ele>224.9</ele>
        <time>2023-10-23T12:58:32Z</time>
      </trkpt>
      <trkpt lat="44.49386" lon="1.2989">
        <ele>224.7</ele>
        <time>2023-10-23T12:58:37Z</time>
      </trkpt>
      <trkpt lat="44.4939" lon="1.29884">
        <ele>225.3</ele>
        <time>2023-10-23T12:58:42Z</time>
      </trkpt>
      <trkpt lat="44.49393" lon="1.29878">
        <ele>225.6</ele>
        <time>2023-10-23T12:58:47Z</time>
      </trkpt>
      <trkpt lat="44.49395" lon="1.29872">
        <ele>227.5</ele>
        <time>2023-10-23T12:58:52Z</time>
      </trkpt>
      <trkpt lat="44.49397" lon="1.29866">
        <ele>229.1</ele>
        <time>2023-10-23T12:58:57Z</time>
      </trkpt>
      <trkpt lat="44.494" lon="1.2986">
        <ele>229.6</ele>
        <time>2023-10-23T12:59:02Z</time>
      </trkpt>
      <trkpt lat="44.49403" lon="1.29854">
        <ele>231.4</ele>
        <time>2023-10-23T12:59:07Z</time>
      </trkpt>
      <trkpt lat="44.49406" lon="1.29848">
        <ele>234.3</ele>
        <time>2023-10-23T12:59:12Z</time>
      </trkpt>
      <trkpt lat="44.49409" lon="1.29843">
        <ele>231.8</ele>
        <time>2023-10-23T12:59:16Z</time>
      </trkpt>
      <trkpt lat="44.49412" lon="1.29838">
        <ele>231</ele>
        <time>2023-10-23T12:59:20Z</time>
      </trkpt>
      <trkpt lat="44.49415" lon="1.29831">
        <ele>230.6</ele>
        <time>2023-10-23T12:59:25Z</time>
      </trkpt>
      <trkpt lat="44.49418" lon="1.29826">
        <ele>233.9</ele>
        <time>2023-10-23T12:59:30Z</time>
      </trkpt>
      <trkpt lat="44.4942" lon="1.2982">
        <ele>232.9</ele>
        <time>2023-10-23T12:59:35Z</time>
      </trkpt>
      <trkpt lat="44.49422" lon="1.29813">
        <ele>234.1</ele>
        <time>2023-10-23T12:59:40Z</time>
      </trkpt>
      <trkpt lat="44.49423" lon="1.29807">
        <ele>236.8</ele>
        <time>2023-10-23T12:59:45Z</time>
      </trkpt>
      <trkpt lat="44.49425" lon="1.298">
        <ele>239.2</ele>
        <time>2023-10-23T12:59:50Z</time>
      </trkpt>
      <trkpt lat="44.49427" lon="1.29794">
        <ele>239.4</ele>
        <time>2023-10-23T12:59:55Z</time>
      </trkpt>
      <trkpt lat="44.4943" lon="1.29787">
        <ele>242</ele>
        <time>2023-10-23T13:00:01Z</time>
      </trkpt>
      <trkpt lat="44.49432" lon="1.29781">
        <ele>240.5</ele>
        <time>2023-10-23T13:00:06Z</time>
      </trkpt>
      <trkpt lat="44.49435" lon="1.29776">
        <ele>239.6</ele>
        <time>2023-10-23T13:00:11Z</time>
      </trkpt>
      <trkpt lat="44.49436" lon="1.2977">
        <ele>243.8</ele>
        <time>2023-10-23T13:00:16Z</time>
      </trkpt>
      <trkpt lat="44.49439" lon="1.29763">
        <ele>245.8</ele>
        <time>2023-10-23T13:00:22Z</time>
      </trkpt>
      <trkpt lat="44.4944" lon="1.29757">
        <ele>245.8</ele>
        <time>2023-10-23T13:00:27Z</time>
      </trkpt>
      <trkpt lat="44.49443" lon="1.29752">
        <ele>245.4</ele>
        <time>2023-10-23T13:00:32Z</time>
      </trkpt>
      <trkpt lat="44.49446" lon="1.29747">
        <ele>237.8</ele>
        <time>2023-10-23T13:00:57Z</time>
      </trkpt>
      <trkpt lat="44.49447" lon="1.2974">
        <ele>236.7</ele>
        <time>2023-10-23T13:01:44Z</time>
      </trkpt>
      <trkpt lat="44.49446" lon="1.29748">
        <ele>233.7</ele>
        <time>2023-10-23T13:02:19Z</time>
      </trkpt>
      <trkpt lat="44.49446" lon="1.2974">
        <ele>239.3</ele>
        <time>2023-10-23T13:02:31Z</time>
      </trkpt>
      <trkpt lat="44.4945" lon="1.29735">
        <ele>239.9</ele>
        <time>2023-10-23T13:02:35Z</time>
      </trkpt>
      <trkpt lat="44.49451" lon="1.29729">
        <ele>239.6</ele>
        <time>2023-10-23T13:02:42Z</time>
      </trkpt>
      <trkpt lat="44.49451" lon="1.29722">
        <ele>239.3</ele>
        <time>2023-10-23T13:02:48Z</time>
      </trkpt>
      <trkpt lat="44.49454" lon="1.29717">
        <ele>239.8</ele>
        <time>2023-10-23T13:03:45Z</time>
      </trkpt>
      <trkpt lat="44.49452" lon="1.29711">
        <ele>239.7</ele>
        <time>2023-10-23T13:04:43Z</time>
      </trkpt>
      <trkpt lat="44.49457" lon="1.29712">
        <ele>239</ele>
        <time>2023-10-23T13:05:23Z</time>
      </trkpt>
      <trkpt lat="44.49459" lon="1.29706">
        <ele>240.6</ele>
        <time>2023-10-23T13:05:33Z</time>
      </trkpt>
      <trkpt lat="44.49458" lon="1.29698">
        <ele>243</ele>
        <time>2023-10-23T13:05:39Z</time>
      </trkpt>
      <trkpt lat="44.49458" lon="1.29692">
        <ele>247.1</ele>
        <time>2023-10-23T13:05:46Z</time>
      </trkpt>
      <trkpt lat="44.4946" lon="1.29686">
        <ele>247.5</ele>
        <time>2023-10-23T13:05:53Z</time>
      </trkpt>
      <trkpt lat="44.4946" lon="1.29679">
        <ele>248.1</ele>
        <time>2023-10-23T13:06:01Z</time>
      </trkpt>
      <trkpt lat="44.49459" lon="1.29672">
        <ele>248.3</ele>
        <time>2023-10-23T13:06:11Z</time>
      </trkpt>
      <trkpt lat="44.4946" lon="1.29666">
        <ele>246.9</ele>
        <time>2023-10-23T13:06:19Z</time>
      </trkpt>
      <trkpt lat="44.4946" lon="1.29659">
        <ele>247.3</ele>
        <time>2023-10-23T13:06:26Z</time>
      </trkpt>
      <trkpt lat="44.49461" lon="1.29652">
        <ele>247.6</ele>
        <time>2023-10-23T13:06:32Z</time>
      </trkpt>
      <trkpt lat="44.49461" lon="1.29645">
        <ele>247.8</ele>
        <time>2023-10-23T13:06:39Z</time>
      </trkpt>
      <trkpt lat="44.49458" lon="1.29639">
        <ele>247.2</ele>
        <time>2023-10-23T13:06:52Z</time>
      </trkpt>
      <trkpt lat="44.49462" lon="1.29633">
        <ele>246.2</ele>
        <time>2023-10-23T13:07:25Z</time>
      </trkpt>
      <trkpt lat="44.49467" lon="1.29632">
        <ele>248.1</ele>
        <time>2023-10-23T13:07:30Z</time>
      </trkpt>
      <trkpt lat="44.49473" lon="1.2963">
        <ele>246.1</ele>
        <time>2023-10-23T13:07:33Z</time>
      </trkpt>
      <trkpt lat="44.49477" lon="1.29632">
        <ele>245</ele>
        <time>2023-10-23T13:07:36Z</time>
      </trkpt>
      <trkpt lat="44.49481" lon="1.29637">
        <ele>243.5</ele>
        <time>2023-10-23T13:07:40Z</time>
      </trkpt>
      <trkpt lat="44.49485" lon="1.29636">
        <ele>247.6</ele>
        <time>2023-10-23T13:07:51Z</time>
      </trkpt>
      <trkpt lat="44.49489" lon="1.29632">
        <ele>248.5</ele>
        <time>2023-10-23T13:07:58Z</time>
      </trkpt>
      <trkpt lat="44.49487" lon="1.29626">
        <ele>251.1</ele>
        <time>2023-10-23T13:08:04Z</time>
      </trkpt>
      <trkpt lat="44.49484" lon="1.2962">
        <ele>252.9</ele>
        <time>2023-10-23T13:08:10Z</time>
      </trkpt>
      <trkpt lat="44.49482" lon="1.29614">
        <ele>254</ele>
        <time>2023-10-23T13:08:19Z</time>
      </trkpt>
      <trkpt lat="44.4948" lon="1.29608">
        <ele>256.3</ele>
        <time>2023-10-23T13:08:28Z</time>
      </trkpt>
      <trkpt lat="44.49479" lon="1.29601">
        <ele>259.2</ele>
        <time>2023-10-23T13:08:35Z</time>
      </trkpt>
      <trkpt lat="44.49477" lon="1.29594">
        <ele>260.9</ele>
        <time>2023-10-23T13:08:42Z</time>
      </trkpt>
      <trkpt lat="44.49477" lon="1.29588">
        <ele>261.8</ele>
        <time>2023-10-23T13:08:48Z</time>
      </trkpt>
      <trkpt lat="44.49476" lon="1.29582">
        <ele>261.7</ele>
        <time>2023-10-23T13:08:53Z</time>
      </trkpt>
      <trkpt lat="44.49475" lon="1.29576">
        <ele>262.7</ele>
        <time>2023-10-23T13:08:58Z</time>
      </trkpt>
      <trkpt lat="44.49474" lon="1.29569">
        <ele>265</ele>
        <time>2023-10-23T13:09:04Z</time>
      </trkpt>
      <trkpt lat="44.49474" lon="1.29562">
        <ele>265.1</ele>
        <time>2023-10-23T13:09:10Z</time>
      </trkpt>
      <trkpt lat="44.49474" lon="1.29555">
        <ele>264.8</ele>
        <time>2023-10-23T13:09:15Z</time>
      </trkpt>
      <trkpt lat="44.49473" lon="1.29549">
        <ele>264.3</ele>
        <time>2023-10-23T13:09:21Z</time>
      </trkpt>
      <trkpt lat="44.49472" lon="1.29541">
        <ele>263.5</ele>
        <time>2023-10-23T13:09:27Z</time>
      </trkpt>
      <trkpt lat="44.49471" lon="1.29534">
        <ele>266.9</ele>
        <time>2023-10-23T13:09:33Z</time>
      </trkpt>
      <trkpt lat="44.4947" lon="1.29527">
        <ele>266.7</ele>
        <time>2023-10-23T13:09:39Z</time>
      </trkpt>
      <trkpt lat="44.4947" lon="1.2952">
        <ele>266.1</ele>
        <time>2023-10-23T13:09:43Z</time>
      </trkpt>
      <trkpt lat="44.49469" lon="1.29513">
        <ele>266.9</ele>
        <time>2023-10-23T13:09:48Z</time>
      </trkpt>
      <trkpt lat="44.49468" lon="1.29506">
        <ele>268.7</ele>
        <time>2023-10-23T13:09:53Z</time>
      </trkpt>
      <trkpt lat="44.49468" lon="1.29498">
        <ele>269.7</ele>
        <time>2023-10-23T13:09:57Z</time>
      </trkpt>
      <trkpt lat="44.49468" lon="1.29491">
        <ele>267.4</ele>
        <time>2023-10-23T13:10:02Z</time>
      </trkpt>
      <trkpt lat="44.49468" lon="1.29484">
        <ele>266.3</ele>
        <time>2023-10-23T13:10:07Z</time>
      </trkpt>
      <trkpt lat="44.49468" lon="1.29478">
        <ele>265.5</ele>
        <time>2023-10-23T13:10:11Z</time>
      </trkpt>
      <trkpt lat="44.49468" lon="1.29471">
        <ele>264.6</ele>
        <time>2023-10-23T13:10:15Z</time>
      </trkpt>
      <trkpt lat="44.49468" lon="1.29463">
        <ele>264.6</ele>
        <time>2023-10-23T13:10:20Z</time>
      </trkpt>
      <trkpt lat="44.49468" lon="1.29456">
        <ele>264.4</ele>
        <time>2023-10-23T13:10:25Z</time>
      </trkpt>
      <trkpt lat="44.49467" lon="1.29448">
        <ele>263.8</ele>
        <time>2023-10-23T13:10:30Z</time>
      </trkpt>
      <trkpt lat="44.49466" lon="1.29441">
        <ele>264.6</ele>
        <time>2023-10-23T13:10:35Z</time>
      </trkpt>
      <trkpt lat="44.49466" lon="1.29433">
        <ele>264.5</ele>
        <time>2023-10-23T13:10:40Z</time>
      </trkpt>
      <trkpt lat="44.49466" lon="1.29425">
        <ele>265</ele>
        <time>2023-10-23T13:10:45Z</time>
      </trkpt>
      <trkpt lat="44.49466" lon="1.29418">
        <ele>266.2</ele>
        <time>2023-10-23T13:10:50Z</time>
      </trkpt>
      <trkpt lat="44.49465" lon="1.29411">
        <ele>268.6</ele>
        <time>2023-10-23T13:10:54Z</time>
      </trkpt>
      <trkpt lat="44.49464" lon="1.29405">
        <ele>268.8</ele>
        <time>2023-10-23T13:10:58Z</time>
      </trkpt>
      <trkpt lat="44.49464" lon="1.29397">
        <ele>267</ele>
        <time>2023-10-23T13:11:03Z</time>
      </trkpt>
      <trkpt lat="44.49464" lon="1.29389">
        <ele>268</ele>
        <time>2023-10-23T13:11:08Z</time>
      </trkpt>
      <trkpt lat="44.49464" lon="1.29382">
        <ele>268.3</ele>
        <time>2023-10-23T13:11:13Z</time>
      </trkpt>
      <trkpt lat="44.49462" lon="1.29374">
        <ele>268.2</ele>
        <time>2023-10-23T13:11:18Z</time>
      </trkpt>
      <trkpt lat="44.49461" lon="1.29368">
        <ele>267.7</ele>
        <time>2023-10-23T13:11:22Z</time>
      </trkpt>
      <trkpt lat="44.49462" lon="1.29361">
        <ele>270.9</ele>
        <time>2023-10-23T13:11:26Z</time>
      </trkpt>
      <trkpt lat="44.49462" lon="1.29354">
        <ele>270.4</ele>
        <time>2023-10-23T13:11:30Z</time>
      </trkpt>
      <trkpt lat="44.49462" lon="1.29348">
        <ele>269</ele>
        <time>2023-10-23T13:11:34Z</time>
      </trkpt>
      <trkpt lat="44.49462" lon="1.2934">
        <ele>269.7</ele>
        <time>2023-10-23T13:11:39Z</time>
      </trkpt>
      <trkpt lat="44.49462" lon="1.29333">
        <ele>268.3</ele>
        <time>2023-10-23T13:11:44Z</time>
      </trkpt>
      <trkpt lat="44.49462" lon="1.29326">
        <ele>266.7</ele>
        <time>2023-10-23T13:11:48Z</time>
      </trkpt>
      <trkpt lat="44.49463" lon="1.2932">
        <ele>265.5</ele>
        <time>2023-10-23T13:11:52Z</time>
      </trkpt>
      <trkpt lat="44.49464" lon="1.29313">
        <ele>265.6</ele>
        <time>2023-10-23T13:11:56Z</time>
      </trkpt>
      <trkpt lat="44.49463" lon="1.29307">
        <ele>267.3</ele>
        <time>2023-10-23T13:12:00Z</time>
      </trkpt>
      <trkpt lat="44.49463" lon="1.29299">
        <ele>267.5</ele>
        <time>2023-10-23T13:12:05Z</time>
      </trkpt>
      <trkpt lat="44.49463" lon="1.29292">
        <ele>267.4</ele>
        <time>2023-10-23T13:12:09Z</time>
      </trkpt>
      <trkpt lat="44.49463" lon="1.29285">
        <ele>267.6</ele>
        <time>2023-10-23T13:12:14Z</time>
      </trkpt>
      <trkpt lat="44.49464" lon="1.29278">
        <ele>265.1</ele>
        <time>2023-10-23T13:12:18Z</time>
      </trkpt>
      <trkpt lat="44.49464" lon="1.29271">
        <ele>264.9</ele>
        <time>2023-10-23T13:12:23Z</time>
      </trkpt>
      <trkpt lat="44.49463" lon="1.29263">
        <ele>264.9</ele>
        <time>2023-10-23T13:12:28Z</time>
      </trkpt>
      <trkpt lat="44.49464" lon="1.29256">
        <ele>263.2</ele>
        <time>2023-10-23T13:12:32Z</time>
      </trkpt>
      <trkpt lat="44.49463" lon="1.2925">
        <ele>263.2</ele>
        <time>2023-10-23T13:12:36Z</time>
      </trkpt>
      <trkpt lat="44.49463" lon="1.29243">
        <ele>262.3</ele>
        <time>2023-10-23T13:12:40Z</time>
      </trkpt>
      <trkpt lat="44.49462" lon="1.29237">
        <ele>264</ele>
        <time>2023-10-23T13:12:45Z</time>
      </trkpt>
      <trkpt lat="44.49458" lon="1.29236">
        <ele>257.9</ele>
        <time>2023-10-23T13:14:12Z</time>
      </trkpt>
      <trkpt lat="44.49453" lon="1.29237">
        <ele>254.4</ele>
        <time>2023-10-23T13:14:20Z</time>
      </trkpt>
      <trkpt lat="44.49449" lon="1.29234">
        <ele>251.7</ele>
        <time>2023-10-23T13:14:29Z</time>
      </trkpt>
      <trkpt lat="44.49444" lon="1.29234">
        <ele>251.2</ele>
        <time>2023-10-23T13:14:39Z</time>
      </trkpt>
      <trkpt lat="44.49439" lon="1.29234">
        <ele>249.8</ele>
        <time>2023-10-23T13:14:45Z</time>
      </trkpt>
      <trkpt lat="44.49435" lon="1.29236">
        <ele>242.5</ele>
        <time>2023-10-23T13:14:52Z</time>
      </trkpt>
      <trkpt lat="44.49431" lon="1.2924">
        <ele>237.1</ele>
        <time>2023-10-23T13:14:58Z</time>
      </trkpt>
      <trkpt lat="44.49427" lon="1.29242">
        <ele>233.1</ele>
        <time>2023-10-23T13:15:05Z</time>
      </trkpt>
      <trkpt lat="44.49424" lon="1.29236">
        <ele>231.1</ele>
        <time>2023-10-23T13:15:29Z</time>
      </trkpt>
      <trkpt lat="44.49423" lon="1.2923">
        <ele>229.9</ele>
        <time>2023-10-23T13:15:39Z</time>
      </trkpt>
      <trkpt lat="44.49419" lon="1.29226">
        <ele>229.7</ele>
        <time>2023-10-23T13:15:47Z</time>
      </trkpt>
      <trkpt lat="44.49415" lon="1.29221">
        <ele>229.1</ele>
        <time>2023-10-23T13:15:54Z</time>
      </trkpt>
      <trkpt lat="44.49413" lon="1.29214">
        <ele>228.3</ele>
        <time>2023-10-23T13:15:59Z</time>
      </trkpt>
      <trkpt lat="44.49411" lon="1.29209">
        <ele>228.1</ele>
        <time>2023-10-23T13:16:05Z</time>
      </trkpt>
      <trkpt lat="44.4941" lon="1.29203">
        <ele>226.8</ele>
        <time>2023-10-23T13:16:10Z</time>
      </trkpt>
      <trkpt lat="44.49406" lon="1.29199">
        <ele>226.2</ele>
        <time>2023-10-23T13:16:16Z</time>
      </trkpt>
      <trkpt lat="44.494" lon="1.29201">
        <ele>225.8</ele>
        <time>2023-10-23T13:16:21Z</time>
      </trkpt>
      <trkpt lat="44.49396" lon="1.29197">
        <ele>225.9</ele>
        <time>2023-10-23T13:16:28Z</time>
      </trkpt>
      <trkpt lat="44.49392" lon="1.29192">
        <ele>227.1</ele>
        <time>2023-10-23T13:16:34Z</time>
      </trkpt>
      <trkpt lat="44.49388" lon="1.29191">
        <ele>228.6</ele>
        <time>2023-10-23T13:16:40Z</time>
      </trkpt>
      <trkpt lat="44.49385" lon="1.29186">
        <ele>230.3</ele>
        <time>2023-10-23T13:18:22Z</time>
      </trkpt>
      <trkpt lat="44.49381" lon="1.29183">
        <ele>230.1</ele>
        <time>2023-10-23T13:18:28Z</time>
      </trkpt>
      <trkpt lat="44.49376" lon="1.2918">
        <ele>231.9</ele>
        <time>2023-10-23T13:18:35Z</time>
      </trkpt>
      <trkpt lat="44.49372" lon="1.29176">
        <ele>234.1</ele>
        <time>2023-10-23T13:18:40Z</time>
      </trkpt>
      <trkpt lat="44.4937" lon="1.2917">
        <ele>238.6</ele>
        <time>2023-10-23T13:18:51Z</time>
      </trkpt>
      <trkpt lat="44.49366" lon="1.29165">
        <ele>240.5</ele>
        <time>2023-10-23T13:18:59Z</time>
      </trkpt>
      <trkpt lat="44.49366" lon="1.29159">
        <ele>242</ele>
        <time>2023-10-23T13:19:27Z</time>
      </trkpt>
      <trkpt lat="44.49367" lon="1.29152">
        <ele>245.6</ele>
        <time>2023-10-23T13:19:35Z</time>
      </trkpt>
      <trkpt lat="44.49369" lon="1.29146">
        <ele>243.9</ele>
        <time>2023-10-23T13:20:27Z</time>
      </trkpt>
      <trkpt lat="44.4937" lon="1.29139">
        <ele>243.7</ele>
        <time>2023-10-23T13:20:31Z</time>
      </trkpt>
      <trkpt lat="44.49374" lon="1.29135">
        <ele>241.8</ele>
        <time>2023-10-23T13:20:36Z</time>
      </trkpt>
      <trkpt lat="44.49374" lon="1.29128">
        <ele>239</ele>
        <time>2023-10-23T13:20:44Z</time>
      </trkpt>
      <trkpt lat="44.49375" lon="1.29121">
        <ele>237.8</ele>
        <time>2023-10-23T13:20:53Z</time>
      </trkpt>
      <trkpt lat="44.49371" lon="1.29117">
        <ele>236.2</ele>
        <time>2023-10-23T13:21:04Z</time>
      </trkpt>
      <trkpt lat="44.49368" lon="1.29111">
        <ele>235.4</ele>
        <time>2023-10-23T13:21:12Z</time>
      </trkpt>
      <trkpt lat="44.49368" lon="1.29105">
        <ele>236.8</ele>
        <time>2023-10-23T13:21:27Z</time>
      </trkpt>
      <trkpt lat="44.49371" lon="1.291">
        <ele>240.8</ele>
        <time>2023-10-23T13:21:36Z</time>
      </trkpt>
      <trkpt lat="44.49372" lon="1.29093">
        <ele>241.4</ele>
        <time>2023-10-23T13:21:43Z</time>
      </trkpt>
      <trkpt lat="44.49375" lon="1.29087">
        <ele>242</ele>
        <time>2023-10-23T13:21:50Z</time>
      </trkpt>
      <trkpt lat="44.49374" lon="1.2908">
        <ele>243.7</ele>
        <time>2023-10-23T13:21:57Z</time>
      </trkpt>
      <trkpt lat="44.49372" lon="1.29074">
        <ele>244.4</ele>
        <time>2023-10-23T13:22:04Z</time>
      </trkpt>
      <trkpt lat="44.4937" lon="1.29068">
        <ele>244.9</ele>
        <time>2023-10-23T13:22:10Z</time>
      </trkpt>
      <trkpt lat="44.49372" lon="1.29062">
        <ele>248.4</ele>
        <time>2023-10-23T13:22:19Z</time>
      </trkpt>
      <trkpt lat="44.4937" lon="1.29057">
        <ele>244.7</ele>
        <time>2023-10-23T13:22:46Z</time>
      </trkpt>
      <trkpt lat="44.49374" lon="1.2905">
        <ele>250.6</ele>
        <time>2023-10-23T13:22:52Z</time>
      </trkpt>
      <trkpt lat="44.49373" lon="1.29044">
        <ele>253.1</ele>
        <time>2023-10-23T13:23:07Z</time>
      </trkpt>
      <trkpt lat="44.4937" lon="1.29039">
        <ele>253.5</ele>
        <time>2023-10-23T13:23:17Z</time>
      </trkpt>
      <trkpt lat="44.4937" lon="1.29032">
        <ele>253</ele>
        <time>2023-10-23T13:23:22Z</time>
      </trkpt>
      <trkpt lat="44.49368" lon="1.29026">
        <ele>251.9</ele>
        <time>2023-10-23T13:23:35Z</time>
      </trkpt>
      <trkpt lat="44.49367" lon="1.29018">
        <ele>251.9</ele>
        <time>2023-10-23T13:23:40Z</time>
      </trkpt>
      <trkpt lat="44.49366" lon="1.29012">
        <ele>250</ele>
        <time>2023-10-23T13:23:47Z</time>
      </trkpt>
      <trkpt lat="44.49368" lon="1.29005">
        <ele>252.4</ele>
        <time>2023-10-23T13:23:54Z</time>
      </trkpt>
      <trkpt lat="44.49366" lon="1.29011">
        <ele>251.7</ele>
        <time>2023-10-23T13:23:57Z</time>
      </trkpt>
      <trkpt lat="44.49364" lon="1.29004">
        <ele>259.4</ele>
        <time>2023-10-23T13:24:32Z</time>
      </trkpt>
      <trkpt lat="44.49369" lon="1.29006">
        <ele>253.5</ele>
        <time>2023-10-23T13:25:29Z</time>
      </trkpt>
      <trkpt lat="44.49374" lon="1.29008">
        <ele>253.7</ele>
        <time>2023-10-23T13:25:43Z</time>
      </trkpt>
      <trkpt lat="44.49372" lon="1.29002">
        <ele>255.5</ele>
        <time>2023-10-23T13:25:49Z</time>
      </trkpt>
      <trkpt lat="44.4937" lon="1.28995">
        <ele>256.1</ele>
        <time>2023-10-23T13:25:54Z</time>
      </trkpt>
      <trkpt lat="44.49368" lon="1.28988">
        <ele>255.5</ele>
        <time>2023-10-23T13:26:00Z</time>
      </trkpt>
      <trkpt lat="44.49364" lon="1.28979">
        <ele>255.1</ele>
        <time>2023-10-23T13:26:04Z</time>
      </trkpt>
      <trkpt lat="44.49361" lon="1.28974">
        <ele>251.8</ele>
        <time>2023-10-23T13:26:08Z</time>
      </trkpt>
      <trkpt lat="44.49359" lon="1.28969">
        <ele>251.5</ele>
        <time>2023-10-23T13:26:14Z</time>
      </trkpt>
      <trkpt lat="44.49357" lon="1.28963">
        <ele>250.2</ele>
        <time>2023-10-23T13:26:20Z</time>
      </trkpt>
      <trkpt lat="44.49358" lon="1.28957">
        <ele>252.6</ele>
        <time>2023-10-23T13:26:25Z</time>
      </trkpt>
      <trkpt lat="44.49355" lon="1.28951">
        <ele>258.6</ele>
        <time>2023-10-23T13:26:32Z</time>
      </trkpt>
      <trkpt lat="44.49353" lon="1.28946">
        <ele>260</ele>
        <time>2023-10-23T13:26:40Z</time>
      </trkpt>
      <trkpt lat="44.49349" lon="1.28942">
        <ele>260</ele>
        <time>2023-10-23T13:26:46Z</time>
      </trkpt>
      <trkpt lat="44.49348" lon="1.28936">
        <ele>262</ele>
        <time>2023-10-23T13:26:52Z</time>
      </trkpt>
      <trkpt lat="44.4935" lon="1.2893">
        <ele>262</ele>
        <time>2023-10-23T13:26:56Z</time>
      </trkpt>
      <trkpt lat="44.4935" lon="1.28923">
        <ele>261.7</ele>
        <time>2023-10-23T13:27:01Z</time>
      </trkpt>
      <trkpt lat="44.49349" lon="1.28916">
        <ele>263.5</ele>
        <time>2023-10-23T13:27:08Z</time>
      </trkpt>
      <trkpt lat="44.49346" lon="1.28911">
        <ele>266.4</ele>
        <time>2023-10-23T13:27:18Z</time>
      </trkpt>
      <trkpt lat="44.49344" lon="1.28904">
        <ele>266.1</ele>
        <time>2023-10-23T13:27:26Z</time>
      </trkpt>
      <trkpt lat="44.49342" lon="1.28897">
        <ele>264.6</ele>
        <time>2023-10-23T13:27:31Z</time>
      </trkpt>
      <trkpt lat="44.4934" lon="1.28891">
        <ele>264.7</ele>
        <time>2023-10-23T13:27:36Z</time>
      </trkpt>
      <trkpt lat="44.49339" lon="1.28885">
        <ele>264.9</ele>
        <time>2023-10-23T13:27:42Z</time>
      </trkpt>
      <trkpt lat="44.49336" lon="1.28881">
        <ele>265.2</ele>
        <time>2023-10-23T13:27:48Z</time>
      </trkpt>
      <trkpt lat="44.49336" lon="1.28874">
        <ele>260.8</ele>
        <time>2023-10-23T13:27:53Z</time>
      </trkpt>
      <trkpt lat="44.49337" lon="1.28868">
        <ele>261</ele>
        <time>2023-10-23T13:28:21Z</time>
      </trkpt>
      <trkpt lat="44.49335" lon="1.28862">
        <ele>261.8</ele>
        <time>2023-10-23T13:28:27Z</time>
      </trkpt>
      <trkpt lat="44.49333" lon="1.28855">
        <ele>265</ele>
        <time>2023-10-23T13:28:37Z</time>
      </trkpt>
      <trkpt lat="44.49331" lon="1.28849">
        <ele>265.9</ele>
        <time>2023-10-23T13:28:44Z</time>
      </trkpt>
      <trkpt lat="44.49328" lon="1.28844">
        <ele>265.4</ele>
        <time>2023-10-23T13:29:06Z</time>
      </trkpt>
      <trkpt lat="44.49326" lon="1.28837">
        <ele>263.8</ele>
        <time>2023-10-23T13:29:11Z</time>
      </trkpt>
      <trkpt lat="44.49324" lon="1.2883">
        <ele>263.7</ele>
        <time>2023-10-23T13:29:17Z</time>
      </trkpt>
      <trkpt lat="44.49323" lon="1.28824">
        <ele>262.8</ele>
        <time>2023-10-23T13:29:47Z</time>
      </trkpt>
      <trkpt lat="44.49321" lon="1.28817">
        <ele>263.3</ele>
        <time>2023-10-23T13:30:02Z</time>
      </trkpt>
      <trkpt lat="44.49318" lon="1.28812">
        <ele>263</ele>
        <time>2023-10-23T13:30:06Z</time>
      </trkpt>
      <trkpt lat="44.49314" lon="1.28809">
        <ele>264</ele>
        <time>2023-10-23T13:30:15Z</time>
      </trkpt>
      <trkpt lat="44.49317" lon="1.28803">
        <ele>269.4</ele>
        <time>2023-10-23T13:30:30Z</time>
      </trkpt>
      <trkpt lat="44.49315" lon="1.28794">
        <ele>265.7</ele>
        <time>2023-10-23T13:30:33Z</time>
      </trkpt>
      <trkpt lat="44.49313" lon="1.28788">
        <ele>264.3</ele>
        <time>2023-10-23T13:30:36Z</time>
      </trkpt>
      <trkpt lat="44.4931" lon="1.28783">
        <ele>263.7</ele>
        <time>2023-10-23T13:30:39Z</time>
      </trkpt>
      <trkpt lat="44.49306" lon="1.28777">
        <ele>262.2</ele>
        <time>2023-10-23T13:30:43Z</time>
      </trkpt>
      <trkpt lat="44.49302" lon="1.28774">
        <ele>261.4</ele>
        <time>2023-10-23T13:30:47Z</time>
      </trkpt>
      <trkpt lat="44.49297" lon="1.28769">
        <ele>261.6</ele>
        <time>2023-10-23T13:30:57Z</time>
      </trkpt>
      <trkpt lat="44.49299" lon="1.28786">
        <ele>261.6</ele>
        <time>2023-10-23T13:30:58Z</time>
      </trkpt>
      <trkpt lat="44.493" lon="1.28777">
        <ele>273.1</ele>
        <time>2023-10-23T13:31:19Z</time>
      </trkpt>
      <trkpt lat="44.493" lon="1.28771">
        <ele>266.5</ele>
        <time>2023-10-23T13:31:44Z</time>
      </trkpt>
      <trkpt lat="44.49296" lon="1.28764">
        <ele>266.8</ele>
        <time>2023-10-23T13:32:01Z</time>
      </trkpt>
      <trkpt lat="44.49294" lon="1.28758">
        <ele>267.2</ele>
        <time>2023-10-23T13:32:06Z</time>
      </trkpt>
      <trkpt lat="44.49291" lon="1.28753">
        <ele>267.2</ele>
        <time>2023-10-23T13:32:11Z</time>
      </trkpt>
      <trkpt lat="44.49288" lon="1.28748">
        <ele>268.2</ele>
        <time>2023-10-23T13:32:15Z</time>
      </trkpt>
      <trkpt lat="44.49286" lon="1.28742">
        <ele>268.9</ele>
        <time>2023-10-23T13:32:19Z</time>
      </trkpt>
      <trkpt lat="44.49285" lon="1.28736">
        <ele>270.4</ele>
        <time>2023-10-23T13:32:23Z</time>
      </trkpt>
      <trkpt lat="44.49283" lon="1.28729">
        <ele>270.6</ele>
        <time>2023-10-23T13:32:28Z</time>
      </trkpt>
      <trkpt lat="44.49282" lon="1.28723">
        <ele>269.7</ele>
        <time>2023-10-23T13:32:34Z</time>
      </trkpt>
      <trkpt lat="44.49279" lon="1.28717">
        <ele>268.2</ele>
        <time>2023-10-23T13:32:40Z</time>
      </trkpt>
      <trkpt lat="44.49275" lon="1.28713">
        <ele>267.3</ele>
        <time>2023-10-23T13:32:47Z</time>
      </trkpt>
      <trkpt lat="44.49272" lon="1.28708">
        <ele>269.4</ele>
        <time>2023-10-23T13:32:54Z</time>
      </trkpt>
      <trkpt lat="44.49268" lon="1.28705">
        <ele>270.1</ele>
        <time>2023-10-23T13:33:00Z</time>
      </trkpt>
      <trkpt lat="44.49267" lon="1.28698">
        <ele>269.8</ele>
        <time>2023-10-23T13:33:05Z</time>
      </trkpt>
      <trkpt lat="44.49265" lon="1.28692">
        <ele>267</ele>
        <time>2023-10-23T13:34:01Z</time>
      </trkpt>
      <trkpt lat="44.49266" lon="1.28686">
        <ele>265.8</ele>
        <time>2023-10-23T13:34:19Z</time>
      </trkpt>
      <trkpt lat="44.49271" lon="1.28687">
        <ele>268.7</ele>
        <time>2023-10-23T13:35:20Z</time>
      </trkpt>
      <trkpt lat="44.49266" lon="1.28683">
        <ele>269.7</ele>
        <time>2023-10-23T13:36:03Z</time>
      </trkpt>
      <trkpt lat="44.49264" lon="1.28677">
        <ele>272.2</ele>
        <time>2023-10-23T13:36:26Z</time>
      </trkpt>
      <trkpt lat="44.49261" lon="1.28672">
        <ele>272.6</ele>
        <time>2023-10-23T13:36:31Z</time>
      </trkpt>
      <trkpt lat="44.49258" lon="1.28665">
        <ele>272.9</ele>
        <time>2023-10-23T13:36:37Z</time>
      </trkpt>
      <trkpt lat="44.49254" lon="1.28661">
        <ele>274.2</ele>
        <time>2023-10-23T13:36:43Z</time>
      </trkpt>
      <trkpt lat="44.49252" lon="1.28655">
        <ele>274.3</ele>
        <time>2023-10-23T13:36:49Z</time>
      </trkpt>
      <trkpt lat="44.49249" lon="1.28649">
        <ele>274.7</ele>
        <time>2023-10-23T13:36:54Z</time>
      </trkpt>
      <trkpt lat="44.49246" lon="1.28643">
        <ele>274.1</ele>
        <time>2023-10-23T13:36:59Z</time>
      </trkpt>
      <trkpt lat="44.49243" lon="1.28638">
        <ele>272.7</ele>
        <time>2023-10-23T13:37:03Z</time>
      </trkpt>
      <trkpt lat="44.4924" lon="1.28632">
        <ele>272.6</ele>
        <time>2023-10-23T13:37:09Z</time>
      </trkpt>
      <trkpt lat="44.49236" lon="1.28626">
        <ele>273.2</ele>
        <time>2023-10-23T13:37:14Z</time>
      </trkpt>
      <trkpt lat="44.49233" lon="1.2862">
        <ele>273.2</ele>
        <time>2023-10-23T13:37:18Z</time>
      </trkpt>
      <trkpt lat="44.49229" lon="1.28618">
        <ele>273.3</ele>
        <time>2023-10-23T13:37:24Z</time>
      </trkpt>
      <trkpt lat="44.49226" lon="1.28613">
        <ele>272.6</ele>
        <time>2023-10-23T13:37:28Z</time>
      </trkpt>
      <trkpt lat="44.49223" lon="1.28608">
        <ele>271.2</ele>
        <time>2023-10-23T13:37:32Z</time>
      </trkpt>
      <trkpt lat="44.4922" lon="1.28603">
        <ele>271</ele>
        <time>2023-10-23T13:37:37Z</time>
      </trkpt>
      <trkpt lat="44.49217" lon="1.28597">
        <ele>270.9</ele>
        <time>2023-10-23T13:37:42Z</time>
      </trkpt>
      <trkpt lat="44.49213" lon="1.28591">
        <ele>271</ele>
        <time>2023-10-23T13:37:47Z</time>
      </trkpt>
      <trkpt lat="44.49211" lon="1.28586">
        <ele>270.6</ele>
        <time>2023-10-23T13:37:51Z</time>
      </trkpt>
      <trkpt lat="44.49211" lon="1.28579">
        <ele>270.7</ele>
        <time>2023-10-23T13:37:55Z</time>
      </trkpt>
      <trkpt lat="44.49212" lon="1.28572">
        <ele>270.7</ele>
        <time>2023-10-23T13:37:58Z</time>
      </trkpt>
      <trkpt lat="44.4921" lon="1.28565">
        <ele>271.1</ele>
        <time>2023-10-23T13:38:03Z</time>
      </trkpt>
      <trkpt lat="44.49205" lon="1.28561">
        <ele>271.3</ele>
        <time>2023-10-23T13:38:07Z</time>
      </trkpt>
      <trkpt lat="44.49201" lon="1.28558">
        <ele>271.3</ele>
        <time>2023-10-23T13:38:11Z</time>
      </trkpt>
      <trkpt lat="44.49198" lon="1.28553">
        <ele>269.3</ele>
        <time>2023-10-23T13:38:15Z</time>
      </trkpt>
      <trkpt lat="44.49194" lon="1.2855">
        <ele>267.6</ele>
        <time>2023-10-23T13:38:19Z</time>
      </trkpt>
      <trkpt lat="44.4919" lon="1.28545">
        <ele>268.6</ele>
        <time>2023-10-23T13:38:23Z</time>
      </trkpt>
      <trkpt lat="44.49187" lon="1.28541">
        <ele>269.3</ele>
        <time>2023-10-23T13:38:27Z</time>
      </trkpt>
      <trkpt lat="44.49182" lon="1.28538">
        <ele>269</ele>
        <time>2023-10-23T13:38:31Z</time>
      </trkpt>
      <trkpt lat="44.49178" lon="1.28536">
        <ele>269.4</ele>
        <time>2023-10-23T13:38:35Z</time>
      </trkpt>
      <trkpt lat="44.49173" lon="1.28534">
        <ele>268.3</ele>
        <time>2023-10-23T13:38:39Z</time>
      </trkpt>
      <trkpt lat="44.4917" lon="1.2853">
        <ele>267.6</ele>
        <time>2023-10-23T13:38:43Z</time>
      </trkpt>
      <trkpt lat="44.49166" lon="1.28525">
        <ele>267.2</ele>
        <time>2023-10-23T13:38:47Z</time>
      </trkpt>
      <trkpt lat="44.49161" lon="1.28523">
        <ele>266.6</ele>
        <time>2023-10-23T13:38:51Z</time>
      </trkpt>
      <trkpt lat="44.49155" lon="1.28522">
        <ele>267.5</ele>
        <time>2023-10-23T13:38:56Z</time>
      </trkpt>
      <trkpt lat="44.49151" lon="1.2852">
        <ele>266.9</ele>
        <time>2023-10-23T13:38:59Z</time>
      </trkpt>
      <trkpt lat="44.49145" lon="1.28517">
        <ele>266.7</ele>
        <time>2023-10-23T13:39:03Z</time>
      </trkpt>
      <trkpt lat="44.49142" lon="1.28512">
        <ele>266</ele>
        <time>2023-10-23T13:39:07Z</time>
      </trkpt>
      <trkpt lat="44.49141" lon="1.28506">
        <ele>264.1</ele>
        <time>2023-10-23T13:39:11Z</time>
      </trkpt>
      <trkpt lat="44.49138" lon="1.285">
        <ele>262.8</ele>
        <time>2023-10-23T13:39:16Z</time>
      </trkpt>
      <trkpt lat="44.49133" lon="1.28501">
        <ele>261.3</ele>
        <time>2023-10-23T13:39:23Z</time>
      </trkpt>
      <trkpt lat="44.49129" lon="1.28505">
        <ele>259.7</ele>
        <time>2023-10-23T13:39:29Z</time>
      </trkpt>
      <trkpt lat="44.49125" lon="1.28503">
        <ele>258.3</ele>
        <time>2023-10-23T13:39:34Z</time>
      </trkpt>
      <trkpt lat="44.49121" lon="1.28499">
        <ele>258.2</ele>
        <time>2023-10-23T13:39:39Z</time>
      </trkpt>
      <trkpt lat="44.49116" lon="1.28498">
        <ele>259.2</ele>
        <time>2023-10-23T13:39:44Z</time>
      </trkpt>
      <trkpt lat="44.49111" lon="1.28498">
        <ele>256</ele>
        <time>2023-10-23T13:39:49Z</time>
      </trkpt>
      <trkpt lat="44.49106" lon="1.285">
        <ele>254.5</ele>
        <time>2023-10-23T13:39:54Z</time>
      </trkpt>
      <trkpt lat="44.49101" lon="1.28504">
        <ele>253.5</ele>
        <time>2023-10-23T13:39:59Z</time>
      </trkpt>
      <trkpt lat="44.49097" lon="1.28509">
        <ele>253.8</ele>
        <time>2023-10-23T13:40:04Z</time>
      </trkpt>
      <trkpt lat="44.49092" lon="1.28505">
        <ele>254.2</ele>
        <time>2023-10-23T13:40:09Z</time>
      </trkpt>
      <trkpt lat="44.49087" lon="1.28505">
        <ele>254.7</ele>
        <time>2023-10-23T13:40:14Z</time>
      </trkpt>
      <trkpt lat="44.49082" lon="1.28504">
        <ele>256</ele>
        <time>2023-10-23T13:40:19Z</time>
      </trkpt>
      <trkpt lat="44.49077" lon="1.28501">
        <ele>251.8</ele>
        <time>2023-10-23T13:40:24Z</time>
      </trkpt>
      <trkpt lat="44.49073" lon="1.28505">
        <ele>251.7</ele>
        <time>2023-10-23T13:40:29Z</time>
      </trkpt>
      <trkpt lat="44.49067" lon="1.28506">
        <ele>250.7</ele>
        <time>2023-10-23T13:40:35Z</time>
      </trkpt>
      <trkpt lat="44.49062" lon="1.28506">
        <ele>251.6</ele>
        <time>2023-10-23T13:40:40Z</time>
      </trkpt>
      <trkpt lat="44.49057" lon="1.28504">
        <ele>253.9</ele>
        <time>2023-10-23T13:40:45Z</time>
      </trkpt>
      <trkpt lat="44.49053" lon="1.28502">
        <ele>252.9</ele>
        <time>2023-10-23T13:40:51Z</time>
      </trkpt>
      <trkpt lat="44.49049" lon="1.28498">
        <ele>252.7</ele>
        <time>2023-10-23T13:40:59Z</time>
      </trkpt>
      <trkpt lat="44.49044" lon="1.28496">
        <ele>254.7</ele>
        <time>2023-10-23T13:41:05Z</time>
      </trkpt>
      <trkpt lat="44.4904" lon="1.28493">
        <ele>255.9</ele>
        <time>2023-10-23T13:41:11Z</time>
      </trkpt>
      <trkpt lat="44.49035" lon="1.28492">
        <ele>257.4</ele>
        <time>2023-10-23T13:41:17Z</time>
      </trkpt>
      <trkpt lat="44.4903" lon="1.28492">
        <ele>257.3</ele>
        <time>2023-10-23T13:41:23Z</time>
      </trkpt>
      <trkpt lat="44.49025" lon="1.28489">
        <ele>258.2</ele>
        <time>2023-10-23T13:41:28Z</time>
      </trkpt>
      <trkpt lat="44.4902" lon="1.2849">
        <ele>257.5</ele>
        <time>2023-10-23T13:41:33Z</time>
      </trkpt>
      <trkpt lat="44.49017" lon="1.28485">
        <ele>256.7</ele>
        <time>2023-10-23T13:41:39Z</time>
      </trkpt>
      <trkpt lat="44.49014" lon="1.28479">
        <ele>259.2</ele>
        <time>2023-10-23T13:42:52Z</time>
      </trkpt>
      <trkpt lat="44.49011" lon="1.28474">
        <ele>261.6</ele>
        <time>2023-10-23T13:43:00Z</time>
      </trkpt>
      <trkpt lat="44.49005" lon="1.28473">
        <ele>260.2</ele>
        <time>2023-10-23T13:43:06Z</time>
      </trkpt>
      <trkpt lat="44.49" lon="1.28472">
        <ele>258.5</ele>
        <time>2023-10-23T13:43:11Z</time>
      </trkpt>
      <trkpt lat="44.48996" lon="1.28471">
        <ele>257.4</ele>
        <time>2023-10-23T13:43:15Z</time>
      </trkpt>
      <trkpt lat="44.48992" lon="1.28468">
        <ele>257.9</ele>
        <time>2023-10-23T13:43:20Z</time>
      </trkpt>
      <trkpt lat="44.48987" lon="1.28466">
        <ele>257.8</ele>
        <time>2023-10-23T13:43:25Z</time>
      </trkpt>
      <trkpt lat="44.48982" lon="1.28464">
        <ele>256.8</ele>
        <time>2023-10-23T13:43:29Z</time>
      </trkpt>
      <trkpt lat="44.48977" lon="1.28461">
        <ele>257.2</ele>
        <time>2023-10-23T13:43:33Z</time>
      </trkpt>
      <trkpt lat="44.48973" lon="1.28457">
        <ele>257.2</ele>
        <time>2023-10-23T13:43:39Z</time>
      </trkpt>
      <trkpt lat="44.48968" lon="1.28457">
        <ele>257.3</ele>
        <time>2023-10-23T13:43:46Z</time>
      </trkpt>
      <trkpt lat="44.48964" lon="1.28453">
        <ele>256.3</ele>
        <time>2023-10-23T13:43:51Z</time>
      </trkpt>
      <trkpt lat="44.48959" lon="1.28451">
        <ele>255</ele>
        <time>2023-10-23T13:43:55Z</time>
      </trkpt>
      <trkpt lat="44.48954" lon="1.28448">
        <ele>254.6</ele>
        <time>2023-10-23T13:43:59Z</time>
      </trkpt>
      <trkpt lat="44.4895" lon="1.28445">
        <ele>256.1</ele>
        <time>2023-10-23T13:44:03Z</time>
      </trkpt>
      <trkpt lat="44.48945" lon="1.28444">
        <ele>256.8</ele>
        <time>2023-10-23T13:44:06Z</time>
      </trkpt>
      <trkpt lat="44.4894" lon="1.28442">
        <ele>257</ele>
        <time>2023-10-23T13:44:09Z</time>
      </trkpt>
      <trkpt lat="44.48935" lon="1.28441">
        <ele>257.6</ele>
        <time>2023-10-23T13:44:13Z</time>
      </trkpt>
      <trkpt lat="44.4893" lon="1.28441">
        <ele>258.6</ele>
        <time>2023-10-23T13:44:19Z</time>
      </trkpt>
      <trkpt lat="44.48925" lon="1.2844">
        <ele>258.5</ele>
        <time>2023-10-23T13:44:23Z</time>
      </trkpt>
      <trkpt lat="44.48921" lon="1.28438">
        <ele>258.8</ele>
        <time>2023-10-23T13:44:27Z</time>
      </trkpt>
      <trkpt lat="44.48915" lon="1.28437">
        <ele>258.1</ele>
        <time>2023-10-23T13:44:31Z</time>
      </trkpt>
      <trkpt lat="44.48909" lon="1.28438">
        <ele>258.4</ele>
        <time>2023-10-23T13:44:35Z</time>
      </trkpt>
      <trkpt lat="44.48904" lon="1.28437">
        <ele>258.9</ele>
        <time>2023-10-23T13:44:40Z</time>
      </trkpt>
      <trkpt lat="44.48898" lon="1.28436">
        <ele>257.7</ele>
        <time>2023-10-23T13:44:44Z</time>
      </trkpt>
      <trkpt lat="44.48894" lon="1.28433">
        <ele>257.4</ele>
        <time>2023-10-23T13:44:48Z</time>
      </trkpt>
      <trkpt lat="44.48888" lon="1.28432">
        <ele>255.6</ele>
        <time>2023-10-23T13:44:53Z</time>
      </trkpt>
      <trkpt lat="44.48883" lon="1.28432">
        <ele>256.2</ele>
        <time>2023-10-23T13:44:58Z</time>
      </trkpt>
      <trkpt lat="44.48878" lon="1.28432">
        <ele>255.6</ele>
        <time>2023-10-23T13:45:03Z</time>
      </trkpt>
      <trkpt lat="44.48873" lon="1.28432">
        <ele>252.9</ele>
        <time>2023-10-23T13:45:08Z</time>
      </trkpt>
      <trkpt lat="44.48868" lon="1.2843">
        <ele>251.9</ele>
        <time>2023-10-23T13:45:17Z</time>
      </trkpt>
      <trkpt lat="44.48863" lon="1.28427">
        <ele>251.5</ele>
        <time>2023-10-23T13:45:23Z</time>
      </trkpt>
      <trkpt lat="44.48859" lon="1.28423">
        <ele>250.8</ele>
        <time>2023-10-23T13:45:28Z</time>
      </trkpt>
      <trkpt lat="44.48855" lon="1.28419">
        <ele>252.1</ele>
        <time>2023-10-23T13:45:33Z</time>
      </trkpt>
      <trkpt lat="44.48851" lon="1.28418">
        <ele>251.7</ele>
        <time>2023-10-23T13:45:37Z</time>
      </trkpt>
      <trkpt lat="44.48845" lon="1.28418">
        <ele>250.8</ele>
        <time>2023-10-23T13:45:41Z</time>
      </trkpt>
      <trkpt lat="44.4884" lon="1.28417">
        <ele>250.2</ele>
        <time>2023-10-23T13:45:46Z</time>
      </trkpt>
      <trkpt lat="44.48835" lon="1.28418">
        <ele>251.3</ele>
        <time>2023-10-23T13:45:51Z</time>
      </trkpt>
      <trkpt lat="44.4883" lon="1.28418">
        <ele>251</ele>
        <time>2023-10-23T13:45:55Z</time>
      </trkpt>
      <trkpt lat="44.48825" lon="1.28418">
        <ele>251</ele>
        <time>2023-10-23T13:45:59Z</time>
      </trkpt>
      <trkpt lat="44.4882" lon="1.28417">
        <ele>250.1</ele>
        <time>2023-10-23T13:46:03Z</time>
      </trkpt>
      <trkpt lat="44.48815" lon="1.28416">
        <ele>250</ele>
        <time>2023-10-23T13:46:08Z</time>
      </trkpt>
      <trkpt lat="44.4881" lon="1.28417">
        <ele>250.5</ele>
        <time>2023-10-23T13:46:12Z</time>
      </trkpt>
      <trkpt lat="44.48805" lon="1.28417">
        <ele>249.5</ele>
        <time>2023-10-23T13:46:16Z</time>
      </trkpt>
      <trkpt lat="44.488" lon="1.28417">
        <ele>249.3</ele>
        <time>2023-10-23T13:46:20Z</time>
      </trkpt>
      <trkpt lat="44.48796" lon="1.28416">
        <ele>250.9</ele>
        <time>2023-10-23T13:46:24Z</time>
      </trkpt>
      <trkpt lat="44.4879" lon="1.28416">
        <ele>249.4</ele>
        <time>2023-10-23T13:46:29Z</time>
      </trkpt>
      <trkpt lat="44.48785" lon="1.28415">
        <ele>250.1</ele>
        <time>2023-10-23T13:46:34Z</time>
      </trkpt>
      <trkpt lat="44.48779" lon="1.28415">
        <ele>252.5</ele>
        <time>2023-10-23T13:46:39Z</time>
      </trkpt>
      <trkpt lat="44.48774" lon="1.28415">
        <ele>252.1</ele>
        <time>2023-10-23T13:46:43Z</time>
      </trkpt>
      <trkpt lat="44.48769" lon="1.28414">
        <ele>253</ele>
        <time>2023-10-23T13:46:47Z</time>
      </trkpt>
      <trkpt lat="44.48766" lon="1.28408">
        <ele>254.1</ele>
        <time>2023-10-23T13:46:51Z</time>
      </trkpt>
      <trkpt lat="44.48768" lon="1.28402">
        <ele>253.7</ele>
        <time>2023-10-23T13:46:56Z</time>
      </trkpt>
      <trkpt lat="44.48765" lon="1.28396">
        <ele>248.5</ele>
        <time>2023-10-23T13:47:09Z</time>
      </trkpt>
      <trkpt lat="44.4876" lon="1.28394">
        <ele>247.8</ele>
        <time>2023-10-23T13:47:16Z</time>
      </trkpt>
      <trkpt lat="44.48758" lon="1.28387">
        <ele>247</ele>
        <time>2023-10-23T13:47:20Z</time>
      </trkpt>
      <trkpt lat="44.48756" lon="1.28381">
        <ele>245.1</ele>
        <time>2023-10-23T13:47:57Z</time>
      </trkpt>
      <trkpt lat="44.48752" lon="1.28377">
        <ele>243.8</ele>
        <time>2023-10-23T13:48:04Z</time>
      </trkpt>
      <trkpt lat="44.48747" lon="1.28378">
        <ele>246.7</ele>
        <time>2023-10-23T13:48:11Z</time>
      </trkpt>
      <trkpt lat="44.48742" lon="1.28379">
        <ele>247.5</ele>
        <time>2023-10-23T13:48:17Z</time>
      </trkpt>
      <trkpt lat="44.48737" lon="1.28376">
        <ele>248.1</ele>
        <time>2023-10-23T13:48:22Z</time>
      </trkpt>
      <trkpt lat="44.48732" lon="1.28374">
        <ele>247.6</ele>
        <time>2023-10-23T13:48:45Z</time>
      </trkpt>
      <trkpt lat="44.48729" lon="1.2837">
        <ele>247.1</ele>
        <time>2023-10-23T13:49:58Z</time>
      </trkpt>
      <trkpt lat="44.48727" lon="1.28376">
        <ele>249.1</ele>
        <time>2023-10-23T13:50:56Z</time>
      </trkpt>
      <trkpt lat="44.48722" lon="1.28378">
        <ele>249.8</ele>
        <time>2023-10-23T13:51:50Z</time>
      </trkpt>
      <trkpt lat="44.48718" lon="1.28372">
        <ele>248.6</ele>
        <time>2023-10-23T13:53:18Z</time>
      </trkpt>
      <trkpt lat="44.48715" lon="1.28366">
        <ele>247.3</ele>
        <time>2023-10-23T13:53:27Z</time>
      </trkpt>
      <trkpt lat="44.48711" lon="1.28367">
        <ele>244.6</ele>
        <time>2023-10-23T13:53:38Z</time>
      </trkpt>
      <trkpt lat="44.48706" lon="1.28364">
        <ele>245.8</ele>
        <time>2023-10-23T13:53:46Z</time>
      </trkpt>
      <trkpt lat="44.48702" lon="1.2836">
        <ele>249.9</ele>
        <time>2023-10-23T13:53:54Z</time>
      </trkpt>
      <trkpt lat="44.48697" lon="1.28359">
        <ele>250.8</ele>
        <time>2023-10-23T13:54:00Z</time>
      </trkpt>
      <trkpt lat="44.48692" lon="1.28357">
        <ele>250.1</ele>
        <time>2023-10-23T13:54:05Z</time>
      </trkpt>
      <trkpt lat="44.48687" lon="1.28356">
        <ele>248.6</ele>
        <time>2023-10-23T13:54:10Z</time>
      </trkpt>
      <trkpt lat="44.48681" lon="1.28356">
        <ele>244.4</ele>
        <time>2023-10-23T13:54:14Z</time>
      </trkpt>
      <trkpt lat="44.48676" lon="1.28356">
        <ele>245.9</ele>
        <time>2023-10-23T13:54:18Z</time>
      </trkpt>
      <trkpt lat="44.48672" lon="1.28359">
        <ele>246.2</ele>
        <time>2023-10-23T13:54:23Z</time>
      </trkpt>
      <trkpt lat="44.48667" lon="1.28361">
        <ele>246.6</ele>
        <time>2023-10-23T13:54:28Z</time>
      </trkpt>
      <trkpt lat="44.48663" lon="1.28364">
        <ele>244.4</ele>
        <time>2023-10-23T13:54:32Z</time>
      </trkpt>
      <trkpt lat="44.48658" lon="1.28366">
        <ele>243.5</ele>
        <time>2023-10-23T13:54:37Z</time>
      </trkpt>
      <trkpt lat="44.48653" lon="1.28365">
        <ele>245</ele>
        <time>2023-10-23T13:54:43Z</time>
      </trkpt>
      <trkpt lat="44.48651" lon="1.28359">
        <ele>246.5</ele>
        <time>2023-10-23T13:54:55Z</time>
      </trkpt>
      <trkpt lat="44.48645" lon="1.2836">
        <ele>246.2</ele>
        <time>2023-10-23T13:54:57Z</time>
      </trkpt>
      <trkpt lat="44.48639" lon="1.28362">
        <ele>245.3</ele>
        <time>2023-10-23T13:54:59Z</time>
      </trkpt>
      <trkpt lat="44.48635" lon="1.28365">
        <ele>244.8</ele>
        <time>2023-10-23T13:55:02Z</time>
      </trkpt>
      <trkpt lat="44.4863" lon="1.28369">
        <ele>240.5</ele>
        <time>2023-10-23T13:55:09Z</time>
      </trkpt>
      <trkpt lat="44.48629" lon="1.28361">
        <ele>239.9</ele>
        <time>2023-10-23T13:55:11Z</time>
      </trkpt>
      <trkpt lat="44.48633" lon="1.28358">
        <ele>240</ele>
        <time>2023-10-23T13:55:15Z</time>
      </trkpt>
      <trkpt lat="44.48629" lon="1.28354">
        <ele>239</ele>
        <time>2023-10-23T13:55:24Z</time>
      </trkpt>
      <trkpt lat="44.48625" lon="1.2835">
        <ele>237.5</ele>
        <time>2023-10-23T13:55:28Z</time>
      </trkpt>
      <trkpt lat="44.4862" lon="1.28351">
        <ele>236.5</ele>
        <time>2023-10-23T13:55:32Z</time>
      </trkpt>
      <trkpt lat="44.48615" lon="1.28355">
        <ele>237.5</ele>
        <time>2023-10-23T13:55:36Z</time>
      </trkpt>
      <trkpt lat="44.4861" lon="1.28356">
        <ele>239.4</ele>
        <time>2023-10-23T13:55:40Z</time>
      </trkpt>
      <trkpt lat="44.48605" lon="1.28357">
        <ele>239.8</ele>
        <time>2023-10-23T13:55:44Z</time>
      </trkpt>
      <trkpt lat="44.486" lon="1.28357">
        <ele>241.3</ele>
        <time>2023-10-23T13:55:48Z</time>
      </trkpt>
      <trkpt lat="44.48595" lon="1.28356">
        <ele>242.7</ele>
        <time>2023-10-23T13:55:52Z</time>
      </trkpt>
      <trkpt lat="44.4859" lon="1.28356">
        <ele>243</ele>
        <time>2023-10-23T13:55:57Z</time>
      </trkpt>
      <trkpt lat="44.48584" lon="1.28357">
        <ele>245</ele>
        <time>2023-10-23T13:56:02Z</time>
      </trkpt>
      <trkpt lat="44.48579" lon="1.28356">
        <ele>244.3</ele>
        <time>2023-10-23T13:56:07Z</time>
      </trkpt>
      <trkpt lat="44.48574" lon="1.28356">
        <ele>249</ele>
        <time>2023-10-23T13:56:16Z</time>
      </trkpt>
      <trkpt lat="44.48569" lon="1.28356">
        <ele>247.3</ele>
        <time>2023-10-23T13:56:21Z</time>
      </trkpt>
      <trkpt lat="44.48564" lon="1.28356">
        <ele>246.5</ele>
        <time>2023-10-23T13:56:27Z</time>
      </trkpt>
      <trkpt lat="44.4856" lon="1.28359">
        <ele>248.5</ele>
        <time>2023-10-23T13:56:33Z</time>
      </trkpt>
      <trkpt lat="44.48556" lon="1.28355">
        <ele>250.2</ele>
        <time>2023-10-23T13:57:44Z</time>
      </trkpt>
      <trkpt lat="44.48551" lon="1.28358">
        <ele>250.4</ele>
        <time>2023-10-23T13:58:04Z</time>
      </trkpt>
      <trkpt lat="44.4855" lon="1.28364">
        <ele>248.5</ele>
        <time>2023-10-23T13:58:08Z</time>
      </trkpt>
      <trkpt lat="44.48546" lon="1.28369">
        <ele>247.5</ele>
        <time>2023-10-23T13:59:04Z</time>
      </trkpt>
      <trkpt lat="44.48543" lon="1.28374">
        <ele>249.7</ele>
        <time>2023-10-23T13:59:10Z</time>
      </trkpt>
      <trkpt lat="44.4854" lon="1.28368">
        <ele>249.6</ele>
        <time>2023-10-23T13:59:21Z</time>
      </trkpt>
      <trkpt lat="44.48537" lon="1.28363">
        <ele>248.4</ele>
        <time>2023-10-23T14:01:02Z</time>
      </trkpt>
      <trkpt lat="44.48532" lon="1.28365">
        <ele>250.3</ele>
        <time>2023-10-23T14:01:05Z</time>
      </trkpt>
      <trkpt lat="44.48536" lon="1.28358">
        <ele>254</ele>
        <time>2023-10-23T14:01:09Z</time>
      </trkpt>
      <trkpt lat="44.4854" lon="1.28355">
        <ele>253.8</ele>
        <time>2023-10-23T14:01:10Z</time>
      </trkpt>
      <trkpt lat="44.48544" lon="1.28355">
        <ele>252.5</ele>
        <time>2023-10-23T14:01:16Z</time>
      </trkpt>
      <trkpt lat="44.48549" lon="1.28353">
        <ele>252</ele>
        <time>2023-10-23T14:01:20Z</time>
      </trkpt>
      <trkpt lat="44.48554" lon="1.28354">
        <ele>250.9</ele>
        <time>2023-10-23T14:01:26Z</time>
      </trkpt>
      <trkpt lat="44.48559" lon="1.28353">
        <ele>251.7</ele>
        <time>2023-10-23T14:01:33Z</time>
      </trkpt>
      <trkpt lat="44.48564" lon="1.28354">
        <ele>250.1</ele>
        <time>2023-10-23T14:01:38Z</time>
      </trkpt>
      <trkpt lat="44.48569" lon="1.28354">
        <ele>249</ele>
        <time>2023-10-23T14:01:43Z</time>
      </trkpt>
      <trkpt lat="44.48574" lon="1.28356">
        <ele>248.9</ele>
        <time>2023-10-23T14:01:47Z</time>
      </trkpt>
      <trkpt lat="44.48579" lon="1.28356">
        <ele>249.6</ele>
        <time>2023-10-23T14:01:51Z</time>
      </trkpt>
      <trkpt lat="44.48584" lon="1.28357">
        <ele>249.6</ele>
        <time>2023-10-23T14:01:56Z</time>
      </trkpt>
      <trkpt lat="44.48588" lon="1.2836">
        <ele>249.5</ele>
        <time>2023-10-23T14:02:01Z</time>
      </trkpt>
      <trkpt lat="44.48593" lon="1.28362">
        <ele>249.6</ele>
        <time>2023-10-23T14:02:06Z</time>
      </trkpt>
      <trkpt lat="44.48597" lon="1.28364">
        <ele>249.1</ele>
        <time>2023-10-23T14:02:10Z</time>
      </trkpt>
      <trkpt lat="44.48602" lon="1.28366">
        <ele>248.8</ele>
        <time>2023-10-23T14:02:15Z</time>
      </trkpt>
      <trkpt lat="44.48607" lon="1.28369">
        <ele>249.1</ele>
        <time>2023-10-23T14:02:20Z</time>
      </trkpt>
      <trkpt lat="44.48612" lon="1.28371">
        <ele>248.5</ele>
        <time>2023-10-23T14:02:25Z</time>
      </trkpt>
      <trkpt lat="44.48617" lon="1.28374">
        <ele>247</ele>
        <time>2023-10-23T14:02:29Z</time>
      </trkpt>
      <trkpt lat="44.48622" lon="1.28378">
        <ele>245.6</ele>
        <time>2023-10-23T14:02:34Z</time>
      </trkpt>
      <trkpt lat="44.48627" lon="1.2838">
        <ele>245.1</ele>
        <time>2023-10-23T14:02:39Z</time>
      </trkpt>
      <trkpt lat="44.48632" lon="1.28384">
        <ele>244.7</ele>
        <time>2023-10-23T14:02:44Z</time>
      </trkpt>
      <trkpt lat="44.48637" lon="1.28387">
        <ele>247</ele>
        <time>2023-10-23T14:02:49Z</time>
      </trkpt>
      <trkpt lat="44.48641" lon="1.28388">
        <ele>250.4</ele>
        <time>2023-10-23T14:02:54Z</time>
      </trkpt>
      <trkpt lat="44.48647" lon="1.28388">
        <ele>250.7</ele>
        <time>2023-10-23T14:02:59Z</time>
      </trkpt>
      <trkpt lat="44.48652" lon="1.28389">
        <ele>251.1</ele>
        <time>2023-10-23T14:03:04Z</time>
      </trkpt>
      <trkpt lat="44.48657" lon="1.28388">
        <ele>251.1</ele>
        <time>2023-10-23T14:03:08Z</time>
      </trkpt>
      <trkpt lat="44.48662" lon="1.28389">
        <ele>252.4</ele>
        <time>2023-10-23T14:03:13Z</time>
      </trkpt>
      <trkpt lat="44.48668" lon="1.28389">
        <ele>253.9</ele>
        <time>2023-10-23T14:03:18Z</time>
      </trkpt>
      <trkpt lat="44.48673" lon="1.28391">
        <ele>252.9</ele>
        <time>2023-10-23T14:03:23Z</time>
      </trkpt>
      <trkpt lat="44.48677" lon="1.28392">
        <ele>252.3</ele>
        <time>2023-10-23T14:03:28Z</time>
      </trkpt>
      <trkpt lat="44.48682" lon="1.28391">
        <ele>252.6</ele>
        <time>2023-10-23T14:03:33Z</time>
      </trkpt>
      <trkpt lat="44.48687" lon="1.28391">
        <ele>251.7</ele>
        <time>2023-10-23T14:03:38Z</time>
      </trkpt>
      <trkpt lat="44.48692" lon="1.28391">
        <ele>251.8</ele>
        <time>2023-10-23T14:03:43Z</time>
      </trkpt>
      <trkpt lat="44.48697" lon="1.28391">
        <ele>252.3</ele>
        <time>2023-10-23T14:03:48Z</time>
      </trkpt>
      <trkpt lat="44.48702" lon="1.2839">
        <ele>250.2</ele>
        <time>2023-10-23T14:03:53Z</time>
      </trkpt>
      <trkpt lat="44.48706" lon="1.28388">
        <ele>249.8</ele>
        <time>2023-10-23T14:03:58Z</time>
      </trkpt>
      <trkpt lat="44.4871" lon="1.28392">
        <ele>252.2</ele>
        <time>2023-10-23T14:04:04Z</time>
      </trkpt>
      <trkpt lat="44.48715" lon="1.28395">
        <ele>253</ele>
        <time>2023-10-23T14:04:09Z</time>
      </trkpt>
      <trkpt lat="44.48719" lon="1.28399">
        <ele>255.1</ele>
        <time>2023-10-23T14:04:15Z</time>
      </trkpt>
      <trkpt lat="44.48724" lon="1.284">
        <ele>256.1</ele>
        <time>2023-10-23T14:04:21Z</time>
      </trkpt>
      <trkpt lat="44.48729" lon="1.284">
        <ele>256.5</ele>
        <time>2023-10-23T14:04:26Z</time>
      </trkpt>
      <trkpt lat="44.48734" lon="1.284">
        <ele>255.9</ele>
        <time>2023-10-23T14:04:30Z</time>
      </trkpt>
      <trkpt lat="44.4874" lon="1.284">
        <ele>257.8</ele>
        <time>2023-10-23T14:04:35Z</time>
      </trkpt>
      <trkpt lat="44.48745" lon="1.28399">
        <ele>257.1</ele>
        <time>2023-10-23T14:04:40Z</time>
      </trkpt>
      <trkpt lat="44.4875" lon="1.28401">
        <ele>255.5</ele>
        <time>2023-10-23T14:04:45Z</time>
      </trkpt>
      <trkpt lat="44.48755" lon="1.28403">
        <ele>253.6</ele>
        <time>2023-10-23T14:04:50Z</time>
      </trkpt>
      <trkpt lat="44.4876" lon="1.28405">
        <ele>256.7</ele>
        <time>2023-10-23T14:04:55Z</time>
      </trkpt>
      <trkpt lat="44.48765" lon="1.28407">
        <ele>256.2</ele>
        <time>2023-10-23T14:05:00Z</time>
      </trkpt>
      <trkpt lat="44.4877" lon="1.28408">
        <ele>254.7</ele>
        <time>2023-10-23T14:05:04Z</time>
      </trkpt>
      <trkpt lat="44.48775" lon="1.28409">
        <ele>253.8</ele>
        <time>2023-10-23T14:05:08Z</time>
      </trkpt>
      <trkpt lat="44.4878" lon="1.28409">
        <ele>253.3</ele>
        <time>2023-10-23T14:05:12Z</time>
      </trkpt>
      <trkpt lat="44.48785" lon="1.2841">
        <ele>249.8</ele>
        <time>2023-10-23T14:05:16Z</time>
      </trkpt>
      <trkpt lat="44.4879" lon="1.28411">
        <ele>249.2</ele>
        <time>2023-10-23T14:05:21Z</time>
      </trkpt>
      <trkpt lat="44.48795" lon="1.28413">
        <ele>249.1</ele>
        <time>2023-10-23T14:05:26Z</time>
      </trkpt>
      <trkpt lat="44.488" lon="1.28413">
        <ele>250.4</ele>
        <time>2023-10-23T14:05:31Z</time>
      </trkpt>
      <trkpt lat="44.48804" lon="1.28419">
        <ele>249.3</ele>
        <time>2023-10-23T14:05:35Z</time>
      </trkpt>
      <trkpt lat="44.4881" lon="1.2842">
        <ele>248</ele>
        <time>2023-10-23T14:05:39Z</time>
      </trkpt>
      <trkpt lat="44.48815" lon="1.2842">
        <ele>250.3</ele>
        <time>2023-10-23T14:05:44Z</time>
      </trkpt>
      <trkpt lat="44.4882" lon="1.28419">
        <ele>252.1</ele>
        <time>2023-10-23T14:05:49Z</time>
      </trkpt>
      <trkpt lat="44.48826" lon="1.28419">
        <ele>254.2</ele>
        <time>2023-10-23T14:05:54Z</time>
      </trkpt>
      <trkpt lat="44.4883" lon="1.28417">
        <ele>253</ele>
        <time>2023-10-23T14:05:58Z</time>
      </trkpt>
      <trkpt lat="44.48836" lon="1.28415">
        <ele>251.8</ele>
        <time>2023-10-23T14:06:03Z</time>
      </trkpt>
      <trkpt lat="44.4884" lon="1.28416">
        <ele>253.2</ele>
        <time>2023-10-23T14:06:08Z</time>
      </trkpt>
      <trkpt lat="44.48845" lon="1.28417">
        <ele>254.3</ele>
        <time>2023-10-23T14:06:13Z</time>
      </trkpt>
      <trkpt lat="44.4885" lon="1.2842">
        <ele>256.4</ele>
        <time>2023-10-23T14:06:18Z</time>
      </trkpt>
      <trkpt lat="44.48854" lon="1.28424">
        <ele>256.5</ele>
        <time>2023-10-23T14:06:24Z</time>
      </trkpt>
      <trkpt lat="44.48859" lon="1.28425">
        <ele>258.9</ele>
        <time>2023-10-23T14:06:30Z</time>
      </trkpt>
      <trkpt lat="44.48864" lon="1.28427">
        <ele>259.3</ele>
        <time>2023-10-23T14:06:36Z</time>
      </trkpt>
      <trkpt lat="44.48868" lon="1.28426">
        <ele>257.3</ele>
        <time>2023-10-23T14:06:56Z</time>
      </trkpt>
      <trkpt lat="44.48872" lon="1.2843">
        <ele>253</ele>
        <time>2023-10-23T14:06:59Z</time>
      </trkpt>
      <trkpt lat="44.48877" lon="1.2843">
        <ele>253.2</ele>
        <time>2023-10-23T14:07:06Z</time>
      </trkpt>
      <trkpt lat="44.48881" lon="1.28429">
        <ele>259.4</ele>
        <time>2023-10-23T14:07:11Z</time>
      </trkpt>
      <trkpt lat="44.48886" lon="1.28431">
        <ele>261.2</ele>
        <time>2023-10-23T14:07:16Z</time>
      </trkpt>
      <trkpt lat="44.48891" lon="1.28431">
        <ele>262.2</ele>
        <time>2023-10-23T14:07:21Z</time>
      </trkpt>
      <trkpt lat="44.48895" lon="1.28434">
        <ele>265.3</ele>
        <time>2023-10-23T14:07:27Z</time>
      </trkpt>
      <trkpt lat="44.489" lon="1.28435">
        <ele>265.6</ele>
        <time>2023-10-23T14:07:31Z</time>
      </trkpt>
      <trkpt lat="44.48905" lon="1.28434">
        <ele>265.8</ele>
        <time>2023-10-23T14:07:36Z</time>
      </trkpt>
      <trkpt lat="44.48909" lon="1.28437">
        <ele>266.4</ele>
        <time>2023-10-23T14:07:40Z</time>
      </trkpt>
      <trkpt lat="44.48914" lon="1.2844">
        <ele>266.6</ele>
        <time>2023-10-23T14:07:43Z</time>
      </trkpt>
      <trkpt lat="44.48918" lon="1.28442">
        <ele>264.9</ele>
        <time>2023-10-23T14:07:46Z</time>
      </trkpt>
      <trkpt lat="44.48923" lon="1.28443">
        <ele>264.8</ele>
        <time>2023-10-23T14:07:50Z</time>
      </trkpt>
      <trkpt lat="44.48928" lon="1.28443">
        <ele>264.5</ele>
        <time>2023-10-23T14:07:55Z</time>
      </trkpt>
      <trkpt lat="44.48933" lon="1.28444">
        <ele>263.5</ele>
        <time>2023-10-23T14:08:00Z</time>
      </trkpt>
      <trkpt lat="44.48939" lon="1.28446">
        <ele>262.1</ele>
        <time>2023-10-23T14:08:05Z</time>
      </trkpt>
      <trkpt lat="44.48945" lon="1.28448">
        <ele>258.4</ele>
        <time>2023-10-23T14:08:08Z</time>
      </trkpt>
      <trkpt lat="44.4895" lon="1.28451">
        <ele>258</ele>
        <time>2023-10-23T14:08:12Z</time>
      </trkpt>
      <trkpt lat="44.48956" lon="1.28451">
        <ele>258.4</ele>
        <time>2023-10-23T14:08:17Z</time>
      </trkpt>
      <trkpt lat="44.48961" lon="1.28453">
        <ele>258.9</ele>
        <time>2023-10-23T14:08:22Z</time>
      </trkpt>
      <trkpt lat="44.48966" lon="1.28452">
        <ele>262.6</ele>
        <time>2023-10-23T14:08:27Z</time>
      </trkpt>
      <trkpt lat="44.48971" lon="1.28455">
        <ele>262.9</ele>
        <time>2023-10-23T14:08:32Z</time>
      </trkpt>
      <trkpt lat="44.48975" lon="1.28458">
        <ele>263</ele>
        <time>2023-10-23T14:08:36Z</time>
      </trkpt>
      <trkpt lat="44.4898" lon="1.28461">
        <ele>262.5</ele>
        <time>2023-10-23T14:08:41Z</time>
      </trkpt>
      <trkpt lat="44.48985" lon="1.28464">
        <ele>261.9</ele>
        <time>2023-10-23T14:08:46Z</time>
      </trkpt>
      <trkpt lat="44.48989" lon="1.28467">
        <ele>261.3</ele>
        <time>2023-10-23T14:08:50Z</time>
      </trkpt>
      <trkpt lat="44.48994" lon="1.2847">
        <ele>261.8</ele>
        <time>2023-10-23T14:08:55Z</time>
      </trkpt>
      <trkpt lat="44.48999" lon="1.28472">
        <ele>263.3</ele>
        <time>2023-10-23T14:08:59Z</time>
      </trkpt>
      <trkpt lat="44.49003" lon="1.28474">
        <ele>262.7</ele>
        <time>2023-10-23T14:09:03Z</time>
      </trkpt>
      <trkpt lat="44.49008" lon="1.28477">
        <ele>263.2</ele>
        <time>2023-10-23T14:09:08Z</time>
      </trkpt>
      <trkpt lat="44.49011" lon="1.28482">
        <ele>262.1</ele>
        <time>2023-10-23T14:09:13Z</time>
      </trkpt>
      <trkpt lat="44.49016" lon="1.28481">
        <ele>261.9</ele>
        <time>2023-10-23T14:09:18Z</time>
      </trkpt>
      <trkpt lat="44.49021" lon="1.28483">
        <ele>263.8</ele>
        <time>2023-10-23T14:09:23Z</time>
      </trkpt>
      <trkpt lat="44.49026" lon="1.28486">
        <ele>262.5</ele>
        <time>2023-10-23T14:09:28Z</time>
      </trkpt>
      <trkpt lat="44.49031" lon="1.28488">
        <ele>262.2</ele>
        <time>2023-10-23T14:09:32Z</time>
      </trkpt>
      <trkpt lat="44.49036" lon="1.28488">
        <ele>259.8</ele>
        <time>2023-10-23T14:09:36Z</time>
      </trkpt>
      <trkpt lat="44.49041" lon="1.2849">
        <ele>259.6</ele>
        <time>2023-10-23T14:09:41Z</time>
      </trkpt>
      <trkpt lat="44.49046" lon="1.28494">
        <ele>258.8</ele>
        <time>2023-10-23T14:09:46Z</time>
      </trkpt>
      <trkpt lat="44.49051" lon="1.28496">
        <ele>257.4</ele>
        <time>2023-10-23T14:09:50Z</time>
      </trkpt>
      <trkpt lat="44.49056" lon="1.28498">
        <ele>254.8</ele>
        <time>2023-10-23T14:09:55Z</time>
      </trkpt>
      <trkpt lat="44.49058" lon="1.28492">
        <ele>252.7</ele>
        <time>2023-10-23T14:10:02Z</time>
      </trkpt>
      <trkpt lat="44.49062" lon="1.28487">
        <ele>251.5</ele>
        <time>2023-10-23T14:10:08Z</time>
      </trkpt>
      <trkpt lat="44.49066" lon="1.28486">
        <ele>254.2</ele>
        <time>2023-10-23T14:12:09Z</time>
      </trkpt>
      <trkpt lat="44.4907" lon="1.28482">
        <ele>253</ele>
        <time>2023-10-23T14:12:15Z</time>
      </trkpt>
      <trkpt lat="44.49075" lon="1.28479">
        <ele>253.6</ele>
        <time>2023-10-23T14:12:23Z</time>
      </trkpt>
      <trkpt lat="44.49079" lon="1.28477">
        <ele>254.6</ele>
        <time>2023-10-23T14:12:28Z</time>
      </trkpt>
      <trkpt lat="44.49084" lon="1.28475">
        <ele>252.4</ele>
        <time>2023-10-23T14:12:34Z</time>
      </trkpt>
      <trkpt lat="44.49088" lon="1.28473">
        <ele>253.2</ele>
        <time>2023-10-23T14:21:10Z</time>
      </trkpt>
      <trkpt lat="44.49093" lon="1.28475">
        <ele>253.5</ele>
        <time>2023-10-23T14:21:14Z</time>
      </trkpt>
      <trkpt lat="44.49098" lon="1.28476">
        <ele>253.7</ele>
        <time>2023-10-23T14:21:19Z</time>
      </trkpt>
      <trkpt lat="44.49103" lon="1.28474">
        <ele>256.4</ele>
        <time>2023-10-23T14:21:24Z</time>
      </trkpt>
      <trkpt lat="44.49107" lon="1.28471">
        <ele>260</ele>
        <time>2023-10-23T14:21:29Z</time>
      </trkpt>
      <trkpt lat="44.49112" lon="1.28469">
        <ele>262.2</ele>
        <time>2023-10-23T14:21:35Z</time>
      </trkpt>
      <trkpt lat="44.49116" lon="1.28466">
        <ele>264.2</ele>
        <time>2023-10-23T14:21:40Z</time>
      </trkpt>
      <trkpt lat="44.49121" lon="1.28462">
        <ele>266.7</ele>
        <time>2023-10-23T14:21:46Z</time>
      </trkpt>
      <trkpt lat="44.49125" lon="1.28458">
        <ele>268.2</ele>
        <time>2023-10-23T14:21:51Z</time>
      </trkpt>
      <trkpt lat="44.4913" lon="1.28454">
        <ele>267.8</ele>
        <time>2023-10-23T14:21:56Z</time>
      </trkpt>
      <trkpt lat="44.49135" lon="1.2845">
        <ele>263.5</ele>
        <time>2023-10-23T14:21:59Z</time>
      </trkpt>
      <trkpt lat="44.49139" lon="1.28447">
        <ele>261.8</ele>
        <time>2023-10-23T14:22:02Z</time>
      </trkpt>
      <trkpt lat="44.49143" lon="1.28441">
        <ele>259.7</ele>
        <time>2023-10-23T14:22:06Z</time>
      </trkpt>
      <trkpt lat="44.49148" lon="1.28438">
        <ele>260.4</ele>
        <time>2023-10-23T14:22:11Z</time>
      </trkpt>
      <trkpt lat="44.49152" lon="1.28434">
        <ele>258.4</ele>
        <time>2023-10-23T14:22:15Z</time>
      </trkpt>
      <trkpt lat="44.49156" lon="1.28432">
        <ele>257.7</ele>
        <time>2023-10-23T14:22:19Z</time>
      </trkpt>
      <trkpt lat="44.4916" lon="1.28428">
        <ele>258.8</ele>
        <time>2023-10-23T14:22:27Z</time>
      </trkpt>
      <trkpt lat="44.49164" lon="1.28424">
        <ele>262.6</ele>
        <time>2023-10-23T14:22:34Z</time>
      </trkpt>
      <trkpt lat="44.49167" lon="1.28419">
        <ele>263.5</ele>
        <time>2023-10-23T14:22:38Z</time>
      </trkpt>
      <trkpt lat="44.49171" lon="1.28415">
        <ele>265.9</ele>
        <time>2023-10-23T14:22:43Z</time>
      </trkpt>
      <trkpt lat="44.49175" lon="1.28411">
        <ele>268.6</ele>
        <time>2023-10-23T14:22:48Z</time>
      </trkpt>
      <trkpt lat="44.49179" lon="1.28407">
        <ele>269.2</ele>
        <time>2023-10-23T14:22:54Z</time>
      </trkpt>
      <trkpt lat="44.49183" lon="1.28402">
        <ele>269.4</ele>
        <time>2023-10-23T14:22:59Z</time>
      </trkpt>
      <trkpt lat="44.49187" lon="1.28399">
        <ele>269.5</ele>
        <time>2023-10-23T14:23:03Z</time>
      </trkpt>
      <trkpt lat="44.49191" lon="1.28395">
        <ele>270</ele>
        <time>2023-10-23T14:23:08Z</time>
      </trkpt>
      <trkpt lat="44.49195" lon="1.2839">
        <ele>271.1</ele>
        <time>2023-10-23T14:23:13Z</time>
      </trkpt>
      <trkpt lat="44.492" lon="1.28387">
        <ele>271.9</ele>
        <time>2023-10-23T14:23:18Z</time>
      </trkpt>
      <trkpt lat="44.49204" lon="1.28385">
        <ele>271.9</ele>
        <time>2023-10-23T14:23:23Z</time>
      </trkpt>
      <trkpt lat="44.49209" lon="1.28383">
        <ele>272.9</ele>
        <time>2023-10-23T14:23:28Z</time>
      </trkpt>
      <trkpt lat="44.49214" lon="1.28381">
        <ele>273.1</ele>
        <time>2023-10-23T14:23:33Z</time>
      </trkpt>
      <trkpt lat="44.49219" lon="1.2838">
        <ele>273.3</ele>
        <time>2023-10-23T14:23:38Z</time>
      </trkpt>
      <trkpt lat="44.49224" lon="1.28378">
        <ele>273.5</ele>
        <time>2023-10-23T14:23:43Z</time>
      </trkpt>
      <trkpt lat="44.4923" lon="1.28375">
        <ele>273</ele>
        <time>2023-10-23T14:23:47Z</time>
      </trkpt>
      <trkpt lat="44.49235" lon="1.28372">
        <ele>270.8</ele>
        <time>2023-10-23T14:23:52Z</time>
      </trkpt>
      <trkpt lat="44.49239" lon="1.2837">
        <ele>272.5</ele>
        <time>2023-10-23T14:23:58Z</time>
      </trkpt>
      <trkpt lat="44.49244" lon="1.28367">
        <ele>274.4</ele>
        <time>2023-10-23T14:24:05Z</time>
      </trkpt>
      <trkpt lat="44.49249" lon="1.28366">
        <ele>273.7</ele>
        <time>2023-10-23T14:24:10Z</time>
      </trkpt>
      <trkpt lat="44.49254" lon="1.28363">
        <ele>272.8</ele>
        <time>2023-10-23T14:24:15Z</time>
      </trkpt>
      <trkpt lat="44.49258" lon="1.28361">
        <ele>272.1</ele>
        <time>2023-10-23T14:24:19Z</time>
      </trkpt>
      <trkpt lat="44.49264" lon="1.28359">
        <ele>274.5</ele>
        <time>2023-10-23T14:24:24Z</time>
      </trkpt>
      <trkpt lat="44.49268" lon="1.28355">
        <ele>275.1</ele>
        <time>2023-10-23T14:24:29Z</time>
      </trkpt>
      <trkpt lat="44.49273" lon="1.28352">
        <ele>277.8</ele>
        <time>2023-10-23T14:24:34Z</time>
      </trkpt>
      <trkpt lat="44.49278" lon="1.2835">
        <ele>279.9</ele>
        <time>2023-10-23T14:24:40Z</time>
      </trkpt>
      <trkpt lat="44.49283" lon="1.28347">
        <ele>280.8</ele>
        <time>2023-10-23T14:24:45Z</time>
      </trkpt>
      <trkpt lat="44.49288" lon="1.28345">
        <ele>281.1</ele>
        <time>2023-10-23T14:24:49Z</time>
      </trkpt>
      <trkpt lat="44.49293" lon="1.28345">
        <ele>278</ele>
        <time>2023-10-23T14:24:54Z</time>
      </trkpt>
      <trkpt lat="44.49299" lon="1.28342">
        <ele>277.6</ele>
        <time>2023-10-23T14:24:59Z</time>
      </trkpt>
      <trkpt lat="44.49303" lon="1.28339">
        <ele>277.8</ele>
        <time>2023-10-23T14:25:04Z</time>
      </trkpt>
      <trkpt lat="44.49307" lon="1.28335">
        <ele>277.8</ele>
        <time>2023-10-23T14:25:08Z</time>
      </trkpt>
      <trkpt lat="44.49312" lon="1.28333">
        <ele>275.9</ele>
        <time>2023-10-23T14:25:12Z</time>
      </trkpt>
      <trkpt lat="44.49317" lon="1.28331">
        <ele>277.6</ele>
        <time>2023-10-23T14:25:17Z</time>
      </trkpt>
      <trkpt lat="44.49321" lon="1.28329">
        <ele>277.9</ele>
        <time>2023-10-23T14:25:22Z</time>
      </trkpt>
      <trkpt lat="44.49326" lon="1.28325">
        <ele>278.1</ele>
        <time>2023-10-23T14:25:27Z</time>
      </trkpt>
      <trkpt lat="44.4933" lon="1.28322">
        <ele>278.3</ele>
        <time>2023-10-23T14:25:31Z</time>
      </trkpt>
      <trkpt lat="44.49334" lon="1.28318">
        <ele>278.4</ele>
        <time>2023-10-23T14:25:35Z</time>
      </trkpt>
      <trkpt lat="44.49338" lon="1.28315">
        <ele>277.9</ele>
        <time>2023-10-23T14:25:39Z</time>
      </trkpt>
      <trkpt lat="44.49343" lon="1.28312">
        <ele>278.7</ele>
        <time>2023-10-23T14:25:44Z</time>
      </trkpt>
      <trkpt lat="44.49348" lon="1.2831">
        <ele>278.6</ele>
        <time>2023-10-23T14:25:49Z</time>
      </trkpt>
      <trkpt lat="44.49353" lon="1.28307">
        <ele>278.5</ele>
        <time>2023-10-23T14:25:54Z</time>
      </trkpt>
      <trkpt lat="44.49358" lon="1.28305">
        <ele>277.6</ele>
        <time>2023-10-23T14:25:59Z</time>
      </trkpt>
      <trkpt lat="44.49362" lon="1.28301">
        <ele>277.6</ele>
        <time>2023-10-23T14:26:04Z</time>
      </trkpt>
      <trkpt lat="44.49367" lon="1.28296">
        <ele>275.1</ele>
        <time>2023-10-23T14:26:08Z</time>
      </trkpt>
      <trkpt lat="44.49372" lon="1.28293">
        <ele>273.3</ele>
        <time>2023-10-23T14:26:12Z</time>
      </trkpt>
      <trkpt lat="44.49376" lon="1.28291">
        <ele>273.2</ele>
        <time>2023-10-23T14:26:16Z</time>
      </trkpt>
      <trkpt lat="44.4938" lon="1.28285">
        <ele>274.1</ele>
        <time>2023-10-23T14:26:21Z</time>
      </trkpt>
      <trkpt lat="44.49385" lon="1.28282">
        <ele>272.4</ele>
        <time>2023-10-23T14:26:25Z</time>
      </trkpt>
      <trkpt lat="44.4939" lon="1.28278">
        <ele>267.9</ele>
        <time>2023-10-23T14:26:33Z</time>
      </trkpt>
      <trkpt lat="44.4939" lon="1.28272">
        <ele>267.4</ele>
        <time>2023-10-23T14:26:39Z</time>
      </trkpt>
      <trkpt lat="44.49395" lon="1.28271">
        <ele>263.9</ele>
        <time>2023-10-23T14:27:29Z</time>
      </trkpt>
      <trkpt lat="44.49396" lon="1.28264">
        <ele>264.7</ele>
        <time>2023-10-23T14:28:19Z</time>
      </trkpt>
      <trkpt lat="44.49401" lon="1.28262">
        <ele>265.4</ele>
        <time>2023-10-23T14:28:22Z</time>
      </trkpt>
      <trkpt lat="44.49405" lon="1.2826">
        <ele>266.5</ele>
        <time>2023-10-23T14:28:26Z</time>
      </trkpt>
      <trkpt lat="44.4941" lon="1.28258">
        <ele>268.6</ele>
        <time>2023-10-23T14:28:31Z</time>
      </trkpt>
      <trkpt lat="44.49415" lon="1.28256">
        <ele>269.4</ele>
        <time>2023-10-23T14:28:35Z</time>
      </trkpt>
      <trkpt lat="44.49419" lon="1.28253">
        <ele>270</ele>
        <time>2023-10-23T14:28:39Z</time>
      </trkpt>
      <trkpt lat="44.49424" lon="1.28249">
        <ele>271.7</ele>
        <time>2023-10-23T14:28:45Z</time>
      </trkpt>
      <trkpt lat="44.49428" lon="1.28246">
        <ele>271.9</ele>
        <time>2023-10-23T14:28:50Z</time>
      </trkpt>
      <trkpt lat="44.49433" lon="1.28242">
        <ele>272.1</ele>
        <time>2023-10-23T14:28:55Z</time>
      </trkpt>
      <trkpt lat="44.49437" lon="1.28239">
        <ele>274.1</ele>
        <time>2023-10-23T14:29:00Z</time>
      </trkpt>
      <trkpt lat="44.49442" lon="1.28237">
        <ele>274.1</ele>
        <time>2023-10-23T14:29:05Z</time>
      </trkpt>
      <trkpt lat="44.49447" lon="1.28234">
        <ele>275.4</ele>
        <time>2023-10-23T14:29:10Z</time>
      </trkpt>
      <trkpt lat="44.49452" lon="1.2823">
        <ele>277.9</ele>
        <time>2023-10-23T14:29:15Z</time>
      </trkpt>
      <trkpt lat="44.49457" lon="1.28227">
        <ele>275.8</ele>
        <time>2023-10-23T14:29:19Z</time>
      </trkpt>
      <trkpt lat="44.49462" lon="1.28225">
        <ele>272.2</ele>
        <time>2023-10-23T14:29:26Z</time>
      </trkpt>
      <trkpt lat="44.49467" lon="1.28223">
        <ele>270.1</ele>
        <time>2023-10-23T14:29:33Z</time>
      </trkpt>
      <trkpt lat="44.49471" lon="1.28221">
        <ele>272.9</ele>
        <time>2023-10-23T14:29:39Z</time>
      </trkpt>
      <trkpt lat="44.49476" lon="1.28217">
        <ele>274</ele>
        <time>2023-10-23T14:29:44Z</time>
      </trkpt>
      <trkpt lat="44.4948" lon="1.28214">
        <ele>276.1</ele>
        <time>2023-10-23T14:29:50Z</time>
      </trkpt>
      <trkpt lat="44.49484" lon="1.2821">
        <ele>277.3</ele>
        <time>2023-10-23T14:29:56Z</time>
      </trkpt>
      <trkpt lat="44.49488" lon="1.28206">
        <ele>279</ele>
        <time>2023-10-23T14:30:02Z</time>
      </trkpt>
      <trkpt lat="44.49492" lon="1.28203">
        <ele>280.2</ele>
        <time>2023-10-23T14:30:07Z</time>
      </trkpt>
      <trkpt lat="44.49496" lon="1.28199">
        <ele>281.7</ele>
        <time>2023-10-23T14:30:13Z</time>
      </trkpt>
      <trkpt lat="44.495" lon="1.28195">
        <ele>282.5</ele>
        <time>2023-10-23T14:30:19Z</time>
      </trkpt>
      <trkpt lat="44.49504" lon="1.28192">
        <ele>283</ele>
        <time>2023-10-23T14:30:24Z</time>
      </trkpt>
      <trkpt lat="44.49508" lon="1.28188">
        <ele>285.1</ele>
        <time>2023-10-23T14:30:29Z</time>
      </trkpt>
      <trkpt lat="44.49512" lon="1.28183">
        <ele>284.2</ele>
        <time>2023-10-23T14:30:34Z</time>
      </trkpt>
      <trkpt lat="44.49516" lon="1.28178">
        <ele>284.3</ele>
        <time>2023-10-23T14:30:38Z</time>
      </trkpt>
      <trkpt lat="44.4952" lon="1.28173">
        <ele>285.3</ele>
        <time>2023-10-23T14:30:43Z</time>
      </trkpt>
      <trkpt lat="44.49524" lon="1.28167">
        <ele>284.9</ele>
        <time>2023-10-23T14:30:47Z</time>
      </trkpt>
      <trkpt lat="44.49527" lon="1.28163">
        <ele>285.6</ele>
        <time>2023-10-23T14:30:51Z</time>
      </trkpt>
      <trkpt lat="44.49531" lon="1.28159">
        <ele>286.7</ele>
        <time>2023-10-23T14:30:56Z</time>
      </trkpt>
      <trkpt lat="44.49535" lon="1.28153">
        <ele>286.1</ele>
        <time>2023-10-23T14:31:01Z</time>
      </trkpt>
      <trkpt lat="44.49538" lon="1.28148">
        <ele>285.8</ele>
        <time>2023-10-23T14:31:05Z</time>
      </trkpt>
      <trkpt lat="44.49541" lon="1.28142">
        <ele>284.3</ele>
        <time>2023-10-23T14:31:10Z</time>
      </trkpt>
      <trkpt lat="44.49545" lon="1.28138">
        <ele>282.9</ele>
        <time>2023-10-23T14:31:14Z</time>
      </trkpt>
      <trkpt lat="44.49549" lon="1.28133">
        <ele>283.9</ele>
        <time>2023-10-23T14:31:19Z</time>
      </trkpt>
      <trkpt lat="44.49553" lon="1.28128">
        <ele>283.3</ele>
        <time>2023-10-23T14:31:24Z</time>
      </trkpt>
      <trkpt lat="44.49557" lon="1.28123">
        <ele>284.2</ele>
        <time>2023-10-23T14:31:29Z</time>
      </trkpt>
      <trkpt lat="44.49561" lon="1.2812">
        <ele>285.5</ele>
        <time>2023-10-23T14:31:34Z</time>
      </trkpt>
      <trkpt lat="44.49566" lon="1.28117">
        <ele>287.3</ele>
        <time>2023-10-23T14:31:39Z</time>
      </trkpt>
      <trkpt lat="44.4957" lon="1.28111">
        <ele>284.5</ele>
        <time>2023-10-23T14:31:50Z</time>
      </trkpt>
      <trkpt lat="44.49574" lon="1.28105">
        <ele>288.1</ele>
        <time>2023-10-23T14:31:53Z</time>
      </trkpt>
      <trkpt lat="44.49579" lon="1.28105">
        <ele>293.4</ele>
        <time>2023-10-23T14:32:01Z</time>
      </trkpt>
      <trkpt lat="44.49582" lon="1.281">
        <ele>291.8</ele>
        <time>2023-10-23T14:32:05Z</time>
      </trkpt>
      <trkpt lat="44.49587" lon="1.28098">
        <ele>292.4</ele>
        <time>2023-10-23T14:32:09Z</time>
      </trkpt>
      <trkpt lat="44.49592" lon="1.28096">
        <ele>290.9</ele>
        <time>2023-10-23T14:32:13Z</time>
      </trkpt>
      <trkpt lat="44.49596" lon="1.28094">
        <ele>291.2</ele>
        <time>2023-10-23T14:32:17Z</time>
      </trkpt>
      <trkpt lat="44.49601" lon="1.28092">
        <ele>290.3</ele>
        <time>2023-10-23T14:32:22Z</time>
      </trkpt>
      <trkpt lat="44.49606" lon="1.28088">
        <ele>289.7</ele>
        <time>2023-10-23T14:32:26Z</time>
      </trkpt>
      <trkpt lat="44.4961" lon="1.28085">
        <ele>290.1</ele>
        <time>2023-10-23T14:32:30Z</time>
      </trkpt>
      <trkpt lat="44.49614" lon="1.2808">
        <ele>289.2</ele>
        <time>2023-10-23T14:32:33Z</time>
      </trkpt>
      <trkpt lat="44.49619" lon="1.28076">
        <ele>287.1</ele>
        <time>2023-10-23T14:32:38Z</time>
      </trkpt>
      <trkpt lat="44.49624" lon="1.28073">
        <ele>287.2</ele>
        <time>2023-10-23T14:32:42Z</time>
      </trkpt>
      <trkpt lat="44.49628" lon="1.28071">
        <ele>287.1</ele>
        <time>2023-10-23T14:32:46Z</time>
      </trkpt>
      <trkpt lat="44.49633" lon="1.28067">
        <ele>284.7</ele>
        <time>2023-10-23T14:32:51Z</time>
      </trkpt>
      <trkpt lat="44.49637" lon="1.28063">
        <ele>284.1</ele>
        <time>2023-10-23T14:32:56Z</time>
      </trkpt>
      <trkpt lat="44.49641" lon="1.28058">
        <ele>282.7</ele>
        <time>2023-10-23T14:33:01Z</time>
      </trkpt>
      <trkpt lat="44.49645" lon="1.28054">
        <ele>283.2</ele>
        <time>2023-10-23T14:33:05Z</time>
      </trkpt>
      <trkpt lat="44.4965" lon="1.28051">
        <ele>285.4</ele>
        <time>2023-10-23T14:33:10Z</time>
      </trkpt>
      <trkpt lat="44.49655" lon="1.28047">
        <ele>287.3</ele>
        <time>2023-10-23T14:33:15Z</time>
      </trkpt>
      <trkpt lat="44.49659" lon="1.28044">
        <ele>286.4</ele>
        <time>2023-10-23T14:33:19Z</time>
      </trkpt>
      <trkpt lat="44.49664" lon="1.28039">
        <ele>285.9</ele>
        <time>2023-10-23T14:33:23Z</time>
      </trkpt>
      <trkpt lat="44.49668" lon="1.28036">
        <ele>284.8</ele>
        <time>2023-10-23T14:33:27Z</time>
      </trkpt>
      <trkpt lat="44.49673" lon="1.28036">
        <ele>281.3</ele>
        <time>2023-10-23T14:33:31Z</time>
      </trkpt>
      <trkpt lat="44.49677" lon="1.28036">
        <ele>280.6</ele>
        <time>2023-10-23T14:33:36Z</time>
      </trkpt>
      <trkpt lat="44.49682" lon="1.28039">
        <ele>277.3</ele>
        <time>2023-10-23T14:33:48Z</time>
      </trkpt>
      <trkpt lat="44.49686" lon="1.28041">
        <ele>277.2</ele>
        <time>2023-10-23T14:33:59Z</time>
      </trkpt>
      <trkpt lat="44.4969" lon="1.28043">
        <ele>279.1</ele>
        <time>2023-10-23T14:34:04Z</time>
      </trkpt>
      <trkpt lat="44.49695" lon="1.28047">
        <ele>280.5</ele>
        <time>2023-10-23T14:34:10Z</time>
      </trkpt>
      <trkpt lat="44.49698" lon="1.28051">
        <ele>281.8</ele>
        <time>2023-10-23T14:34:15Z</time>
      </trkpt>
      <trkpt lat="44.49703" lon="1.28055">
        <ele>282.4</ele>
        <time>2023-10-23T14:34:21Z</time>
      </trkpt>
      <trkpt lat="44.49706" lon="1.2806">
        <ele>284</ele>
        <time>2023-10-23T14:34:26Z</time>
      </trkpt>
      <trkpt lat="44.4971" lon="1.28065">
        <ele>284.1</ele>
        <time>2023-10-23T14:34:30Z</time>
      </trkpt>
      <trkpt lat="44.49713" lon="1.2807">
        <ele>286.7</ele>
        <time>2023-10-23T14:34:36Z</time>
      </trkpt>
      <trkpt lat="44.49716" lon="1.28075">
        <ele>288.2</ele>
        <time>2023-10-23T14:34:42Z</time>
      </trkpt>
      <trkpt lat="44.4972" lon="1.2808">
        <ele>288.5</ele>
        <time>2023-10-23T14:34:46Z</time>
      </trkpt>
      <trkpt lat="44.49725" lon="1.28086">
        <ele>285.1</ele>
        <time>2023-10-23T14:34:49Z</time>
      </trkpt>
      <trkpt lat="44.49728" lon="1.28093">
        <ele>281.1</ele>
        <time>2023-10-23T14:34:52Z</time>
      </trkpt>
      <trkpt lat="44.49732" lon="1.28098">
        <ele>280.9</ele>
        <time>2023-10-23T14:34:56Z</time>
      </trkpt>
      <trkpt lat="44.49736" lon="1.28103">
        <ele>281.2</ele>
        <time>2023-10-23T14:35:00Z</time>
      </trkpt>
      <trkpt lat="44.49739" lon="1.28108">
        <ele>285.8</ele>
        <time>2023-10-23T14:35:05Z</time>
      </trkpt>
      <trkpt lat="44.49743" lon="1.28112">
        <ele>287.9</ele>
        <time>2023-10-23T14:35:10Z</time>
      </trkpt>
      <trkpt lat="44.49747" lon="1.28116">
        <ele>292.5</ele>
        <time>2023-10-23T14:35:15Z</time>
      </trkpt>
      <trkpt lat="44.49751" lon="1.28119">
        <ele>292.2</ele>
        <time>2023-10-23T14:35:20Z</time>
      </trkpt>
      <trkpt lat="44.49756" lon="1.28121">
        <ele>289.8</ele>
        <time>2023-10-23T14:35:26Z</time>
      </trkpt>
      <trkpt lat="44.49761" lon="1.28124">
        <ele>293.1</ele>
        <time>2023-10-23T14:35:31Z</time>
      </trkpt>
      <trkpt lat="44.49767" lon="1.28127">
        <ele>293.5</ele>
        <time>2023-10-23T14:35:35Z</time>
      </trkpt>
      <trkpt lat="44.49771" lon="1.28129">
        <ele>293.8</ele>
        <time>2023-10-23T14:35:38Z</time>
      </trkpt>
      <trkpt lat="44.49777" lon="1.2813">
        <ele>294.3</ele>
        <time>2023-10-23T14:35:42Z</time>
      </trkpt>
      <trkpt lat="44.49782" lon="1.28131">
        <ele>294.8</ele>
        <time>2023-10-23T14:35:46Z</time>
      </trkpt>
      <trkpt lat="44.49788" lon="1.28131">
        <ele>291.9</ele>
        <time>2023-10-23T14:35:50Z</time>
      </trkpt>
      <trkpt lat="44.49793" lon="1.28131">
        <ele>290.6</ele>
        <time>2023-10-23T14:35:54Z</time>
      </trkpt>
      <trkpt lat="44.49798" lon="1.28131">
        <ele>289.8</ele>
        <time>2023-10-23T14:35:58Z</time>
      </trkpt>
      <trkpt lat="44.49803" lon="1.28131">
        <ele>290.8</ele>
        <time>2023-10-23T14:36:02Z</time>
      </trkpt>
      <trkpt lat="44.49808" lon="1.28131">
        <ele>290.2</ele>
        <time>2023-10-23T14:36:06Z</time>
      </trkpt>
      <trkpt lat="44.49813" lon="1.28131">
        <ele>290.2</ele>
        <time>2023-10-23T14:36:10Z</time>
      </trkpt>
      <trkpt lat="44.49818" lon="1.28131">
        <ele>290.2</ele>
        <time>2023-10-23T14:36:14Z</time>
      </trkpt>
      <trkpt lat="44.49823" lon="1.28131">
        <ele>286.6</ele>
        <time>2023-10-23T14:36:18Z</time>
      </trkpt>
      <trkpt lat="44.49827" lon="1.28131">
        <ele>286.2</ele>
        <time>2023-10-23T14:36:22Z</time>
      </trkpt>
      <trkpt lat="44.49833" lon="1.28131">
        <ele>283.8</ele>
        <time>2023-10-23T14:36:26Z</time>
      </trkpt>
      <trkpt lat="44.49838" lon="1.28134">
        <ele>284</ele>
        <time>2023-10-23T14:36:30Z</time>
      </trkpt>
      <trkpt lat="44.49843" lon="1.28135">
        <ele>285</ele>
        <time>2023-10-23T14:36:34Z</time>
      </trkpt>
      <trkpt lat="44.49849" lon="1.28136">
        <ele>283</ele>
        <time>2023-10-23T14:36:38Z</time>
      </trkpt>
      <trkpt lat="44.49853" lon="1.28137">
        <ele>282.9</ele>
        <time>2023-10-23T14:36:42Z</time>
      </trkpt>
      <trkpt lat="44.49859" lon="1.28138">
        <ele>283.1</ele>
        <time>2023-10-23T14:36:47Z</time>
      </trkpt>
      <trkpt lat="44.49864" lon="1.28138">
        <ele>283.8</ele>
        <time>2023-10-23T14:36:52Z</time>
      </trkpt>
      <trkpt lat="44.49869" lon="1.28138">
        <ele>284.2</ele>
        <time>2023-10-23T14:36:56Z</time>
      </trkpt>
      <trkpt lat="44.49873" lon="1.28135">
        <ele>281.7</ele>
        <time>2023-10-23T14:36:59Z</time>
      </trkpt>
      <trkpt lat="44.49879" lon="1.28133">
        <ele>281.5</ele>
        <time>2023-10-23T14:37:03Z</time>
      </trkpt>
      <trkpt lat="44.49883" lon="1.28132">
        <ele>281.6</ele>
        <time>2023-10-23T14:37:07Z</time>
      </trkpt>
      <trkpt lat="44.49889" lon="1.28131">
        <ele>279.5</ele>
        <time>2023-10-23T14:37:11Z</time>
      </trkpt>
      <trkpt lat="44.49894" lon="1.2813">
        <ele>280.2</ele>
        <time>2023-10-23T14:37:16Z</time>
      </trkpt>
      <trkpt lat="44.49899" lon="1.28129">
        <ele>281.5</ele>
        <time>2023-10-23T14:37:21Z</time>
      </trkpt>
      <trkpt lat="44.49905" lon="1.28127">
        <ele>282.2</ele>
        <time>2023-10-23T14:37:26Z</time>
      </trkpt>
      <trkpt lat="44.49909" lon="1.28126">
        <ele>283</ele>
        <time>2023-10-23T14:37:30Z</time>
      </trkpt>
      <trkpt lat="44.49915" lon="1.28124">
        <ele>283.4</ele>
        <time>2023-10-23T14:37:35Z</time>
      </trkpt>
      <trkpt lat="44.49919" lon="1.28122">
        <ele>283.6</ele>
        <time>2023-10-23T14:37:39Z</time>
      </trkpt>
      <trkpt lat="44.49924" lon="1.28121">
        <ele>285.2</ele>
        <time>2023-10-23T14:37:44Z</time>
      </trkpt>
      <trkpt lat="44.49929" lon="1.28119">
        <ele>284.7</ele>
        <time>2023-10-23T14:37:49Z</time>
      </trkpt>
      <trkpt lat="44.49934" lon="1.28119">
        <ele>286.1</ele>
        <time>2023-10-23T14:37:54Z</time>
      </trkpt>
      <trkpt lat="44.49939" lon="1.28119">
        <ele>285.8</ele>
        <time>2023-10-23T14:37:58Z</time>
      </trkpt>
      <trkpt lat="44.49944" lon="1.28118">
        <ele>285</ele>
        <time>2023-10-23T14:38:02Z</time>
      </trkpt>
      <trkpt lat="44.49949" lon="1.28118">
        <ele>285</ele>
        <time>2023-10-23T14:38:06Z</time>
      </trkpt>
      <trkpt lat="44.49954" lon="1.28118">
        <ele>285.3</ele>
        <time>2023-10-23T14:38:10Z</time>
      </trkpt>
      <trkpt lat="44.49958" lon="1.28118">
        <ele>285.1</ele>
        <time>2023-10-23T14:38:14Z</time>
      </trkpt>
      <trkpt lat="44.49964" lon="1.28118">
        <ele>281.8</ele>
        <time>2023-10-23T14:38:18Z</time>
      </trkpt>
      <trkpt lat="44.4997" lon="1.28117">
        <ele>278.9</ele>
        <time>2023-10-23T14:38:22Z</time>
      </trkpt>
      <trkpt lat="44.49974" lon="1.28118">
        <ele>280.3</ele>
        <time>2023-10-23T14:38:26Z</time>
      </trkpt>
      <trkpt lat="44.49979" lon="1.2812">
        <ele>281.9</ele>
        <time>2023-10-23T14:38:30Z</time>
      </trkpt>
      <trkpt lat="44.49984" lon="1.28121">
        <ele>281.5</ele>
        <time>2023-10-23T14:38:35Z</time>
      </trkpt>
      <trkpt lat="44.49989" lon="1.28125">
        <ele>281.5</ele>
        <time>2023-10-23T14:38:40Z</time>
      </trkpt>
      <trkpt lat="44.49994" lon="1.28127">
        <ele>279.4</ele>
        <time>2023-10-23T14:38:45Z</time>
      </trkpt>
      <trkpt lat="44.49999" lon="1.28128">
        <ele>280.6</ele>
        <time>2023-10-23T14:38:50Z</time>
      </trkpt>
      <trkpt lat="44.50003" lon="1.28131">
        <ele>284.1</ele>
        <time>2023-10-23T14:38:55Z</time>
      </trkpt>
      <trkpt lat="44.50009" lon="1.28134">
        <ele>279.7</ele>
        <time>2023-10-23T14:39:00Z</time>
      </trkpt>
      <trkpt lat="44.50013" lon="1.28135">
        <ele>280.7</ele>
        <time>2023-10-23T14:39:04Z</time>
      </trkpt>
      <trkpt lat="44.50018" lon="1.28138">
        <ele>280.6</ele>
        <time>2023-10-23T14:39:09Z</time>
      </trkpt>
      <trkpt lat="44.50022" lon="1.28141">
        <ele>279</ele>
        <time>2023-10-23T14:39:13Z</time>
      </trkpt>
      <trkpt lat="44.50027" lon="1.28144">
        <ele>277.8</ele>
        <time>2023-10-23T14:39:17Z</time>
      </trkpt>
      <trkpt lat="44.50031" lon="1.28146">
        <ele>277.6</ele>
        <time>2023-10-23T14:39:21Z</time>
      </trkpt>
      <trkpt lat="44.50035" lon="1.2815">
        <ele>279.2</ele>
        <time>2023-10-23T14:39:25Z</time>
      </trkpt>
      <trkpt lat="44.5004" lon="1.28153">
        <ele>281.5</ele>
        <time>2023-10-23T14:39:31Z</time>
      </trkpt>
      <trkpt lat="44.50044" lon="1.28157">
        <ele>282.6</ele>
        <time>2023-10-23T14:39:36Z</time>
      </trkpt>
      <trkpt lat="44.5005" lon="1.2816">
        <ele>284.5</ele>
        <time>2023-10-23T14:39:41Z</time>
      </trkpt>
      <trkpt lat="44.50054" lon="1.28162">
        <ele>284.6</ele>
        <time>2023-10-23T14:39:45Z</time>
      </trkpt>
      <trkpt lat="44.50059" lon="1.28166">
        <ele>286.2</ele>
        <time>2023-10-23T14:39:50Z</time>
      </trkpt>
      <trkpt lat="44.50064" lon="1.28169">
        <ele>288</ele>
        <time>2023-10-23T14:39:55Z</time>
      </trkpt>
      <trkpt lat="44.50067" lon="1.28172">
        <ele>287</ele>
        <time>2023-10-23T14:39:59Z</time>
      </trkpt>
      <trkpt lat="44.50072" lon="1.28178">
        <ele>282.7</ele>
        <time>2023-10-23T14:40:03Z</time>
      </trkpt>
      <trkpt lat="44.50076" lon="1.28181">
        <ele>281.6</ele>
        <time>2023-10-23T14:40:05Z</time>
      </trkpt>
      <trkpt lat="44.50082" lon="1.28184">
        <ele>281.9</ele>
        <time>2023-10-23T14:40:13Z</time>
      </trkpt>
      <trkpt lat="44.50087" lon="1.28187">
        <ele>285.3</ele>
        <time>2023-10-23T14:40:18Z</time>
      </trkpt>
      <trkpt lat="44.50092" lon="1.28189">
        <ele>286.2</ele>
        <time>2023-10-23T14:40:22Z</time>
      </trkpt>
      <trkpt lat="44.50097" lon="1.28192">
        <ele>285.7</ele>
        <time>2023-10-23T14:40:28Z</time>
      </trkpt>
      <trkpt lat="44.50101" lon="1.28195">
        <ele>285.2</ele>
        <time>2023-10-23T14:40:32Z</time>
      </trkpt>
      <trkpt lat="44.50107" lon="1.28198">
        <ele>285.5</ele>
        <time>2023-10-23T14:40:35Z</time>
      </trkpt>
      <trkpt lat="44.50111" lon="1.28201">
        <ele>287.6</ele>
        <time>2023-10-23T14:40:39Z</time>
      </trkpt>
      <trkpt lat="44.50116" lon="1.28204">
        <ele>290.6</ele>
        <time>2023-10-23T14:40:50Z</time>
      </trkpt>
      <trkpt lat="44.5012" lon="1.28209">
        <ele>292.5</ele>
        <time>2023-10-23T14:40:56Z</time>
      </trkpt>
      <trkpt lat="44.50124" lon="1.28213">
        <ele>292.7</ele>
        <time>2023-10-23T14:41:01Z</time>
      </trkpt>
      <trkpt lat="44.50128" lon="1.28218">
        <ele>291.2</ele>
        <time>2023-10-23T14:41:04Z</time>
      </trkpt>
      <trkpt lat="44.50132" lon="1.28223">
        <ele>289.2</ele>
        <time>2023-10-23T14:41:08Z</time>
      </trkpt>
      <trkpt lat="44.50136" lon="1.28228">
        <ele>289.7</ele>
        <time>2023-10-23T14:41:12Z</time>
      </trkpt>
      <trkpt lat="44.50139" lon="1.28234">
        <ele>290.4</ele>
        <time>2023-10-23T14:41:16Z</time>
      </trkpt>
      <trkpt lat="44.50142" lon="1.2824">
        <ele>290.4</ele>
        <time>2023-10-23T14:41:20Z</time>
      </trkpt>
      <trkpt lat="44.50146" lon="1.28246">
        <ele>290.3</ele>
        <time>2023-10-23T14:41:24Z</time>
      </trkpt>
      <trkpt lat="44.50149" lon="1.28251">
        <ele>292</ele>
        <time>2023-10-23T14:41:28Z</time>
      </trkpt>
      <trkpt lat="44.50152" lon="1.28256">
        <ele>289.6</ele>
        <time>2023-10-23T14:41:32Z</time>
      </trkpt>
      <trkpt lat="44.50154" lon="1.28261">
        <ele>288.5</ele>
        <time>2023-10-23T14:41:36Z</time>
      </trkpt>
      <trkpt lat="44.50157" lon="1.28266">
        <ele>286.9</ele>
        <time>2023-10-23T14:41:40Z</time>
      </trkpt>
      <trkpt lat="44.5016" lon="1.28272">
        <ele>287.5</ele>
        <time>2023-10-23T14:41:44Z</time>
      </trkpt>
      <trkpt lat="44.50162" lon="1.28279">
        <ele>287.9</ele>
        <time>2023-10-23T14:41:49Z</time>
      </trkpt>
      <trkpt lat="44.50165" lon="1.28286">
        <ele>288.6</ele>
        <time>2023-10-23T14:41:54Z</time>
      </trkpt>
      <trkpt lat="44.50168" lon="1.28291">
        <ele>288.5</ele>
        <time>2023-10-23T14:41:58Z</time>
      </trkpt>
      <trkpt lat="44.50171" lon="1.28297">
        <ele>287</ele>
        <time>2023-10-23T14:42:02Z</time>
      </trkpt>
      <trkpt lat="44.50174" lon="1.28303">
        <ele>286</ele>
        <time>2023-10-23T14:42:05Z</time>
      </trkpt>
      <trkpt lat="44.50176" lon="1.28309">
        <ele>285.7</ele>
        <time>2023-10-23T14:42:08Z</time>
      </trkpt>
      <trkpt lat="44.50179" lon="1.28315">
        <ele>283.8</ele>
        <time>2023-10-23T14:42:12Z</time>
      </trkpt>
      <trkpt lat="44.50182" lon="1.28321">
        <ele>282.9</ele>
        <time>2023-10-23T14:42:16Z</time>
      </trkpt>
      <trkpt lat="44.50184" lon="1.28326">
        <ele>280.3</ele>
        <time>2023-10-23T14:42:20Z</time>
      </trkpt>
      <trkpt lat="44.50187" lon="1.28332">
        <ele>280.8</ele>
        <time>2023-10-23T14:42:25Z</time>
      </trkpt>
      <trkpt lat="44.50191" lon="1.28338">
        <ele>281.4</ele>
        <time>2023-10-23T14:42:30Z</time>
      </trkpt>
      <trkpt lat="44.50194" lon="1.28344">
        <ele>279.7</ele>
        <time>2023-10-23T14:42:35Z</time>
      </trkpt>
      <trkpt lat="44.50198" lon="1.2835">
        <ele>281.6</ele>
        <time>2023-10-23T14:42:40Z</time>
      </trkpt>
      <trkpt lat="44.50203" lon="1.2835">
        <ele>280.1</ele>
        <time>2023-10-23T14:42:44Z</time>
      </trkpt>
      <trkpt lat="44.50207" lon="1.28353">
        <ele>280.1</ele>
        <time>2023-10-23T14:42:48Z</time>
      </trkpt>
      <trkpt lat="44.50212" lon="1.28357">
        <ele>280.6</ele>
        <time>2023-10-23T14:42:53Z</time>
      </trkpt>
      <trkpt lat="44.50217" lon="1.2836">
        <ele>280.2</ele>
        <time>2023-10-23T14:42:58Z</time>
      </trkpt>
      <trkpt lat="44.50221" lon="1.28362">
        <ele>281</ele>
        <time>2023-10-23T14:43:02Z</time>
      </trkpt>
      <trkpt lat="44.50226" lon="1.28365">
        <ele>281</ele>
        <time>2023-10-23T14:43:07Z</time>
      </trkpt>
      <trkpt lat="44.5023" lon="1.28368">
        <ele>282.3</ele>
        <time>2023-10-23T14:43:11Z</time>
      </trkpt>
      <trkpt lat="44.50234" lon="1.28371">
        <ele>282.9</ele>
        <time>2023-10-23T14:43:16Z</time>
      </trkpt>
      <trkpt lat="44.50239" lon="1.28375">
        <ele>283.9</ele>
        <time>2023-10-23T14:43:21Z</time>
      </trkpt>
      <trkpt lat="44.50243" lon="1.28379">
        <ele>284.9</ele>
        <time>2023-10-23T14:43:26Z</time>
      </trkpt>
      <trkpt lat="44.50241" lon="1.28386">
        <ele>283.2</ele>
        <time>2023-10-23T14:43:31Z</time>
      </trkpt>
      <trkpt lat="44.50237" lon="1.2839">
        <ele>277.3</ele>
        <time>2023-10-23T14:43:42Z</time>
      </trkpt>
      <trkpt lat="44.50241" lon="1.28395">
        <ele>276</ele>
        <time>2023-10-23T14:45:14Z</time>
      </trkpt>
      <trkpt lat="44.5024" lon="1.28402">
        <ele>276.8</ele>
        <time>2023-10-23T14:46:41Z</time>
      </trkpt>
      <trkpt lat="44.5024" lon="1.28409">
        <ele>280.1</ele>
        <time>2023-10-23T14:46:49Z</time>
      </trkpt>
      <trkpt lat="44.50239" lon="1.28416">
        <ele>281.2</ele>
        <time>2023-10-23T14:46:54Z</time>
      </trkpt>
      <trkpt lat="44.50239" lon="1.28423">
        <ele>281.8</ele>
        <time>2023-10-23T14:46:58Z</time>
      </trkpt>
      <trkpt lat="44.50239" lon="1.28431">
        <ele>280.1</ele>
        <time>2023-10-23T14:47:02Z</time>
      </trkpt>
      <trkpt lat="44.50239" lon="1.28437">
        <ele>279.6</ele>
        <time>2023-10-23T14:47:06Z</time>
      </trkpt>
      <trkpt lat="44.50238" lon="1.28445">
        <ele>277.3</ele>
        <time>2023-10-23T14:47:11Z</time>
      </trkpt>
      <trkpt lat="44.50239" lon="1.28452">
        <ele>276.8</ele>
        <time>2023-10-23T14:47:15Z</time>
      </trkpt>
      <trkpt lat="44.50239" lon="1.28459">
        <ele>276.1</ele>
        <time>2023-10-23T14:47:19Z</time>
      </trkpt>
      <trkpt lat="44.50238" lon="1.28465">
        <ele>275.9</ele>
        <time>2023-10-23T14:47:23Z</time>
      </trkpt>
      <trkpt lat="44.50237" lon="1.28472">
        <ele>276.9</ele>
        <time>2023-10-23T14:47:27Z</time>
      </trkpt>
      <trkpt lat="44.50236" lon="1.28478">
        <ele>278.4</ele>
        <time>2023-10-23T14:47:31Z</time>
      </trkpt>
      <trkpt lat="44.50235" lon="1.28486">
        <ele>279.1</ele>
        <time>2023-10-23T14:47:36Z</time>
      </trkpt>
      <trkpt lat="44.50233" lon="1.28493">
        <ele>280.6</ele>
        <time>2023-10-23T14:47:41Z</time>
      </trkpt>
      <trkpt lat="44.50231" lon="1.285">
        <ele>281.1</ele>
        <time>2023-10-23T14:47:46Z</time>
      </trkpt>
      <trkpt lat="44.5023" lon="1.28508">
        <ele>282.1</ele>
        <time>2023-10-23T14:47:51Z</time>
      </trkpt>
      <trkpt lat="44.5023" lon="1.28514">
        <ele>282.4</ele>
        <time>2023-10-23T14:47:55Z</time>
      </trkpt>
      <trkpt lat="44.50229" lon="1.28521">
        <ele>282.3</ele>
        <time>2023-10-23T14:47:59Z</time>
      </trkpt>
      <trkpt lat="44.50227" lon="1.28528">
        <ele>283.5</ele>
        <time>2023-10-23T14:48:04Z</time>
      </trkpt>
      <trkpt lat="44.50227" lon="1.28536">
        <ele>282.7</ele>
        <time>2023-10-23T14:48:09Z</time>
      </trkpt>
      <trkpt lat="44.50227" lon="1.28542">
        <ele>282.8</ele>
        <time>2023-10-23T14:48:13Z</time>
      </trkpt>
      <trkpt lat="44.50226" lon="1.2855">
        <ele>283.1</ele>
        <time>2023-10-23T14:48:17Z</time>
      </trkpt>
      <trkpt lat="44.50224" lon="1.28556">
        <ele>283.1</ele>
        <time>2023-10-23T14:48:21Z</time>
      </trkpt>
      <trkpt lat="44.50223" lon="1.28563">
        <ele>283.7</ele>
        <time>2023-10-23T14:48:26Z</time>
      </trkpt>
      <trkpt lat="44.50223" lon="1.28571">
        <ele>285.9</ele>
        <time>2023-10-23T14:48:30Z</time>
      </trkpt>
      <trkpt lat="44.50221" lon="1.28577">
        <ele>286.1</ele>
        <time>2023-10-23T14:48:34Z</time>
      </trkpt>
      <trkpt lat="44.5022" lon="1.28584">
        <ele>285.9</ele>
        <time>2023-10-23T14:48:38Z</time>
      </trkpt>
      <trkpt lat="44.50219" lon="1.28591">
        <ele>284.8</ele>
        <time>2023-10-23T14:48:42Z</time>
      </trkpt>
      <trkpt lat="44.50218" lon="1.28597">
        <ele>284.8</ele>
        <time>2023-10-23T14:48:46Z</time>
      </trkpt>
      <trkpt lat="44.50217" lon="1.28605">
        <ele>284.7</ele>
        <time>2023-10-23T14:48:51Z</time>
      </trkpt>
      <trkpt lat="44.50215" lon="1.28612">
        <ele>285.1</ele>
        <time>2023-10-23T14:48:56Z</time>
      </trkpt>
      <trkpt lat="44.50214" lon="1.2862">
        <ele>286.2</ele>
        <time>2023-10-23T14:49:01Z</time>
      </trkpt>
      <trkpt lat="44.50213" lon="1.28626">
        <ele>285.9</ele>
        <time>2023-10-23T14:49:05Z</time>
      </trkpt>
      <trkpt lat="44.50212" lon="1.28633">
        <ele>284.1</ele>
        <time>2023-10-23T14:49:08Z</time>
      </trkpt>
      <trkpt lat="44.50212" lon="1.28641">
        <ele>283.4</ele>
        <time>2023-10-23T14:49:12Z</time>
      </trkpt>
      <trkpt lat="44.50211" lon="1.28648">
        <ele>284</ele>
        <time>2023-10-23T14:49:17Z</time>
      </trkpt>
      <trkpt lat="44.5021" lon="1.28655">
        <ele>285.5</ele>
        <time>2023-10-23T14:49:22Z</time>
      </trkpt>
      <trkpt lat="44.5021" lon="1.28662">
        <ele>284.4</ele>
        <time>2023-10-23T14:49:26Z</time>
      </trkpt>
      <trkpt lat="44.50208" lon="1.28669">
        <ele>285.4</ele>
        <time>2023-10-23T14:49:31Z</time>
      </trkpt>
      <trkpt lat="44.50207" lon="1.28676">
        <ele>287.5</ele>
        <time>2023-10-23T14:49:36Z</time>
      </trkpt>
      <trkpt lat="44.50206" lon="1.28683">
        <ele>287.2</ele>
        <time>2023-10-23T14:49:41Z</time>
      </trkpt>
      <trkpt lat="44.50205" lon="1.2869">
        <ele>287.7</ele>
        <time>2023-10-23T14:49:46Z</time>
      </trkpt>
      <trkpt lat="44.50203" lon="1.28696">
        <ele>288.8</ele>
        <time>2023-10-23T14:49:51Z</time>
      </trkpt>
      <trkpt lat="44.50203" lon="1.28703">
        <ele>290.4</ele>
        <time>2023-10-23T14:49:56Z</time>
      </trkpt>
      <trkpt lat="44.50203" lon="1.28711">
        <ele>292.9</ele>
        <time>2023-10-23T14:50:00Z</time>
      </trkpt>
      <trkpt lat="44.50201" lon="1.28718">
        <ele>291.8</ele>
        <time>2023-10-23T14:50:04Z</time>
      </trkpt>
      <trkpt lat="44.502" lon="1.28724">
        <ele>290.8</ele>
        <time>2023-10-23T14:50:08Z</time>
      </trkpt>
      <trkpt lat="44.502" lon="1.2873">
        <ele>292.7</ele>
        <time>2023-10-23T14:50:12Z</time>
      </trkpt>
      <trkpt lat="44.50199" lon="1.28737">
        <ele>293</ele>
        <time>2023-10-23T14:50:17Z</time>
      </trkpt>
      <trkpt lat="44.50198" lon="1.28744">
        <ele>294.1</ele>
        <time>2023-10-23T14:50:22Z</time>
      </trkpt>
      <trkpt lat="44.50198" lon="1.28751">
        <ele>295</ele>
        <time>2023-10-23T14:50:26Z</time>
      </trkpt>
      <trkpt lat="44.50199" lon="1.28758">
        <ele>294.9</ele>
        <time>2023-10-23T14:50:30Z</time>
      </trkpt>
      <trkpt lat="44.50198" lon="1.28765">
        <ele>295.6</ele>
        <time>2023-10-23T14:50:34Z</time>
      </trkpt>
      <trkpt lat="44.50196" lon="1.28771">
        <ele>294</ele>
        <time>2023-10-23T14:50:39Z</time>
      </trkpt>
      <trkpt lat="44.50194" lon="1.28778">
        <ele>293.7</ele>
        <time>2023-10-23T14:50:44Z</time>
      </trkpt>
      <trkpt lat="44.50192" lon="1.28784">
        <ele>293.1</ele>
        <time>2023-10-23T14:50:48Z</time>
      </trkpt>
      <trkpt lat="44.50191" lon="1.28792">
        <ele>290.6</ele>
        <time>2023-10-23T14:50:52Z</time>
      </trkpt>
      <trkpt lat="44.50189" lon="1.28798">
        <ele>288.2</ele>
        <time>2023-10-23T14:50:56Z</time>
      </trkpt>
      <trkpt lat="44.50185" lon="1.28803">
        <ele>286</ele>
        <time>2023-10-23T14:51:00Z</time>
      </trkpt>
      <trkpt lat="44.50184" lon="1.28809">
        <ele>286.1</ele>
        <time>2023-10-23T14:51:04Z</time>
      </trkpt>
      <trkpt lat="44.50183" lon="1.28816">
        <ele>285.8</ele>
        <time>2023-10-23T14:51:08Z</time>
      </trkpt>
      <trkpt lat="44.50182" lon="1.28823">
        <ele>285.1</ele>
        <time>2023-10-23T14:51:13Z</time>
      </trkpt>
      <trkpt lat="44.5018" lon="1.28831">
        <ele>284.2</ele>
        <time>2023-10-23T14:51:17Z</time>
      </trkpt>
      <trkpt lat="44.50182" lon="1.28837">
        <ele>284.8</ele>
        <time>2023-10-23T14:51:36Z</time>
      </trkpt>
      <trkpt lat="44.50185" lon="1.28842">
        <ele>285.8</ele>
        <time>2023-10-23T14:51:42Z</time>
      </trkpt>
      <trkpt lat="44.50189" lon="1.28846">
        <ele>288.8</ele>
        <time>2023-10-23T14:51:47Z</time>
      </trkpt>
      <trkpt lat="44.50193" lon="1.2885">
        <ele>290.3</ele>
        <time>2023-10-23T14:51:52Z</time>
      </trkpt>
      <trkpt lat="44.50197" lon="1.28854">
        <ele>291.3</ele>
        <time>2023-10-23T14:51:57Z</time>
      </trkpt>
      <trkpt lat="44.50202" lon="1.28858">
        <ele>290.6</ele>
        <time>2023-10-23T14:52:03Z</time>
      </trkpt>
      <trkpt lat="44.50205" lon="1.28864">
        <ele>289.7</ele>
        <time>2023-10-23T14:52:08Z</time>
      </trkpt>
      <trkpt lat="44.50209" lon="1.28868">
        <ele>288.4</ele>
        <time>2023-10-23T14:52:12Z</time>
      </trkpt>
      <trkpt lat="44.50213" lon="1.28873">
        <ele>286.6</ele>
        <time>2023-10-23T14:52:16Z</time>
      </trkpt>
      <trkpt lat="44.50216" lon="1.28877">
        <ele>286.7</ele>
        <time>2023-10-23T14:52:20Z</time>
      </trkpt>
      <trkpt lat="44.50221" lon="1.28881">
        <ele>288.3</ele>
        <time>2023-10-23T14:52:25Z</time>
      </trkpt>
      <trkpt lat="44.50224" lon="1.28886">
        <ele>288.9</ele>
        <time>2023-10-23T14:52:30Z</time>
      </trkpt>
      <trkpt lat="44.50228" lon="1.2889">
        <ele>289.6</ele>
        <time>2023-10-23T14:52:35Z</time>
      </trkpt>
      <trkpt lat="44.50232" lon="1.28895">
        <ele>290.1</ele>
        <time>2023-10-23T14:52:40Z</time>
      </trkpt>
      <trkpt lat="44.50236" lon="1.28899">
        <ele>289.6</ele>
        <time>2023-10-23T14:52:45Z</time>
      </trkpt>
      <trkpt lat="44.5024" lon="1.28902">
        <ele>289.2</ele>
        <time>2023-10-23T14:52:50Z</time>
      </trkpt>
      <trkpt lat="44.50245" lon="1.28906">
        <ele>288.4</ele>
        <time>2023-10-23T14:52:55Z</time>
      </trkpt>
      <trkpt lat="44.50248" lon="1.28913">
        <ele>286</ele>
        <time>2023-10-23T14:52:59Z</time>
      </trkpt>
      <trkpt lat="44.5025" lon="1.28919">
        <ele>283.9</ele>
        <time>2023-10-23T14:53:02Z</time>
      </trkpt>
      <trkpt lat="44.50252" lon="1.28926">
        <ele>281.7</ele>
        <time>2023-10-23T14:53:06Z</time>
      </trkpt>
      <trkpt lat="44.50254" lon="1.28932">
        <ele>282.5</ele>
        <time>2023-10-23T14:53:11Z</time>
      </trkpt>
      <trkpt lat="44.50254" lon="1.2894">
        <ele>283.3</ele>
        <time>2023-10-23T14:53:16Z</time>
      </trkpt>
      <trkpt lat="44.50256" lon="1.28946">
        <ele>280.8</ele>
        <time>2023-10-23T14:53:21Z</time>
      </trkpt>
      <trkpt lat="44.50255" lon="1.28952">
        <ele>279.6</ele>
        <time>2023-10-23T14:53:27Z</time>
      </trkpt>
      <trkpt lat="44.50259" lon="1.28957">
        <ele>275.5</ele>
        <time>2023-10-23T14:53:34Z</time>
      </trkpt>
      <trkpt lat="44.50259" lon="1.28964">
        <ele>276.5</ele>
        <time>2023-10-23T14:53:39Z</time>
      </trkpt>
      <trkpt lat="44.50258" lon="1.28971">
        <ele>276.8</ele>
        <time>2023-10-23T14:53:44Z</time>
      </trkpt>
      <trkpt lat="44.50257" lon="1.28978">
        <ele>277.9</ele>
        <time>2023-10-23T14:53:49Z</time>
      </trkpt>
      <trkpt lat="44.50256" lon="1.28984">
        <ele>279.3</ele>
        <time>2023-10-23T14:53:54Z</time>
      </trkpt>
      <trkpt lat="44.50254" lon="1.2899">
        <ele>280.5</ele>
        <time>2023-10-23T14:53:59Z</time>
      </trkpt>
      <trkpt lat="44.50252" lon="1.28997">
        <ele>280.7</ele>
        <time>2023-10-23T14:54:04Z</time>
      </trkpt>
      <trkpt lat="44.50248" lon="1.28993">
        <ele>277</ele>
        <time>2023-10-23T14:54:27Z</time>
      </trkpt>
      <trkpt lat="44.50246" lon="1.29">
        <ele>275.4</ele>
        <time>2023-10-23T14:56:36Z</time>
      </trkpt>
      <trkpt lat="44.50242" lon="1.29002">
        <ele>275</ele>
        <time>2023-10-23T14:56:43Z</time>
      </trkpt>
      <trkpt lat="44.50238" lon="1.29007">
        <ele>274.1</ele>
        <time>2023-10-23T14:56:49Z</time>
      </trkpt>
      <trkpt lat="44.50234" lon="1.29012">
        <ele>275.6</ele>
        <time>2023-10-23T14:56:54Z</time>
      </trkpt>
      <trkpt lat="44.50231" lon="1.29018">
        <ele>277.8</ele>
        <time>2023-10-23T14:56:59Z</time>
      </trkpt>
      <trkpt lat="44.50226" lon="1.29022">
        <ele>276.9</ele>
        <time>2023-10-23T14:57:04Z</time>
      </trkpt>
      <trkpt lat="44.50223" lon="1.29027">
        <ele>278.4</ele>
        <time>2023-10-23T14:57:09Z</time>
      </trkpt>
      <trkpt lat="44.5022" lon="1.29032">
        <ele>279.6</ele>
        <time>2023-10-23T14:57:14Z</time>
      </trkpt>
      <trkpt lat="44.50216" lon="1.29036">
        <ele>278.5</ele>
        <time>2023-10-23T14:57:19Z</time>
      </trkpt>
      <trkpt lat="44.50212" lon="1.29039">
        <ele>280.8</ele>
        <time>2023-10-23T14:57:24Z</time>
      </trkpt>
      <trkpt lat="44.50207" lon="1.29042">
        <ele>281.3</ele>
        <time>2023-10-23T14:57:29Z</time>
      </trkpt>
      <trkpt lat="44.50203" lon="1.29045">
        <ele>283.8</ele>
        <time>2023-10-23T14:57:34Z</time>
      </trkpt>
      <trkpt lat="44.50199" lon="1.29048">
        <ele>284.1</ele>
        <time>2023-10-23T14:57:39Z</time>
      </trkpt>
      <trkpt lat="44.50194" lon="1.29051">
        <ele>284.3</ele>
        <time>2023-10-23T14:57:44Z</time>
      </trkpt>
      <trkpt lat="44.50189" lon="1.29053">
        <ele>285.1</ele>
        <time>2023-10-23T14:57:49Z</time>
      </trkpt>
      <trkpt lat="44.50184" lon="1.29055">
        <ele>285.9</ele>
        <time>2023-10-23T14:57:54Z</time>
      </trkpt>
      <trkpt lat="44.50179" lon="1.29057">
        <ele>285</ele>
        <time>2023-10-23T14:57:59Z</time>
      </trkpt>
      <trkpt lat="44.50175" lon="1.29059">
        <ele>286.1</ele>
        <time>2023-10-23T14:58:03Z</time>
      </trkpt>
      <trkpt lat="44.5017" lon="1.29061">
        <ele>288.1</ele>
        <time>2023-10-23T14:58:08Z</time>
      </trkpt>
      <trkpt lat="44.50165" lon="1.29063">
        <ele>289.8</ele>
        <time>2023-10-23T14:58:13Z</time>
      </trkpt>
      <trkpt lat="44.50161" lon="1.29063">
        <ele>290.3</ele>
        <time>2023-10-23T14:58:18Z</time>
      </trkpt>
      <trkpt lat="44.50156" lon="1.29064">
        <ele>291</ele>
        <time>2023-10-23T14:58:22Z</time>
      </trkpt>
      <trkpt lat="44.50151" lon="1.29064">
        <ele>290.7</ele>
        <time>2023-10-23T14:58:27Z</time>
      </trkpt>
      <trkpt lat="44.50146" lon="1.29066">
        <ele>289.9</ele>
        <time>2023-10-23T14:58:32Z</time>
      </trkpt>
      <trkpt lat="44.50141" lon="1.29067">
        <ele>289.5</ele>
        <time>2023-10-23T14:58:37Z</time>
      </trkpt>
      <trkpt lat="44.50136" lon="1.29068">
        <ele>288.5</ele>
        <time>2023-10-23T14:58:42Z</time>
      </trkpt>
      <trkpt lat="44.50132" lon="1.29069">
        <ele>287.1</ele>
        <time>2023-10-23T14:58:46Z</time>
      </trkpt>
      <trkpt lat="44.50126" lon="1.29071">
        <ele>288.6</ele>
        <time>2023-10-23T14:58:51Z</time>
      </trkpt>
      <trkpt lat="44.50122" lon="1.29074">
        <ele>288.7</ele>
        <time>2023-10-23T14:58:56Z</time>
      </trkpt>
      <trkpt lat="44.50117" lon="1.29076">
        <ele>289.5</ele>
        <time>2023-10-23T14:59:01Z</time>
      </trkpt>
      <trkpt lat="44.50112" lon="1.29078">
        <ele>290.4</ele>
        <time>2023-10-23T14:59:06Z</time>
      </trkpt>
      <trkpt lat="44.50107" lon="1.29079">
        <ele>289.8</ele>
        <time>2023-10-23T14:59:11Z</time>
      </trkpt>
      <trkpt lat="44.50102" lon="1.29082">
        <ele>290.1</ele>
        <time>2023-10-23T14:59:16Z</time>
      </trkpt>
      <trkpt lat="44.50098" lon="1.29085">
        <ele>288.8</ele>
        <time>2023-10-23T14:59:21Z</time>
      </trkpt>
      <trkpt lat="44.50092" lon="1.29086">
        <ele>287.9</ele>
        <time>2023-10-23T14:59:26Z</time>
      </trkpt>
      <trkpt lat="44.50087" lon="1.29087">
        <ele>288</ele>
        <time>2023-10-23T14:59:30Z</time>
      </trkpt>
      <trkpt lat="44.50082" lon="1.29089">
        <ele>289.4</ele>
        <time>2023-10-23T14:59:35Z</time>
      </trkpt>
      <trkpt lat="44.50078" lon="1.29091">
        <ele>288.2</ele>
        <time>2023-10-23T14:59:39Z</time>
      </trkpt>
      <trkpt lat="44.50073" lon="1.29093">
        <ele>288.4</ele>
        <time>2023-10-23T14:59:44Z</time>
      </trkpt>
      <trkpt lat="44.50068" lon="1.29095">
        <ele>290.7</ele>
        <time>2023-10-23T14:59:48Z</time>
      </trkpt>
      <trkpt lat="44.50063" lon="1.29096">
        <ele>291.6</ele>
        <time>2023-10-23T14:59:53Z</time>
      </trkpt>
      <trkpt lat="44.50058" lon="1.29099">
        <ele>289.3</ele>
        <time>2023-10-23T14:59:58Z</time>
      </trkpt>
      <trkpt lat="44.50053" lon="1.291">
        <ele>288</ele>
        <time>2023-10-23T15:00:03Z</time>
      </trkpt>
      <trkpt lat="44.50047" lon="1.291">
        <ele>288.9</ele>
        <time>2023-10-23T15:00:08Z</time>
      </trkpt>
      <trkpt lat="44.50043" lon="1.291">
        <ele>286.7</ele>
        <time>2023-10-23T15:00:12Z</time>
      </trkpt>
      <trkpt lat="44.50038" lon="1.29101">
        <ele>286.1</ele>
        <time>2023-10-23T15:00:16Z</time>
      </trkpt>
      <trkpt lat="44.50034" lon="1.29098">
        <ele>286.2</ele>
        <time>2023-10-23T15:00:20Z</time>
      </trkpt>
      <trkpt lat="44.50029" lon="1.29097">
        <ele>285.2</ele>
        <time>2023-10-23T15:00:25Z</time>
      </trkpt>
      <trkpt lat="44.50024" lon="1.29097">
        <ele>285.1</ele>
        <time>2023-10-23T15:00:29Z</time>
      </trkpt>
      <trkpt lat="44.50019" lon="1.29096">
        <ele>283.1</ele>
        <time>2023-10-23T15:00:33Z</time>
      </trkpt>
      <trkpt lat="44.50014" lon="1.29097">
        <ele>282.8</ele>
        <time>2023-10-23T15:00:38Z</time>
      </trkpt>
      <trkpt lat="44.50009" lon="1.29097">
        <ele>282.7</ele>
        <time>2023-10-23T15:00:42Z</time>
      </trkpt>
      <trkpt lat="44.50004" lon="1.29098">
        <ele>282.5</ele>
        <time>2023-10-23T15:00:46Z</time>
      </trkpt>
      <trkpt lat="44.49999" lon="1.29097">
        <ele>282.7</ele>
        <time>2023-10-23T15:00:51Z</time>
      </trkpt>
      <trkpt lat="44.49993" lon="1.29098">
        <ele>284.4</ele>
        <time>2023-10-23T15:00:56Z</time>
      </trkpt>
      <trkpt lat="44.49988" lon="1.29099">
        <ele>281.8</ele>
        <time>2023-10-23T15:01:00Z</time>
      </trkpt>
      <trkpt lat="44.49983" lon="1.291">
        <ele>283.3</ele>
        <time>2023-10-23T15:01:05Z</time>
      </trkpt>
      <trkpt lat="44.49978" lon="1.29101">
        <ele>283</ele>
        <time>2023-10-23T15:01:10Z</time>
      </trkpt>
      <trkpt lat="44.49973" lon="1.29104">
        <ele>280.4</ele>
        <time>2023-10-23T15:01:15Z</time>
      </trkpt>
      <trkpt lat="44.49968" lon="1.29106">
        <ele>279.8</ele>
        <time>2023-10-23T15:01:20Z</time>
      </trkpt>
      <trkpt lat="44.49963" lon="1.29109">
        <ele>280.6</ele>
        <time>2023-10-23T15:01:25Z</time>
      </trkpt>
      <trkpt lat="44.49959" lon="1.29112">
        <ele>281.3</ele>
        <time>2023-10-23T15:01:30Z</time>
      </trkpt>
      <trkpt lat="44.49953" lon="1.29114">
        <ele>278.2</ele>
        <time>2023-10-23T15:01:35Z</time>
      </trkpt>
      <trkpt lat="44.49949" lon="1.29116">
        <ele>278.1</ele>
        <time>2023-10-23T15:01:39Z</time>
      </trkpt>
      <trkpt lat="44.49944" lon="1.29118">
        <ele>280</ele>
        <time>2023-10-23T15:01:44Z</time>
      </trkpt>
      <trkpt lat="44.49939" lon="1.2912">
        <ele>280.9</ele>
        <time>2023-10-23T15:01:49Z</time>
      </trkpt>
      <trkpt lat="44.49934" lon="1.29123">
        <ele>280.2</ele>
        <time>2023-10-23T15:01:54Z</time>
      </trkpt>
      <trkpt lat="44.4993" lon="1.29126">
        <ele>280.6</ele>
        <time>2023-10-23T15:01:59Z</time>
      </trkpt>
      <trkpt lat="44.49924" lon="1.29129">
        <ele>280.6</ele>
        <time>2023-10-23T15:02:04Z</time>
      </trkpt>
      <trkpt lat="44.4992" lon="1.29131">
        <ele>281.4</ele>
        <time>2023-10-23T15:02:08Z</time>
      </trkpt>
      <trkpt lat="44.49915" lon="1.29133">
        <ele>281.5</ele>
        <time>2023-10-23T15:02:13Z</time>
      </trkpt>
      <trkpt lat="44.4991" lon="1.29136">
        <ele>281</ele>
        <time>2023-10-23T15:02:18Z</time>
      </trkpt>
      <trkpt lat="44.49905" lon="1.29137">
        <ele>281.2</ele>
        <time>2023-10-23T15:02:23Z</time>
      </trkpt>
      <trkpt lat="44.49899" lon="1.29138">
        <ele>279.9</ele>
        <time>2023-10-23T15:02:27Z</time>
      </trkpt>
      <trkpt lat="44.49895" lon="1.29138">
        <ele>279.3</ele>
        <time>2023-10-23T15:02:31Z</time>
      </trkpt>
      <trkpt lat="44.4989" lon="1.29136">
        <ele>278</ele>
        <time>2023-10-23T15:02:36Z</time>
      </trkpt>
      <trkpt lat="44.49885" lon="1.29135">
        <ele>276.9</ele>
        <time>2023-10-23T15:02:40Z</time>
      </trkpt>
      <trkpt lat="44.4988" lon="1.29133">
        <ele>277.1</ele>
        <time>2023-10-23T15:02:45Z</time>
      </trkpt>
      <trkpt lat="44.49875" lon="1.29132">
        <ele>277</ele>
        <time>2023-10-23T15:02:49Z</time>
      </trkpt>
      <trkpt lat="44.49871" lon="1.2913">
        <ele>277.2</ele>
        <time>2023-10-23T15:02:53Z</time>
      </trkpt>
      <trkpt lat="44.49866" lon="1.29126">
        <ele>276.2</ele>
        <time>2023-10-23T15:02:58Z</time>
      </trkpt>
      <trkpt lat="44.49861" lon="1.29122">
        <ele>275.7</ele>
        <time>2023-10-23T15:03:02Z</time>
      </trkpt>
      <trkpt lat="44.49857" lon="1.29119">
        <ele>277.5</ele>
        <time>2023-10-23T15:03:06Z</time>
      </trkpt>
      <trkpt lat="44.49852" lon="1.29117">
        <ele>278</ele>
        <time>2023-10-23T15:03:11Z</time>
      </trkpt>
      <trkpt lat="44.49847" lon="1.29115">
        <ele>278.2</ele>
        <time>2023-10-23T15:03:16Z</time>
      </trkpt>
      <trkpt lat="44.49842" lon="1.29113">
        <ele>278.7</ele>
        <time>2023-10-23T15:03:21Z</time>
      </trkpt>
      <trkpt lat="44.49837" lon="1.29112">
        <ele>277.4</ele>
        <time>2023-10-23T15:03:26Z</time>
      </trkpt>
      <trkpt lat="44.49833" lon="1.29112">
        <ele>276.5</ele>
        <time>2023-10-23T15:03:30Z</time>
      </trkpt>
      <trkpt lat="44.49828" lon="1.29112">
        <ele>276.6</ele>
        <time>2023-10-23T15:03:34Z</time>
      </trkpt>
      <trkpt lat="44.49822" lon="1.29113">
        <ele>274.5</ele>
        <time>2023-10-23T15:03:38Z</time>
      </trkpt>
      <trkpt lat="44.49817" lon="1.29112">
        <ele>273.8</ele>
        <time>2023-10-23T15:03:42Z</time>
      </trkpt>
      <trkpt lat="44.49812" lon="1.2911">
        <ele>272.6</ele>
        <time>2023-10-23T15:03:47Z</time>
      </trkpt>
      <trkpt lat="44.49808" lon="1.29109">
        <ele>272.1</ele>
        <time>2023-10-23T15:03:52Z</time>
      </trkpt>
      <trkpt lat="44.49802" lon="1.29107">
        <ele>272.1</ele>
        <time>2023-10-23T15:03:57Z</time>
      </trkpt>
      <trkpt lat="44.49797" lon="1.29107">
        <ele>271.4</ele>
        <time>2023-10-23T15:04:00Z</time>
      </trkpt>
      <trkpt lat="44.49793" lon="1.29107">
        <ele>272.3</ele>
        <time>2023-10-23T15:04:04Z</time>
      </trkpt>
      <trkpt lat="44.49787" lon="1.29109">
        <ele>270.5</ele>
        <time>2023-10-23T15:04:09Z</time>
      </trkpt>
      <trkpt lat="44.49783" lon="1.29109">
        <ele>270.3</ele>
        <time>2023-10-23T15:04:13Z</time>
      </trkpt>
      <trkpt lat="44.49778" lon="1.29106">
        <ele>268.1</ele>
        <time>2023-10-23T15:04:18Z</time>
      </trkpt>
      <trkpt lat="44.49772" lon="1.29106">
        <ele>266.2</ele>
        <time>2023-10-23T15:04:22Z</time>
      </trkpt>
      <trkpt lat="44.49768" lon="1.29108">
        <ele>266.2</ele>
        <time>2023-10-23T15:04:26Z</time>
      </trkpt>
      <trkpt lat="44.49762" lon="1.2911">
        <ele>267.5</ele>
        <time>2023-10-23T15:04:30Z</time>
      </trkpt>
      <trkpt lat="44.49758" lon="1.29112">
        <ele>267</ele>
        <time>2023-10-23T15:04:34Z</time>
      </trkpt>
      <trkpt lat="44.49753" lon="1.29111">
        <ele>266.3</ele>
        <time>2023-10-23T15:04:39Z</time>
      </trkpt>
      <trkpt lat="44.49748" lon="1.2911">
        <ele>265.6</ele>
        <time>2023-10-23T15:04:43Z</time>
      </trkpt>
      <trkpt lat="44.49743" lon="1.29111">
        <ele>265.9</ele>
        <time>2023-10-23T15:04:47Z</time>
      </trkpt>
      <trkpt lat="44.49739" lon="1.29111">
        <ele>267.2</ele>
        <time>2023-10-23T15:04:51Z</time>
      </trkpt>
      <trkpt lat="44.49734" lon="1.29108">
        <ele>268.4</ele>
        <time>2023-10-23T15:04:56Z</time>
      </trkpt>
      <trkpt lat="44.4973" lon="1.29105">
        <ele>269</ele>
        <time>2023-10-23T15:05:00Z</time>
      </trkpt>
      <trkpt lat="44.49725" lon="1.29101">
        <ele>269.3</ele>
        <time>2023-10-23T15:05:05Z</time>
      </trkpt>
      <trkpt lat="44.4972" lon="1.29097">
        <ele>269.2</ele>
        <time>2023-10-23T15:05:10Z</time>
      </trkpt>
      <trkpt lat="44.49716" lon="1.29095">
        <ele>269.9</ele>
        <time>2023-10-23T15:05:14Z</time>
      </trkpt>
      <trkpt lat="44.49711" lon="1.29092">
        <ele>271.1</ele>
        <time>2023-10-23T15:05:19Z</time>
      </trkpt>
      <trkpt lat="44.49706" lon="1.2909">
        <ele>272.3</ele>
        <time>2023-10-23T15:05:24Z</time>
      </trkpt>
      <trkpt lat="44.49701" lon="1.29088">
        <ele>272.2</ele>
        <time>2023-10-23T15:05:28Z</time>
      </trkpt>
      <trkpt lat="44.49697" lon="1.29084">
        <ele>272.4</ele>
        <time>2023-10-23T15:05:33Z</time>
      </trkpt>
      <trkpt lat="44.49693" lon="1.29081">
        <ele>271.5</ele>
        <time>2023-10-23T15:05:37Z</time>
      </trkpt>
      <trkpt lat="44.49688" lon="1.29078">
        <ele>271.4</ele>
        <time>2023-10-23T15:05:41Z</time>
      </trkpt>
      <trkpt lat="44.49683" lon="1.29076">
        <ele>271.8</ele>
        <time>2023-10-23T15:05:45Z</time>
      </trkpt>
      <trkpt lat="44.49679" lon="1.29073">
        <ele>271</ele>
        <time>2023-10-23T15:05:49Z</time>
      </trkpt>
      <trkpt lat="44.49674" lon="1.29069">
        <ele>269.1</ele>
        <time>2023-10-23T15:05:53Z</time>
      </trkpt>
      <trkpt lat="44.49669" lon="1.29069">
        <ele>269.4</ele>
        <time>2023-10-23T15:05:57Z</time>
      </trkpt>
      <trkpt lat="44.49664" lon="1.2907">
        <ele>267.8</ele>
        <time>2023-10-23T15:06:03Z</time>
      </trkpt>
      <trkpt lat="44.49659" lon="1.2907">
        <ele>264.9</ele>
        <time>2023-10-23T15:06:29Z</time>
      </trkpt>
      <trkpt lat="44.49655" lon="1.29073">
        <ele>264.2</ele>
        <time>2023-10-23T15:08:27Z</time>
      </trkpt>
      <trkpt lat="44.49654" lon="1.29079">
        <ele>266</ele>
        <time>2023-10-23T15:08:33Z</time>
      </trkpt>
      <trkpt lat="44.49652" lon="1.29086">
        <ele>266.6</ele>
        <time>2023-10-23T15:08:38Z</time>
      </trkpt>
      <trkpt lat="44.49649" lon="1.29092">
        <ele>267.6</ele>
        <time>2023-10-23T15:08:43Z</time>
      </trkpt>
      <trkpt lat="44.49646" lon="1.29099">
        <ele>268.1</ele>
        <time>2023-10-23T15:08:48Z</time>
      </trkpt>
      <trkpt lat="44.49643" lon="1.29105">
        <ele>270.1</ele>
        <time>2023-10-23T15:08:53Z</time>
      </trkpt>
      <trkpt lat="44.49641" lon="1.29111">
        <ele>269.9</ele>
        <time>2023-10-23T15:08:57Z</time>
      </trkpt>
      <trkpt lat="44.49639" lon="1.29118">
        <ele>269.5</ele>
        <time>2023-10-23T15:09:01Z</time>
      </trkpt>
      <trkpt lat="44.49638" lon="1.29124">
        <ele>269.6</ele>
        <time>2023-10-23T15:09:05Z</time>
      </trkpt>
      <trkpt lat="44.49636" lon="1.2913">
        <ele>268.8</ele>
        <time>2023-10-23T15:09:09Z</time>
      </trkpt>
      <trkpt lat="44.49634" lon="1.29136">
        <ele>268.3</ele>
        <time>2023-10-23T15:09:13Z</time>
      </trkpt>
      <trkpt lat="44.49632" lon="1.29143">
        <ele>269.9</ele>
        <time>2023-10-23T15:09:18Z</time>
      </trkpt>
      <trkpt lat="44.49631" lon="1.2915">
        <ele>269.3</ele>
        <time>2023-10-23T15:09:23Z</time>
      </trkpt>
      <trkpt lat="44.49629" lon="1.29157">
        <ele>267.7</ele>
        <time>2023-10-23T15:09:27Z</time>
      </trkpt>
      <trkpt lat="44.49627" lon="1.29163">
        <ele>267</ele>
        <time>2023-10-23T15:09:31Z</time>
      </trkpt>
      <trkpt lat="44.49624" lon="1.29168">
        <ele>265</ele>
        <time>2023-10-23T15:09:35Z</time>
      </trkpt>
      <trkpt lat="44.49622" lon="1.29175">
        <ele>263.8</ele>
        <time>2023-10-23T15:09:40Z</time>
      </trkpt>
      <trkpt lat="44.49618" lon="1.29179">
        <ele>260.4</ele>
        <time>2023-10-23T15:09:44Z</time>
      </trkpt>
      <trkpt lat="44.49614" lon="1.29183">
        <ele>259.4</ele>
        <time>2023-10-23T15:09:49Z</time>
      </trkpt>
      <trkpt lat="44.49609" lon="1.29185">
        <ele>260.4</ele>
        <time>2023-10-23T15:09:54Z</time>
      </trkpt>
      <trkpt lat="44.49604" lon="1.29188">
        <ele>259</ele>
        <time>2023-10-23T15:09:59Z</time>
      </trkpt>
      <trkpt lat="44.49599" lon="1.2919">
        <ele>259.7</ele>
        <time>2023-10-23T15:10:04Z</time>
      </trkpt>
      <trkpt lat="44.49594" lon="1.2919">
        <ele>260.7</ele>
        <time>2023-10-23T15:10:09Z</time>
      </trkpt>
      <trkpt lat="44.49589" lon="1.29189">
        <ele>260.7</ele>
        <time>2023-10-23T15:10:14Z</time>
      </trkpt>
      <trkpt lat="44.49584" lon="1.29188">
        <ele>261.5</ele>
        <time>2023-10-23T15:10:19Z</time>
      </trkpt>
      <trkpt lat="44.49578" lon="1.29187">
        <ele>261.5</ele>
        <time>2023-10-23T15:10:24Z</time>
      </trkpt>
      <trkpt lat="44.49573" lon="1.29187">
        <ele>261</ele>
        <time>2023-10-23T15:10:28Z</time>
      </trkpt>
      <trkpt lat="44.49568" lon="1.29184">
        <ele>260.7</ele>
        <time>2023-10-23T15:10:33Z</time>
      </trkpt>
      <trkpt lat="44.49565" lon="1.2918">
        <ele>260.2</ele>
        <time>2023-10-23T15:10:37Z</time>
      </trkpt>
      <trkpt lat="44.49561" lon="1.29176">
        <ele>257.4</ele>
        <time>2023-10-23T15:10:41Z</time>
      </trkpt>
      <trkpt lat="44.49556" lon="1.29173">
        <ele>259.7</ele>
        <time>2023-10-23T15:10:46Z</time>
      </trkpt>
      <trkpt lat="44.49551" lon="1.29171">
        <ele>260.6</ele>
        <time>2023-10-23T15:10:51Z</time>
      </trkpt>
      <trkpt lat="44.49547" lon="1.29173">
        <ele>261.5</ele>
        <time>2023-10-23T15:11:00Z</time>
      </trkpt>
      <trkpt lat="44.49542" lon="1.29171">
        <ele>261.6</ele>
        <time>2023-10-23T15:11:05Z</time>
      </trkpt>
      <trkpt lat="44.49537" lon="1.29171">
        <ele>262</ele>
        <time>2023-10-23T15:11:09Z</time>
      </trkpt>
      <trkpt lat="44.49532" lon="1.2917">
        <ele>261.7</ele>
        <time>2023-10-23T15:11:13Z</time>
      </trkpt>
      <trkpt lat="44.49528" lon="1.29174">
        <ele>259.2</ele>
        <time>2023-10-23T15:11:19Z</time>
      </trkpt>
      <trkpt lat="44.49524" lon="1.29178">
        <ele>259.5</ele>
        <time>2023-10-23T15:11:24Z</time>
      </trkpt>
      <trkpt lat="44.49521" lon="1.29183">
        <ele>261.8</ele>
        <time>2023-10-23T15:11:29Z</time>
      </trkpt>
      <trkpt lat="44.49517" lon="1.29187">
        <ele>264.1</ele>
        <time>2023-10-23T15:11:34Z</time>
      </trkpt>
      <trkpt lat="44.49512" lon="1.29191">
        <ele>262.6</ele>
        <time>2023-10-23T15:11:39Z</time>
      </trkpt>
      <trkpt lat="44.49508" lon="1.29193">
        <ele>263.3</ele>
        <time>2023-10-23T15:11:43Z</time>
      </trkpt>
      <trkpt lat="44.49504" lon="1.29195">
        <ele>263.3</ele>
        <time>2023-10-23T15:11:47Z</time>
      </trkpt>
      <trkpt lat="44.49498" lon="1.29198">
        <ele>262.3</ele>
        <time>2023-10-23T15:11:52Z</time>
      </trkpt>
      <trkpt lat="44.49494" lon="1.29203">
        <ele>262.2</ele>
        <time>2023-10-23T15:11:57Z</time>
      </trkpt>
      <trkpt lat="44.4949" lon="1.29209">
        <ele>261.4</ele>
        <time>2023-10-23T15:12:02Z</time>
      </trkpt>
      <trkpt lat="44.49487" lon="1.29215">
        <ele>262.7</ele>
        <time>2023-10-23T15:12:07Z</time>
      </trkpt>
      <trkpt lat="44.49483" lon="1.2922">
        <ele>264.4</ele>
        <time>2023-10-23T15:12:12Z</time>
      </trkpt>
      <trkpt lat="44.49479" lon="1.29224">
        <ele>263.9</ele>
        <time>2023-10-23T15:12:16Z</time>
      </trkpt>
      <trkpt lat="44.49476" lon="1.29229">
        <ele>260.5</ele>
        <time>2023-10-23T15:12:21Z</time>
      </trkpt>
      <trkpt lat="44.49474" lon="1.29235">
        <ele>256.4</ele>
        <time>2023-10-23T15:12:27Z</time>
      </trkpt>
      <trkpt lat="44.49473" lon="1.29242">
        <ele>256</ele>
        <time>2023-10-23T15:12:33Z</time>
      </trkpt>
      <trkpt lat="44.49471" lon="1.29249">
        <ele>256.2</ele>
        <time>2023-10-23T15:12:38Z</time>
      </trkpt>
      <trkpt lat="44.49471" lon="1.29256">
        <ele>256.8</ele>
        <time>2023-10-23T15:12:43Z</time>
      </trkpt>
      <trkpt lat="44.49472" lon="1.29263">
        <ele>257</ele>
        <time>2023-10-23T15:12:48Z</time>
      </trkpt>
      <trkpt lat="44.49472" lon="1.29269">
        <ele>257</ele>
        <time>2023-10-23T15:12:53Z</time>
      </trkpt>
      <trkpt lat="44.49472" lon="1.29276">
        <ele>259</ele>
        <time>2023-10-23T15:12:59Z</time>
      </trkpt>
      <trkpt lat="44.49472" lon="1.29284">
        <ele>257.6</ele>
        <time>2023-10-23T15:13:05Z</time>
      </trkpt>
      <trkpt lat="44.49471" lon="1.29291">
        <ele>262</ele>
        <time>2023-10-23T15:13:10Z</time>
      </trkpt>
      <trkpt lat="44.49471" lon="1.29298">
        <ele>262.4</ele>
        <time>2023-10-23T15:13:15Z</time>
      </trkpt>
      <trkpt lat="44.49471" lon="1.29306">
        <ele>262.8</ele>
        <time>2023-10-23T15:13:20Z</time>
      </trkpt>
      <trkpt lat="44.4947" lon="1.29313">
        <ele>265.7</ele>
        <time>2023-10-23T15:13:25Z</time>
      </trkpt>
      <trkpt lat="44.49471" lon="1.29321">
        <ele>265.7</ele>
        <time>2023-10-23T15:13:30Z</time>
      </trkpt>
      <trkpt lat="44.49471" lon="1.29328">
        <ele>265.1</ele>
        <time>2023-10-23T15:13:35Z</time>
      </trkpt>
      <trkpt lat="44.49471" lon="1.29335">
        <ele>266.5</ele>
        <time>2023-10-23T15:13:40Z</time>
      </trkpt>
      <trkpt lat="44.49472" lon="1.29342">
        <ele>266.4</ele>
        <time>2023-10-23T15:13:45Z</time>
      </trkpt>
      <trkpt lat="44.49473" lon="1.29349">
        <ele>263.5</ele>
        <time>2023-10-23T15:13:50Z</time>
      </trkpt>
      <trkpt lat="44.49472" lon="1.29356">
        <ele>263</ele>
        <time>2023-10-23T15:13:54Z</time>
      </trkpt>
      <trkpt lat="44.49472" lon="1.29363">
        <ele>265.4</ele>
        <time>2023-10-23T15:13:58Z</time>
      </trkpt>
      <trkpt lat="44.49471" lon="1.2937">
        <ele>267.6</ele>
        <time>2023-10-23T15:14:03Z</time>
      </trkpt>
      <trkpt lat="44.49472" lon="1.29377">
        <ele>270</ele>
        <time>2023-10-23T15:14:08Z</time>
      </trkpt>
      <trkpt lat="44.49472" lon="1.29383">
        <ele>271.4</ele>
        <time>2023-10-23T15:14:12Z</time>
      </trkpt>
      <trkpt lat="44.49473" lon="1.29391">
        <ele>272.7</ele>
        <time>2023-10-23T15:14:17Z</time>
      </trkpt>
      <trkpt lat="44.49472" lon="1.29397">
        <ele>271.3</ele>
        <time>2023-10-23T15:14:21Z</time>
      </trkpt>
      <trkpt lat="44.49472" lon="1.29405">
        <ele>270.9</ele>
        <time>2023-10-23T15:14:26Z</time>
      </trkpt>
      <trkpt lat="44.49471" lon="1.29411">
        <ele>270.8</ele>
        <time>2023-10-23T15:14:30Z</time>
      </trkpt>
      <trkpt lat="44.49471" lon="1.29418">
        <ele>271.8</ele>
        <time>2023-10-23T15:14:34Z</time>
      </trkpt>
      <trkpt lat="44.49472" lon="1.29425">
        <ele>270</ele>
        <time>2023-10-23T15:14:38Z</time>
      </trkpt>
      <trkpt lat="44.49472" lon="1.29431">
        <ele>267.8</ele>
        <time>2023-10-23T15:14:42Z</time>
      </trkpt>
      <trkpt lat="44.49474" lon="1.29439">
        <ele>268.2</ele>
        <time>2023-10-23T15:14:47Z</time>
      </trkpt>
      <trkpt lat="44.49475" lon="1.29445">
        <ele>266.7</ele>
        <time>2023-10-23T15:14:51Z</time>
      </trkpt>
      <trkpt lat="44.49475" lon="1.29452">
        <ele>265.3</ele>
        <time>2023-10-23T15:14:55Z</time>
      </trkpt>
      <trkpt lat="44.49475" lon="1.29458">
        <ele>265.3</ele>
        <time>2023-10-23T15:14:59Z</time>
      </trkpt>
      <trkpt lat="44.49476" lon="1.29465">
        <ele>264.6</ele>
        <time>2023-10-23T15:15:03Z</time>
      </trkpt>
      <trkpt lat="44.49477" lon="1.29472">
        <ele>264.9</ele>
        <time>2023-10-23T15:15:08Z</time>
      </trkpt>
      <trkpt lat="44.49477" lon="1.29479">
        <ele>264.7</ele>
        <time>2023-10-23T15:15:13Z</time>
      </trkpt>
      <trkpt lat="44.49478" lon="1.29486">
        <ele>265.9</ele>
        <time>2023-10-23T15:15:18Z</time>
      </trkpt>
      <trkpt lat="44.49478" lon="1.29493">
        <ele>267.3</ele>
        <time>2023-10-23T15:15:23Z</time>
      </trkpt>
      <trkpt lat="44.49478" lon="1.29501">
        <ele>267.3</ele>
        <time>2023-10-23T15:15:27Z</time>
      </trkpt>
      <trkpt lat="44.49478" lon="1.29507">
        <ele>265.6</ele>
        <time>2023-10-23T15:15:31Z</time>
      </trkpt>
      <trkpt lat="44.4948" lon="1.29514">
        <ele>264.9</ele>
        <time>2023-10-23T15:15:36Z</time>
      </trkpt>
      <trkpt lat="44.4948" lon="1.29521">
        <ele>265</ele>
        <time>2023-10-23T15:15:40Z</time>
      </trkpt>
      <trkpt lat="44.49479" lon="1.29527">
        <ele>265.4</ele>
        <time>2023-10-23T15:15:44Z</time>
      </trkpt>
      <trkpt lat="44.49479" lon="1.29534">
        <ele>267.2</ele>
        <time>2023-10-23T15:15:48Z</time>
      </trkpt>
      <trkpt lat="44.4948" lon="1.29541">
        <ele>265.1</ele>
        <time>2023-10-23T15:15:53Z</time>
      </trkpt>
      <trkpt lat="44.4948" lon="1.29548">
        <ele>263.6</ele>
        <time>2023-10-23T15:15:57Z</time>
      </trkpt>
      <trkpt lat="44.49481" lon="1.29554">
        <ele>263.4</ele>
        <time>2023-10-23T15:16:01Z</time>
      </trkpt>
      <trkpt lat="44.49482" lon="1.29561">
        <ele>262.2</ele>
        <time>2023-10-23T15:16:05Z</time>
      </trkpt>
      <trkpt lat="44.49482" lon="1.29568">
        <ele>261.2</ele>
        <time>2023-10-23T15:16:09Z</time>
      </trkpt>
      <trkpt lat="44.49481" lon="1.29574">
        <ele>262.3</ele>
        <time>2023-10-23T15:16:13Z</time>
      </trkpt>
      <trkpt lat="44.49481" lon="1.29581">
        <ele>262.8</ele>
        <time>2023-10-23T15:16:17Z</time>
      </trkpt>
      <trkpt lat="44.49482" lon="1.29589">
        <ele>262.7</ele>
        <time>2023-10-23T15:16:22Z</time>
      </trkpt>
      <trkpt lat="44.49483" lon="1.29596">
        <ele>262.9</ele>
        <time>2023-10-23T15:16:26Z</time>
      </trkpt>
      <trkpt lat="44.49483" lon="1.29603">
        <ele>262.6</ele>
        <time>2023-10-23T15:16:31Z</time>
      </trkpt>
      <trkpt lat="44.49482" lon="1.2961">
        <ele>259.9</ele>
        <time>2023-10-23T15:16:35Z</time>
      </trkpt>
      <trkpt lat="44.49483" lon="1.29617">
        <ele>259</ele>
        <time>2023-10-23T15:16:38Z</time>
      </trkpt>
      <trkpt lat="44.49484" lon="1.29624">
        <ele>255.8</ele>
        <time>2023-10-23T15:16:42Z</time>
      </trkpt>
      <trkpt lat="44.49482" lon="1.29629">
        <ele>253</ele>
        <time>2023-10-23T15:16:47Z</time>
      </trkpt>
      <trkpt lat="44.49478" lon="1.29635">
        <ele>250.7</ele>
        <time>2023-10-23T15:16:53Z</time>
      </trkpt>
      <trkpt lat="44.49474" lon="1.29636">
        <ele>249.9</ele>
        <time>2023-10-23T15:17:04Z</time>
      </trkpt>
      <trkpt lat="44.49469" lon="1.29633">
        <ele>248.3</ele>
        <time>2023-10-23T15:17:09Z</time>
      </trkpt>
      <trkpt lat="44.49465" lon="1.29638">
        <ele>246.7</ele>
        <time>2023-10-23T15:17:15Z</time>
      </trkpt>
      <trkpt lat="44.49466" lon="1.29644">
        <ele>244.3</ele>
        <time>2023-10-23T15:17:21Z</time>
      </trkpt>
      <trkpt lat="44.49466" lon="1.29652">
        <ele>244.5</ele>
        <time>2023-10-23T15:17:27Z</time>
      </trkpt>
      <trkpt lat="44.49466" lon="1.29659">
        <ele>244.6</ele>
        <time>2023-10-23T15:17:32Z</time>
      </trkpt>
      <trkpt lat="44.49465" lon="1.29666">
        <ele>241.6</ele>
        <time>2023-10-23T15:17:38Z</time>
      </trkpt>
      <trkpt lat="44.49466" lon="1.29672">
        <ele>238.4</ele>
        <time>2023-10-23T15:17:44Z</time>
      </trkpt>
      <trkpt lat="44.49466" lon="1.29679">
        <ele>240.8</ele>
        <time>2023-10-23T15:17:51Z</time>
      </trkpt>
      <trkpt lat="44.49465" lon="1.29686">
        <ele>244.9</ele>
        <time>2023-10-23T15:17:57Z</time>
      </trkpt>
      <trkpt lat="44.49462" lon="1.29692">
        <ele>244.5</ele>
        <time>2023-10-23T15:18:03Z</time>
      </trkpt>
      <trkpt lat="44.4946" lon="1.29698">
        <ele>247.3</ele>
        <time>2023-10-23T15:18:09Z</time>
      </trkpt>
      <trkpt lat="44.49458" lon="1.29703">
        <ele>247.8</ele>
        <time>2023-10-23T15:18:14Z</time>
      </trkpt>
      <trkpt lat="44.49456" lon="1.29709">
        <ele>245.1</ele>
        <time>2023-10-23T15:18:19Z</time>
      </trkpt>
      <trkpt lat="44.49455" lon="1.29716">
        <ele>243.9</ele>
        <time>2023-10-23T15:18:24Z</time>
      </trkpt>
      <trkpt lat="44.49455" lon="1.29723">
        <ele>241.5</ele>
        <time>2023-10-23T15:18:29Z</time>
      </trkpt>
      <trkpt lat="44.49456" lon="1.2973">
        <ele>238.2</ele>
        <time>2023-10-23T15:18:34Z</time>
      </trkpt>
      <trkpt lat="44.49456" lon="1.29737">
        <ele>234.9</ele>
        <time>2023-10-23T15:18:40Z</time>
      </trkpt>
      <trkpt lat="44.49453" lon="1.29742">
        <ele>234.7</ele>
        <time>2023-10-23T15:18:58Z</time>
      </trkpt>
      <trkpt lat="44.49457" lon="1.2974">
        <ele>233.8</ele>
        <time>2023-10-23T15:19:46Z</time>
      </trkpt>
      <trkpt lat="44.49454" lon="1.29745">
        <ele>235</ele>
        <time>2023-10-23T15:22:33Z</time>
      </trkpt>
      <trkpt lat="44.4945" lon="1.29742">
        <ele>234.7</ele>
        <time>2023-10-23T15:22:37Z</time>
      </trkpt>
      <trkpt lat="44.49446" lon="1.29742">
        <ele>233.2</ele>
        <time>2023-10-23T15:22:41Z</time>
      </trkpt>
      <trkpt lat="44.49441" lon="1.29744">
        <ele>231.7</ele>
        <time>2023-10-23T15:22:47Z</time>
      </trkpt>
      <trkpt lat="44.49437" lon="1.29747">
        <ele>229.9</ele>
        <time>2023-10-23T15:22:53Z</time>
      </trkpt>
      <trkpt lat="44.49434" lon="1.29752">
        <ele>230</ele>
        <time>2023-10-23T15:23:00Z</time>
      </trkpt>
      <trkpt lat="44.49432" lon="1.29759">
        <ele>226.3</ele>
        <time>2023-10-23T15:23:08Z</time>
      </trkpt>
      <trkpt lat="44.49429" lon="1.29764">
        <ele>225.1</ele>
        <time>2023-10-23T15:23:14Z</time>
      </trkpt>
      <trkpt lat="44.49426" lon="1.29768">
        <ele>223.9</ele>
        <time>2023-10-23T15:23:20Z</time>
      </trkpt>
      <trkpt lat="44.49424" lon="1.29774">
        <ele>223.7</ele>
        <time>2023-10-23T15:23:26Z</time>
      </trkpt>
      <trkpt lat="44.49422" lon="1.2978">
        <ele>225</ele>
        <time>2023-10-23T15:23:31Z</time>
      </trkpt>
      <trkpt lat="44.49419" lon="1.29786">
        <ele>223.3</ele>
        <time>2023-10-23T15:23:37Z</time>
      </trkpt>
      <trkpt lat="44.49417" lon="1.29791">
        <ele>223.5</ele>
        <time>2023-10-23T15:23:44Z</time>
      </trkpt>
      <trkpt lat="44.49415" lon="1.29797">
        <ele>224.7</ele>
        <time>2023-10-23T15:23:51Z</time>
      </trkpt>
      <trkpt lat="44.49412" lon="1.29803">
        <ele>224.7</ele>
        <time>2023-10-23T15:23:57Z</time>
      </trkpt>
      <trkpt lat="44.49409" lon="1.29808">
        <ele>223</ele>
        <time>2023-10-23T15:24:03Z</time>
      </trkpt>
      <trkpt lat="44.49407" lon="1.29814">
        <ele>222.4</ele>
        <time>2023-10-23T15:24:09Z</time>
      </trkpt>
      <trkpt lat="44.49404" lon="1.2982">
        <ele>220.6</ele>
        <time>2023-10-23T15:24:15Z</time>
      </trkpt>
      <trkpt lat="44.49401" lon="1.29825">
        <ele>220.5</ele>
        <time>2023-10-23T15:24:22Z</time>
      </trkpt>
      <trkpt lat="44.49398" lon="1.2983">
        <ele>218.7</ele>
        <time>2023-10-23T15:24:28Z</time>
      </trkpt>
      <trkpt lat="44.49394" lon="1.29834">
        <ele>217.8</ele>
        <time>2023-10-23T15:24:34Z</time>
      </trkpt>
      <trkpt lat="44.4939" lon="1.29838">
        <ele>217.7</ele>
        <time>2023-10-23T15:24:40Z</time>
      </trkpt>
      <trkpt lat="44.49387" lon="1.29844">
        <ele>216</ele>
        <time>2023-10-23T15:24:46Z</time>
      </trkpt>
      <trkpt lat="44.49384" lon="1.29849">
        <ele>218.2</ele>
        <time>2023-10-23T15:24:53Z</time>
      </trkpt>
      <trkpt lat="44.49381" lon="1.29854">
        <ele>216.4</ele>
        <time>2023-10-23T15:24:59Z</time>
      </trkpt>
      <trkpt lat="44.49377" lon="1.29859">
        <ele>215.2</ele>
        <time>2023-10-23T15:25:04Z</time>
      </trkpt>
      <trkpt lat="44.49373" lon="1.29864">
        <ele>215.9</ele>
        <time>2023-10-23T15:25:10Z</time>
      </trkpt>
      <trkpt lat="44.49369" lon="1.29868">
        <ele>212.8</ele>
        <time>2023-10-23T15:25:15Z</time>
      </trkpt>
      <trkpt lat="44.49365" lon="1.29873">
        <ele>211.2</ele>
        <time>2023-10-23T15:25:21Z</time>
      </trkpt>
      <trkpt lat="44.49361" lon="1.29876">
        <ele>211.5</ele>
        <time>2023-10-23T15:25:27Z</time>
      </trkpt>
      <trkpt lat="44.49357" lon="1.29879">
        <ele>209.3</ele>
        <time>2023-10-23T15:25:32Z</time>
      </trkpt>
      <trkpt lat="44.49353" lon="1.29884">
        <ele>205.5</ele>
        <time>2023-10-23T15:25:38Z</time>
      </trkpt>
      <trkpt lat="44.49349" lon="1.29887">
        <ele>205</ele>
        <time>2023-10-23T15:25:47Z</time>
      </trkpt>
      <trkpt lat="44.49345" lon="1.29891">
        <ele>203.8</ele>
        <time>2023-10-23T15:25:53Z</time>
      </trkpt>
      <trkpt lat="44.49341" lon="1.29896">
        <ele>204.2</ele>
        <time>2023-10-23T15:25:59Z</time>
      </trkpt>
      <trkpt lat="44.49337" lon="1.299">
        <ele>200.5</ele>
        <time>2023-10-23T15:26:05Z</time>
      </trkpt>
      <trkpt lat="44.49333" lon="1.29904">
        <ele>199.4</ele>
        <time>2023-10-23T15:26:10Z</time>
      </trkpt>
      <trkpt lat="44.49328" lon="1.29907">
        <ele>196.6</ele>
        <time>2023-10-23T15:26:16Z</time>
      </trkpt>
      <trkpt lat="44.49324" lon="1.2991">
        <ele>197</ele>
        <time>2023-10-23T15:26:22Z</time>
      </trkpt>
      <trkpt lat="44.4932" lon="1.29913">
        <ele>195.9</ele>
        <time>2023-10-23T15:26:27Z</time>
      </trkpt>
      <trkpt lat="44.49316" lon="1.29917">
        <ele>195.7</ele>
        <time>2023-10-23T15:26:33Z</time>
      </trkpt>
      <trkpt lat="44.49312" lon="1.29921">
        <ele>195.4</ele>
        <time>2023-10-23T15:26:39Z</time>
      </trkpt>
      <trkpt lat="44.49309" lon="1.29925">
        <ele>195.3</ele>
        <time>2023-10-23T15:26:45Z</time>
      </trkpt>
      <trkpt lat="44.49304" lon="1.29928">
        <ele>196.3</ele>
        <time>2023-10-23T15:26:51Z</time>
      </trkpt>
      <trkpt lat="44.49301" lon="1.29932">
        <ele>193.2</ele>
        <time>2023-10-23T15:26:57Z</time>
      </trkpt>
      <trkpt lat="44.49297" lon="1.29937">
        <ele>192.6</ele>
        <time>2023-10-23T15:27:04Z</time>
      </trkpt>
      <trkpt lat="44.49294" lon="1.29942">
        <ele>191.1</ele>
        <time>2023-10-23T15:27:10Z</time>
      </trkpt>
      <trkpt lat="44.49291" lon="1.29947">
        <ele>188.8</ele>
        <time>2023-10-23T15:27:16Z</time>
      </trkpt>
      <trkpt lat="44.49288" lon="1.29952">
        <ele>186.8</ele>
        <time>2023-10-23T15:27:22Z</time>
      </trkpt>
      <trkpt lat="44.49284" lon="1.29957">
        <ele>186.8</ele>
        <time>2023-10-23T15:27:29Z</time>
      </trkpt>
      <trkpt lat="44.4928" lon="1.29962">
        <ele>187.4</ele>
        <time>2023-10-23T15:27:36Z</time>
      </trkpt>
      <trkpt lat="44.49277" lon="1.29966">
        <ele>187.1</ele>
        <time>2023-10-23T15:27:42Z</time>
      </trkpt>
      <trkpt lat="44.49273" lon="1.29971">
        <ele>185.4</ele>
        <time>2023-10-23T15:27:48Z</time>
      </trkpt>
      <trkpt lat="44.4927" lon="1.29977">
        <ele>184.7</ele>
        <time>2023-10-23T15:27:55Z</time>
      </trkpt>
      <trkpt lat="44.49268" lon="1.29982">
        <ele>185.9</ele>
        <time>2023-10-23T15:28:02Z</time>
      </trkpt>
      <trkpt lat="44.49266" lon="1.29989">
        <ele>186.1</ele>
        <time>2023-10-23T15:28:08Z</time>
      </trkpt>
      <trkpt lat="44.49266" lon="1.29995">
        <ele>183.8</ele>
        <time>2023-10-23T15:28:13Z</time>
      </trkpt>
      <trkpt lat="44.49264" lon="1.30003">
        <ele>182.7</ele>
        <time>2023-10-23T15:28:19Z</time>
      </trkpt>
      <trkpt lat="44.49263" lon="1.30009">
        <ele>182.1</ele>
        <time>2023-10-23T15:28:25Z</time>
      </trkpt>
      <trkpt lat="44.49258" lon="1.30007">
        <ele>174.4</ele>
        <time>2023-10-23T15:28:41Z</time>
      </trkpt>
      <trkpt lat="44.49257" lon="1.3">
        <ele>170.5</ele>
        <time>2023-10-23T15:28:48Z</time>
      </trkpt>
      <trkpt lat="44.49255" lon="1.29994">
        <ele>168.9</ele>
        <time>2023-10-23T15:28:55Z</time>
      </trkpt>
      <trkpt lat="44.49254" lon="1.29987">
        <ele>168.9</ele>
        <time>2023-10-23T15:29:01Z</time>
      </trkpt>
      <trkpt lat="44.49253" lon="1.29981">
        <ele>169.3</ele>
        <time>2023-10-23T15:29:07Z</time>
      </trkpt>
      <trkpt lat="44.4925" lon="1.29975">
        <ele>168.7</ele>
        <time>2023-10-23T15:29:12Z</time>
      </trkpt>
      <trkpt lat="44.49248" lon="1.29969">
        <ele>169.6</ele>
        <time>2023-10-23T15:29:18Z</time>
      </trkpt>
      <trkpt lat="44.49246" lon="1.29963">
        <ele>170</ele>
        <time>2023-10-23T15:29:25Z</time>
      </trkpt>
      <trkpt lat="44.49244" lon="1.29957">
        <ele>170.2</ele>
        <time>2023-10-23T15:29:31Z</time>
      </trkpt>
      <trkpt lat="44.49242" lon="1.29951">
        <ele>169.1</ele>
        <time>2023-10-23T15:29:37Z</time>
      </trkpt>
      <trkpt lat="44.49241" lon="1.29944">
        <ele>168.2</ele>
        <time>2023-10-23T15:29:43Z</time>
      </trkpt>
      <trkpt lat="44.4924" lon="1.29938">
        <ele>167.5</ele>
        <time>2023-10-23T15:29:49Z</time>
      </trkpt>
      <trkpt lat="44.49239" lon="1.29931">
        <ele>166.1</ele>
        <time>2023-10-23T15:29:55Z</time>
      </trkpt>
      <trkpt lat="44.49238" lon="1.29925">
        <ele>164.4</ele>
        <time>2023-10-23T15:30:01Z</time>
      </trkpt>
      <trkpt lat="44.49237" lon="1.29919">
        <ele>162.9</ele>
        <time>2023-10-23T15:30:07Z</time>
      </trkpt>
      <trkpt lat="44.49235" lon="1.29911">
        <ele>160.6</ele>
        <time>2023-10-23T15:30:16Z</time>
      </trkpt>
      <trkpt lat="44.49234" lon="1.29905">
        <ele>159.2</ele>
        <time>2023-10-23T15:30:21Z</time>
      </trkpt>
      <trkpt lat="44.49233" lon="1.29899">
        <ele>157.9</ele>
        <time>2023-10-23T15:30:27Z</time>
      </trkpt>
      <trkpt lat="44.49232" lon="1.29892">
        <ele>156.6</ele>
        <time>2023-10-23T15:30:34Z</time>
      </trkpt>
      <trkpt lat="44.4923" lon="1.29886">
        <ele>156.3</ele>
        <time>2023-10-23T15:30:40Z</time>
      </trkpt>
      <trkpt lat="44.49229" lon="1.29879">
        <ele>154.8</ele>
        <time>2023-10-23T15:30:46Z</time>
      </trkpt>
      <trkpt lat="44.49228" lon="1.29873">
        <ele>152.1</ele>
        <time>2023-10-23T15:30:50Z</time>
      </trkpt>
      <trkpt lat="44.49228" lon="1.29866">
        <ele>149.3</ele>
        <time>2023-10-23T15:30:56Z</time>
      </trkpt>
      <trkpt lat="44.49226" lon="1.2986">
        <ele>148.2</ele>
        <time>2023-10-23T15:31:01Z</time>
      </trkpt>
      <trkpt lat="44.49224" lon="1.29853">
        <ele>145.9</ele>
        <time>2023-10-23T15:31:08Z</time>
      </trkpt>
      <trkpt lat="44.49223" lon="1.29847">
        <ele>144.8</ele>
        <time>2023-10-23T15:31:15Z</time>
      </trkpt>
      <trkpt lat="44.49222" lon="1.2984">
        <ele>142.6</ele>
        <time>2023-10-23T15:31:21Z</time>
      </trkpt>
      <trkpt lat="44.4922" lon="1.29834">
        <ele>143.2</ele>
        <time>2023-10-23T15:31:31Z</time>
      </trkpt>
      <trkpt lat="44.49217" lon="1.29829">
        <ele>144.1</ele>
        <time>2023-10-23T15:31:40Z</time>
      </trkpt>
      <trkpt lat="44.49214" lon="1.29823">
        <ele>142.4</ele>
        <time>2023-10-23T15:31:49Z</time>
      </trkpt>
      <trkpt lat="44.4921" lon="1.29819">
        <ele>142.1</ele>
        <time>2023-10-23T15:31:59Z</time>
      </trkpt>
      <trkpt lat="44.49207" lon="1.29814">
        <ele>141.9</ele>
        <time>2023-10-23T15:32:05Z</time>
      </trkpt>
      <trkpt lat="44.49205" lon="1.29808">
        <ele>138.1</ele>
        <time>2023-10-23T15:32:11Z</time>
      </trkpt>
      <trkpt lat="44.492" lon="1.29806">
        <ele>139.6</ele>
        <time>2023-10-23T15:32:19Z</time>
      </trkpt>
      <trkpt lat="44.49195" lon="1.29802">
        <ele>138.3</ele>
        <time>2023-10-23T15:32:26Z</time>
      </trkpt>
      <trkpt lat="44.49192" lon="1.29798">
        <ele>136.6</ele>
        <time>2023-10-23T15:32:32Z</time>
      </trkpt>
      <trkpt lat="44.49189" lon="1.29792">
        <ele>134.8</ele>
        <time>2023-10-23T15:32:39Z</time>
      </trkpt>
      <trkpt lat="44.49186" lon="1.29786">
        <ele>133.9</ele>
        <time>2023-10-23T15:32:44Z</time>
      </trkpt>
      <trkpt lat="44.49182" lon="1.29783">
        <ele>132.6</ele>
        <time>2023-10-23T15:32:50Z</time>
      </trkpt>
      <trkpt lat="44.4918" lon="1.29776">
        <ele>131.5</ele>
        <time>2023-10-23T15:32:59Z</time>
      </trkpt>
      <trkpt lat="44.49177" lon="1.29771">
        <ele>131.4</ele>
        <time>2023-10-23T15:33:06Z</time>
      </trkpt>
      <trkpt lat="44.49175" lon="1.29765">
        <ele>129.9</ele>
        <time>2023-10-23T15:33:13Z</time>
      </trkpt>
      <trkpt lat="44.49173" lon="1.29758">
        <ele>130.5</ele>
        <time>2023-10-23T15:33:20Z</time>
      </trkpt>
      <trkpt lat="44.49172" lon="1.29752">
        <ele>129.1</ele>
        <time>2023-10-23T15:33:26Z</time>
      </trkpt>
      <trkpt lat="44.4917" lon="1.29746">
        <ele>129.3</ele>
        <time>2023-10-23T15:33:33Z</time>
      </trkpt>
      <trkpt lat="44.49169" lon="1.29739">
        <ele>127.3</ele>
        <time>2023-10-23T15:33:40Z</time>
      </trkpt>
      <trkpt lat="44.49167" lon="1.29733">
        <ele>124</ele>
        <time>2023-10-23T15:33:46Z</time>
      </trkpt>
      <trkpt lat="44.49166" lon="1.29726">
        <ele>123.3</ele>
        <time>2023-10-23T15:33:52Z</time>
      </trkpt>
      <trkpt lat="44.49164" lon="1.2972">
        <ele>123.3</ele>
        <time>2023-10-23T15:33:57Z</time>
      </trkpt>
      <trkpt lat="44.4916" lon="1.29717">
        <ele>124.4</ele>
        <time>2023-10-23T15:34:04Z</time>
      </trkpt>
      <trkpt lat="44.49158" lon="1.2971">
        <ele>124.3</ele>
        <time>2023-10-23T15:34:10Z</time>
      </trkpt>
      <trkpt lat="44.49163" lon="1.29708">
        <ele>119.9</ele>
        <time>2023-10-23T15:35:16Z</time>
      </trkpt>
      <trkpt lat="44.49163" lon="1.29702">
        <ele>119.4</ele>
        <time>2023-10-23T15:35:44Z</time>
      </trkpt>
      <trkpt lat="44.49163" lon="1.29695">
        <ele>118.2</ele>
        <time>2023-10-23T15:35:49Z</time>
      </trkpt>
      <trkpt lat="44.49161" lon="1.29689">
        <ele>117.6</ele>
        <time>2023-10-23T15:35:55Z</time>
      </trkpt>
      <trkpt lat="44.4916" lon="1.29682">
        <ele>117.3</ele>
        <time>2023-10-23T15:36:01Z</time>
      </trkpt>
      <trkpt lat="44.49159" lon="1.29674">
        <ele>116.5</ele>
        <time>2023-10-23T15:36:05Z</time>
      </trkpt>
      <trkpt lat="44.49157" lon="1.29668">
        <ele>115.7</ele>
        <time>2023-10-23T15:36:10Z</time>
      </trkpt>
      <trkpt lat="44.49155" lon="1.29662">
        <ele>115.2</ele>
        <time>2023-10-23T15:36:15Z</time>
      </trkpt>
      <trkpt lat="44.49153" lon="1.29656">
        <ele>115.4</ele>
        <time>2023-10-23T15:36:20Z</time>
      </trkpt>
      <trkpt lat="44.49151" lon="1.2965">
        <ele>115.4</ele>
        <time>2023-10-23T15:36:26Z</time>
      </trkpt>
      <trkpt lat="44.49149" lon="1.29643">
        <ele>113.1</ele>
        <time>2023-10-23T15:36:32Z</time>
      </trkpt>
      <trkpt lat="44.49147" lon="1.29636">
        <ele>112.4</ele>
        <time>2023-10-23T15:36:38Z</time>
      </trkpt>
      <trkpt lat="44.49145" lon="1.2963">
        <ele>112.6</ele>
        <time>2023-10-23T15:36:44Z</time>
      </trkpt>
      <trkpt lat="44.49142" lon="1.29625">
        <ele>112.2</ele>
        <time>2023-10-23T15:36:50Z</time>
      </trkpt>
      <trkpt lat="44.49139" lon="1.29619">
        <ele>112.3</ele>
        <time>2023-10-23T15:36:56Z</time>
      </trkpt>
      <trkpt lat="44.49136" lon="1.29613">
        <ele>111.5</ele>
        <time>2023-10-23T15:37:02Z</time>
      </trkpt>
      <trkpt lat="44.49133" lon="1.29607">
        <ele>110.1</ele>
        <time>2023-10-23T15:37:07Z</time>
      </trkpt>
      <trkpt lat="44.49129" lon="1.29603">
        <ele>107.1</ele>
        <time>2023-10-23T15:37:13Z</time>
      </trkpt>
      <trkpt lat="44.49127" lon="1.29597">
        <ele>108.7</ele>
        <time>2023-10-23T15:37:19Z</time>
      </trkpt>
      <trkpt lat="44.49123" lon="1.29593">
        <ele>109.7</ele>
        <time>2023-10-23T15:37:25Z</time>
      </trkpt>
      <trkpt lat="44.49119" lon="1.29591">
        <ele>114.4</ele>
        <time>2023-10-23T15:37:31Z</time>
      </trkpt>
      <trkpt lat="44.49114" lon="1.29591">
        <ele>120.3</ele>
        <time>2023-10-23T15:37:36Z</time>
      </trkpt>
      <trkpt lat="44.49109" lon="1.29588">
        <ele>120.9</ele>
        <time>2023-10-23T15:37:41Z</time>
      </trkpt>
      <trkpt lat="44.49104" lon="1.29588">
        <ele>120.7</ele>
        <time>2023-10-23T15:37:46Z</time>
      </trkpt>
      <trkpt lat="44.49099" lon="1.29586">
        <ele>120.3</ele>
        <time>2023-10-23T15:37:51Z</time>
      </trkpt>
      <trkpt lat="44.49095" lon="1.29583">
        <ele>122.4</ele>
        <time>2023-10-23T15:37:56Z</time>
      </trkpt>
      <trkpt lat="44.4909" lon="1.29581">
        <ele>115.5</ele>
        <time>2023-10-23T15:38:00Z</time>
      </trkpt>
      <trkpt lat="44.49085" lon="1.29581">
        <ele>113.6</ele>
        <time>2023-10-23T15:38:04Z</time>
      </trkpt>
      <trkpt lat="44.4908" lon="1.29581">
        <ele>116.1</ele>
        <time>2023-10-23T15:38:09Z</time>
      </trkpt>
      <trkpt lat="44.49076" lon="1.29582">
        <ele>117.8</ele>
        <time>2023-10-23T15:38:16Z</time>
      </trkpt>
      <trkpt lat="44.49071" lon="1.2958">
        <ele>117.9</ele>
        <time>2023-10-23T15:38:23Z</time>
      </trkpt>
      <trkpt lat="44.49066" lon="1.29581">
        <ele>115.8</ele>
        <time>2023-10-23T15:38:28Z</time>
      </trkpt>
      <trkpt lat="44.4906" lon="1.2958">
        <ele>113.8</ele>
        <time>2023-10-23T15:38:33Z</time>
      </trkpt>
      <trkpt lat="44.49056" lon="1.29578">
        <ele>111.3</ele>
        <time>2023-10-23T15:38:37Z</time>
      </trkpt>
      <trkpt lat="44.49052" lon="1.29574">
        <ele>110.2</ele>
        <time>2023-10-23T15:38:42Z</time>
      </trkpt>
      <trkpt lat="44.49049" lon="1.29568">
        <ele>110.3</ele>
        <time>2023-10-23T15:38:47Z</time>
      </trkpt>
      <trkpt lat="44.49047" lon="1.29562">
        <ele>110</ele>
        <time>2023-10-23T15:38:52Z</time>
      </trkpt>
      <trkpt lat="44.49045" lon="1.29556">
        <ele>109</ele>
        <time>2023-10-23T15:38:57Z</time>
      </trkpt>
      <trkpt lat="44.49044" lon="1.29549">
        <ele>108.7</ele>
        <time>2023-10-23T15:39:02Z</time>
      </trkpt>
      <trkpt lat="44.49043" lon="1.29542">
        <ele>110.1</ele>
        <time>2023-10-23T15:39:07Z</time>
      </trkpt>
      <trkpt lat="44.49043" lon="1.29535">
        <ele>109.4</ele>
        <time>2023-10-23T15:39:10Z</time>
      </trkpt>
      <trkpt lat="44.49045" lon="1.29527">
        <ele>106.3</ele>
        <time>2023-10-23T15:39:13Z</time>
      </trkpt>
      <trkpt lat="44.49047" lon="1.29521">
        <ele>104.2</ele>
        <time>2023-10-23T15:39:16Z</time>
      </trkpt>
      <trkpt lat="44.4905" lon="1.29516">
        <ele>103.4</ele>
        <time>2023-10-23T15:39:20Z</time>
      </trkpt>
      <trkpt lat="44.49054" lon="1.29511">
        <ele>101.8</ele>
        <time>2023-10-23T15:39:25Z</time>
      </trkpt>
      <trkpt lat="44.49058" lon="1.29509">
        <ele>101.5</ele>
        <time>2023-10-23T15:39:30Z</time>
      </trkpt>
      <trkpt lat="44.49063" lon="1.29507">
        <ele>100.8</ele>
        <time>2023-10-23T15:39:35Z</time>
      </trkpt>
      <trkpt lat="44.49068" lon="1.29506">
        <ele>101.6</ele>
        <time>2023-10-23T15:39:40Z</time>
      </trkpt>
      <trkpt lat="44.49073" lon="1.29506">
        <ele>103.7</ele>
        <time>2023-10-23T15:39:45Z</time>
      </trkpt>
      <trkpt lat="44.49078" lon="1.29502">
        <ele>106</ele>
        <time>2023-10-23T15:39:50Z</time>
      </trkpt>
      <trkpt lat="44.49081" lon="1.29498">
        <ele>106.2</ele>
        <time>2023-10-23T15:39:55Z</time>
      </trkpt>
      <trkpt lat="44.49083" lon="1.29491">
        <ele>103.8</ele>
        <time>2023-10-23T15:40:56Z</time>
      </trkpt>
    </trkseg>
  </trk>
</gpx>